<?xml version='1.0' encoding='UTF-8'?><gpx version="1.1" creator="JPX - https://github.com/jenetics/jpx" xmlns="http://www.topografix.com/GPX/1/1"><trk><trkseg><trkpt lat="45.4330667" lon="9.3886667"><ele>100.0</ele><time>2026-04-25T08:29:52.631Z</time></trkpt><trkpt lat="45.4330333" lon="9.388585"><ele>100.0</ele><time>2026-04-25T08:29:55.631Z</time></trkpt><trkpt lat="45.4328617" lon="9.3882267"><ele>100.0</ele><time>2026-04-25T08:29:56.634Z</time></trkpt><trkpt lat="45.4327867" lon="9.3880183"><ele>100.16666666666667</ele><time>2026-04-25T08:29:57.631Z</time></trkpt><trkpt lat="45.4326617" lon="9.3879467"><ele>100.33333333333334</ele><time>2026-04-25T08:29:58.632Z</time></trkpt><trkpt lat="45.4326233" lon="9.3878683"><ele>100.5</ele><time>2026-04-25T08:30:00.63Z</time></trkpt><trkpt lat="45.4325533" lon="9.387915"><ele>100.66666666666666</ele><time>2026-04-25T08:30:03.63Z</time></trkpt><trkpt lat="45.4324833" lon="9.3879483"><ele>100.83333333333333</ele><time>2026-04-25T08:30:06.63Z</time></trkpt><trkpt lat="45.4324117" lon="9.3879517"><ele>101.0</ele><time>2026-04-25T08:30:10.631Z</time></trkpt><trkpt lat="45.43237" lon="9.3878633"><ele>100.99999999999999</ele><time>2026-04-25T08:30:14.631Z</time></trkpt><trkpt lat="45.432355" lon="9.387765"><ele>101.0</ele><time>2026-04-25T08:30:18.632Z</time></trkpt><trkpt lat="45.432345" lon="9.3876717"><ele>101.0</ele><time>2026-04-25T08:30:23.631Z</time></trkpt><trkpt lat="45.4323533" lon="9.3875583"><ele>101.0</ele><time>2026-04-25T08:30:27.632Z</time></trkpt><trkpt lat="45.4323583" lon="9.38744"><ele>100.99999999999999</ele><time>2026-04-25T08:30:30.631Z</time></trkpt><trkpt lat="45.4323717" lon="9.3873217"><ele>101.0</ele><time>2026-04-25T08:30:33.63Z</time></trkpt><trkpt lat="45.4323867" lon="9.3872017"><ele>101.33333333333333</ele><time>2026-04-25T08:30:36.631Z</time></trkpt><trkpt lat="45.4323883" lon="9.3871067"><ele>101.66666666666666</ele><time>2026-04-25T08:30:38.631Z</time></trkpt><trkpt lat="45.4323733" lon="9.3870083"><ele>102.0</ele><time>2026-04-25T08:30:40.631Z</time></trkpt><trkpt lat="45.4323833" lon="9.3868817"><ele>102.33333333333334</ele><time>2026-04-25T08:30:43.633Z</time></trkpt><trkpt lat="45.4323133" lon="9.3868"><ele>102.66666666666667</ele><time>2026-04-25T08:30:49.631Z</time></trkpt><trkpt lat="45.4322267" lon="9.3868067"><ele>103.0</ele><time>2026-04-25T08:30:51.632Z</time></trkpt><trkpt lat="45.432135" lon="9.3868217"><ele>102.33333333333334</ele><time>2026-04-25T08:30:53.631Z</time></trkpt><trkpt lat="45.43205" lon="9.3868417"><ele>101.66666666666667</ele><time>2026-04-25T08:30:55.633Z</time></trkpt><trkpt lat="45.431975" lon="9.3868417"><ele>101.0</ele><time>2026-04-25T08:30:57.632Z</time></trkpt><trkpt lat="45.4319067" lon="9.3868167"><ele>100.33333333333334</ele><time>2026-04-25T08:31:00.632Z</time></trkpt><trkpt lat="45.4318733" lon="9.3867367"><ele>99.66666666666667</ele><time>2026-04-25T08:31:05.631Z</time></trkpt><trkpt lat="45.431835" lon="9.386845"><ele>99.0</ele><time>2026-04-25T08:31:14.631Z</time></trkpt><trkpt lat="45.4318283" lon="9.3869417"><ele>99.0</ele><time>2026-04-25T08:31:16.631Z</time></trkpt><trkpt lat="45.4318233" lon="9.3870467"><ele>99.0</ele><time>2026-04-25T08:31:18.63Z</time></trkpt><trkpt lat="45.4318333" lon="9.3871733"><ele>99.0</ele><time>2026-04-25T08:31:20.632Z</time></trkpt><trkpt lat="45.4318383" lon="9.38729"><ele>99.0</ele><time>2026-04-25T08:31:22.63Z</time></trkpt><trkpt lat="45.4318467" lon="9.387405"><ele>99.0</ele><time>2026-04-25T08:31:24.631Z</time></trkpt><trkpt lat="45.431875" lon="9.3875417"><ele>99.0</ele><time>2026-04-25T08:31:26.63Z</time></trkpt><trkpt lat="45.4318917" lon="9.3876867"><ele>99.0</ele><time>2026-04-25T08:31:28.629Z</time></trkpt><trkpt lat="45.4319133" lon="9.387835"><ele>99.0</ele><time>2026-04-25T08:31:30.638Z</time></trkpt><trkpt lat="45.4319417" lon="9.387975"><ele>99.0</ele><time>2026-04-25T08:31:32.632Z</time></trkpt><trkpt lat="45.4319683" lon="9.3881167"><ele>99.0</ele><time>2026-04-25T08:31:34.629Z</time></trkpt><trkpt lat="45.432" lon="9.3882733"><ele>99.0</ele><time>2026-04-25T08:31:36.632Z</time></trkpt><trkpt lat="45.432035" lon="9.3884167"><ele>99.0</ele><time>2026-04-25T08:31:38.631Z</time></trkpt><trkpt lat="45.4320733" lon="9.3885733"><ele>99.0</ele><time>2026-04-25T08:31:40.629Z</time></trkpt><trkpt lat="45.4321117" lon="9.3887117"><ele>99.0</ele><time>2026-04-25T08:31:42.634Z</time></trkpt><trkpt lat="45.4321467" lon="9.388865"><ele>99.0</ele><time>2026-04-25T08:31:44.631Z</time></trkpt><trkpt lat="45.4321667" lon="9.38898"><ele>99.0</ele><time>2026-04-25T08:31:46.63Z</time></trkpt><trkpt lat="45.4321733" lon="9.38909"><ele>99.0</ele><time>2026-04-25T08:31:48.631Z</time></trkpt><trkpt lat="45.432185" lon="9.3891983"><ele>99.0</ele><time>2026-04-25T08:31:50.631Z</time></trkpt><trkpt lat="45.4321917" lon="9.3893083"><ele>99.0</ele><time>2026-04-25T08:31:52.63Z</time></trkpt><trkpt lat="45.4321983" lon="9.3894133"><ele>99.0</ele><time>2026-04-25T08:31:54.632Z</time></trkpt><trkpt lat="45.4322167" lon="9.3895217"><ele>99.0</ele><time>2026-04-25T08:31:56.631Z</time></trkpt><trkpt lat="45.4322333" lon="9.389615"><ele>99.0</ele><time>2026-04-25T08:31:58.631Z</time></trkpt><trkpt lat="45.43225" lon="9.389715"><ele>99.0</ele><time>2026-04-25T08:32:00.633Z</time></trkpt><trkpt lat="45.4322583" lon="9.3898267"><ele>99.2</ele><time>2026-04-25T08:32:02.632Z</time></trkpt><trkpt lat="45.4322783" lon="9.3899617"><ele>99.4</ele><time>2026-04-25T08:32:04.63Z</time></trkpt><trkpt lat="45.43229" lon="9.3900917"><ele>99.6</ele><time>2026-04-25T08:32:06.631Z</time></trkpt><trkpt lat="45.43231" lon="9.3902267"><ele>99.8</ele><time>2026-04-25T08:32:08.631Z</time></trkpt><trkpt lat="45.4323383" lon="9.3903867"><ele>100.0</ele><time>2026-04-25T08:32:10.629Z</time></trkpt><trkpt lat="45.4323667" lon="9.3905417"><ele>100.6</ele><time>2026-04-25T08:32:12.63Z</time></trkpt><trkpt lat="45.4323933" lon="9.390695"><ele>101.2</ele><time>2026-04-25T08:32:14.633Z</time></trkpt><trkpt lat="45.4324283" lon="9.390845"><ele>101.80000000000001</ele><time>2026-04-25T08:32:16.63Z</time></trkpt><trkpt lat="45.432455" lon="9.3910133"><ele>102.4</ele><time>2026-04-25T08:32:18.63Z</time></trkpt><trkpt lat="45.4324633" lon="9.391105"><ele>103.0</ele><time>2026-04-25T08:32:19.631Z</time></trkpt><trkpt lat="45.43249" lon="9.3912433"><ele>102.60000000000001</ele><time>2026-04-25T08:32:21.63Z</time></trkpt><trkpt lat="45.432515" lon="9.3913817"><ele>102.2</ele><time>2026-04-25T08:32:23.629Z</time></trkpt><trkpt lat="45.432535" lon="9.3915183"><ele>101.8</ele><time>2026-04-25T08:32:25.632Z</time></trkpt><trkpt lat="45.4325583" lon="9.391665"><ele>101.4</ele><time>2026-04-25T08:32:27.631Z</time></trkpt><trkpt lat="45.4325617" lon="9.39182"><ele>101.0</ele><time>2026-04-25T08:32:29.631Z</time></trkpt><trkpt lat="45.4325567" lon="9.3919767"><ele>101.0</ele><time>2026-04-25T08:32:31.632Z</time></trkpt><trkpt lat="45.4325733" lon="9.3921233"><ele>101.0</ele><time>2026-04-25T08:32:33.631Z</time></trkpt><trkpt lat="45.4326267" lon="9.3922417"><ele>101.0</ele><time>2026-04-25T08:32:35.631Z</time></trkpt><trkpt lat="45.4327117" lon="9.3922967"><ele>101.0</ele><time>2026-04-25T08:32:37.631Z</time></trkpt><trkpt lat="45.43282" lon="9.39227"><ele>101.0</ele><time>2026-04-25T08:32:39.632Z</time></trkpt><trkpt lat="45.4329167" lon="9.3921583"><ele>101.0</ele><time>2026-04-25T08:32:41.631Z</time></trkpt><trkpt lat="45.4330017" lon="9.392035"><ele>101.0</ele><time>2026-04-25T08:32:43.63Z</time></trkpt><trkpt lat="45.4330767" lon="9.3919317"><ele>101.0</ele><time>2026-04-25T08:32:45.632Z</time></trkpt><trkpt lat="45.433175" lon="9.391855"><ele>101.0</ele><time>2026-04-25T08:32:47.632Z</time></trkpt><trkpt lat="45.43327" lon="9.39179"><ele>101.0</ele><time>2026-04-25T08:32:49.631Z</time></trkpt><trkpt lat="45.4333583" lon="9.3917283"><ele>101.0</ele><time>2026-04-25T08:32:51.63Z</time></trkpt><trkpt lat="45.433455" lon="9.3916783"><ele>101.0</ele><time>2026-04-25T08:32:53.632Z</time></trkpt><trkpt lat="45.433565" lon="9.3916283"><ele>101.0</ele><time>2026-04-25T08:32:55.632Z</time></trkpt><trkpt lat="45.4336717" lon="9.3915717"><ele>101.0</ele><time>2026-04-25T08:32:57.633Z</time></trkpt><trkpt lat="45.4337733" lon="9.3915083"><ele>101.0</ele><time>2026-04-25T08:32:59.632Z</time></trkpt><trkpt lat="45.4338783" lon="9.3914433"><ele>101.0</ele><time>2026-04-25T08:33:01.632Z</time></trkpt><trkpt lat="45.4339933" lon="9.391385"><ele>101.0</ele><time>2026-04-25T08:33:03.636Z</time></trkpt><trkpt lat="45.4340533" lon="9.3913517"><ele>101.0</ele><time>2026-04-25T08:33:04.632Z</time></trkpt><trkpt lat="45.434165" lon="9.3912883"><ele>101.0</ele><time>2026-04-25T08:33:06.633Z</time></trkpt><trkpt lat="45.4342783" lon="9.3912217"><ele>101.0</ele><time>2026-04-25T08:33:08.632Z</time></trkpt><trkpt lat="45.43439" lon="9.391165"><ele>101.0</ele><time>2026-04-25T08:33:10.629Z</time></trkpt><trkpt lat="45.4345033" lon="9.3911017"><ele>101.0</ele><time>2026-04-25T08:33:12.635Z</time></trkpt><trkpt lat="45.4346233" lon="9.39104"><ele>101.0</ele><time>2026-04-25T08:33:14.632Z</time></trkpt><trkpt lat="45.434735" lon="9.39099"><ele>101.0</ele><time>2026-04-25T08:33:16.632Z</time></trkpt><trkpt lat="45.434795" lon="9.3909567"><ele>101.0</ele><time>2026-04-25T08:33:17.631Z</time></trkpt><trkpt lat="45.434855" lon="9.3909267"><ele>100.5</ele><time>2026-04-25T08:33:18.632Z</time></trkpt><trkpt lat="45.4349183" lon="9.3908883"><ele>100.0</ele><time>2026-04-25T08:33:19.63Z</time></trkpt><trkpt lat="45.4350383" lon="9.3908267"><ele>99.5</ele><time>2026-04-25T08:33:21.632Z</time></trkpt><trkpt lat="45.4351617" lon="9.3907633"><ele>99.0</ele><time>2026-04-25T08:33:23.631Z</time></trkpt><trkpt lat="45.4352867" lon="9.3907033"><ele>99.0</ele><time>2026-04-25T08:33:25.632Z</time></trkpt><trkpt lat="45.4353517" lon="9.3906667"><ele>99.0</ele><time>2026-04-25T08:33:26.633Z</time></trkpt><trkpt lat="45.4354117" lon="9.3906383"><ele>99.0</ele><time>2026-04-25T08:33:27.633Z</time></trkpt><trkpt lat="45.435525" lon="9.39059"><ele>99.0</ele><time>2026-04-25T08:33:29.631Z</time></trkpt><trkpt lat="45.4356433" lon="9.3905433"><ele>99.0</ele><time>2026-04-25T08:33:31.632Z</time></trkpt><trkpt lat="45.4357567" lon="9.3904983"><ele>99.16666666666667</ele><time>2026-04-25T08:33:33.631Z</time></trkpt><trkpt lat="45.435875" lon="9.3904583"><ele>99.33333333333334</ele><time>2026-04-25T08:33:35.632Z</time></trkpt><trkpt lat="45.435945" lon="9.3904283"><ele>99.5</ele><time>2026-04-25T08:33:36.634Z</time></trkpt><trkpt lat="45.43601" lon="9.3904033"><ele>99.66666666666667</ele><time>2026-04-25T08:33:37.631Z</time></trkpt><trkpt lat="45.4361267" lon="9.3903767"><ele>99.83333333333334</ele><time>2026-04-25T08:33:39.632Z</time></trkpt><trkpt lat="45.43619" lon="9.3903567"><ele>100.0</ele><time>2026-04-25T08:33:40.63Z</time></trkpt><trkpt lat="45.4362517" lon="9.39033"><ele>100.0</ele><time>2026-04-25T08:33:41.631Z</time></trkpt><trkpt lat="45.4363717" lon="9.3902983"><ele>100.0</ele><time>2026-04-25T08:33:43.632Z</time></trkpt><trkpt lat="45.4364883" lon="9.3902617"><ele>100.0</ele><time>2026-04-25T08:33:45.632Z</time></trkpt><trkpt lat="45.43655" lon="9.3902417"><ele>100.0</ele><time>2026-04-25T08:33:46.63Z</time></trkpt><trkpt lat="45.4366583" lon="9.3902133"><ele>100.0</ele><time>2026-04-25T08:33:48.632Z</time></trkpt><trkpt lat="45.43677" lon="9.3901983"><ele>100.0</ele><time>2026-04-25T08:33:50.632Z</time></trkpt><trkpt lat="45.436885" lon="9.39017"><ele>100.0</ele><time>2026-04-25T08:33:52.631Z</time></trkpt><trkpt lat="45.436995" lon="9.390145"><ele>100.0</ele><time>2026-04-25T08:33:54.632Z</time></trkpt><trkpt lat="45.4371083" lon="9.39012"><ele>100.0</ele><time>2026-04-25T08:33:56.632Z</time></trkpt><trkpt lat="45.4372217" lon="9.3900867"><ele>99.5</ele><time>2026-04-25T08:33:58.63Z</time></trkpt><trkpt lat="45.4373383" lon="9.3900517"><ele>99.0</ele><time>2026-04-25T08:34:00.632Z</time></trkpt><trkpt lat="45.4374533" lon="9.39001"><ele>98.5</ele><time>2026-04-25T08:34:02.634Z</time></trkpt><trkpt lat="45.437565" lon="9.3899683"><ele>98.0</ele><time>2026-04-25T08:34:04.629Z</time></trkpt><trkpt lat="45.4376783" lon="9.38994"><ele>98.0</ele><time>2026-04-25T08:34:06.63Z</time></trkpt><trkpt lat="45.4377917" lon="9.38991"><ele>98.0</ele><time>2026-04-25T08:34:08.631Z</time></trkpt><trkpt lat="45.4379117" lon="9.3898683"><ele>98.0</ele><time>2026-04-25T08:34:10.629Z</time></trkpt><trkpt lat="45.4380317" lon="9.3898383"><ele>98.0</ele><time>2026-04-25T08:34:12.632Z</time></trkpt><trkpt lat="45.4381467" lon="9.3898083"><ele>98.0</ele><time>2026-04-25T08:34:14.63Z</time></trkpt><trkpt lat="45.4382633" lon="9.3897667"><ele>98.0</ele><time>2026-04-25T08:34:16.628Z</time></trkpt><trkpt lat="45.438385" lon="9.3897217"><ele>98.0</ele><time>2026-04-25T08:34:18.631Z</time></trkpt><trkpt lat="45.4384983" lon="9.3896867"><ele>98.0</ele><time>2026-04-25T08:34:20.63Z</time></trkpt><trkpt lat="45.4386133" lon="9.389655"><ele>98.0</ele><time>2026-04-25T08:34:22.63Z</time></trkpt><trkpt lat="45.4387233" lon="9.3896267"><ele>98.0</ele><time>2026-04-25T08:34:24.629Z</time></trkpt><trkpt lat="45.4388367" lon="9.3895833"><ele>98.0</ele><time>2026-04-25T08:34:26.629Z</time></trkpt><trkpt lat="45.438935" lon="9.3895583"><ele>98.0</ele><time>2026-04-25T08:34:28.628Z</time></trkpt><trkpt lat="45.4390417" lon="9.3895267"><ele>98.0</ele><time>2026-04-25T08:34:30.629Z</time></trkpt><trkpt lat="45.439145" lon="9.3894983"><ele>98.0</ele><time>2026-04-25T08:34:32.63Z</time></trkpt><trkpt lat="45.43924" lon="9.3894733"><ele>98.0</ele><time>2026-04-25T08:34:34.631Z</time></trkpt><trkpt lat="45.4393517" lon="9.38944"><ele>98.0</ele><time>2026-04-25T08:34:36.628Z</time></trkpt><trkpt lat="45.439465" lon="9.3894117"><ele>98.0</ele><time>2026-04-25T08:34:38.629Z</time></trkpt><trkpt lat="45.43958" lon="9.3893633"><ele>98.0</ele><time>2026-04-25T08:34:40.63Z</time></trkpt><trkpt lat="45.4396917" lon="9.38933"><ele>98.0</ele><time>2026-04-25T08:34:42.63Z</time></trkpt><trkpt lat="45.4398033" lon="9.3893033"><ele>98.0</ele><time>2026-04-25T08:34:44.634Z</time></trkpt><trkpt lat="45.43992" lon="9.3892667"><ele>98.0</ele><time>2026-04-25T08:34:46.629Z</time></trkpt><trkpt lat="45.440025" lon="9.3892417"><ele>98.0</ele><time>2026-04-25T08:34:48.63Z</time></trkpt><trkpt lat="45.4401367" lon="9.389215"><ele>98.0</ele><time>2026-04-25T08:34:50.63Z</time></trkpt><trkpt lat="45.4402533" lon="9.3891883"><ele>98.0</ele><time>2026-04-25T08:34:52.629Z</time></trkpt><trkpt lat="45.4403167" lon="9.3891667"><ele>98.0</ele><time>2026-04-25T08:34:53.63Z</time></trkpt><trkpt lat="45.4403783" lon="9.3891433"><ele>98.0</ele><time>2026-04-25T08:34:54.631Z</time></trkpt><trkpt lat="45.4404967" lon="9.389105"><ele>98.0</ele><time>2026-04-25T08:34:56.63Z</time></trkpt><trkpt lat="45.4406083" lon="9.3890733"><ele>98.2</ele><time>2026-04-25T08:34:58.629Z</time></trkpt><trkpt lat="45.440715" lon="9.389045"><ele>98.4</ele><time>2026-04-25T08:35:00.629Z</time></trkpt><trkpt lat="45.44082" lon="9.389005"><ele>98.60000000000001</ele><time>2026-04-25T08:35:02.629Z</time></trkpt><trkpt lat="45.4409183" lon="9.388975"><ele>98.80000000000001</ele><time>2026-04-25T08:35:04.629Z</time></trkpt><trkpt lat="45.4410217" lon="9.3889417"><ele>99.0</ele><time>2026-04-25T08:35:06.631Z</time></trkpt><trkpt lat="45.4411267" lon="9.388905"><ele>99.0</ele><time>2026-04-25T08:35:08.629Z</time></trkpt><trkpt lat="45.441235" lon="9.3888583"><ele>99.0</ele><time>2026-04-25T08:35:10.629Z</time></trkpt><trkpt lat="45.4413383" lon="9.3888167"><ele>99.0</ele><time>2026-04-25T08:35:12.632Z</time></trkpt><trkpt lat="45.441445" lon="9.3887683"><ele>99.0</ele><time>2026-04-25T08:35:14.629Z</time></trkpt><trkpt lat="45.441555" lon="9.388695"><ele>99.2</ele><time>2026-04-25T08:35:16.631Z</time></trkpt><trkpt lat="45.4416583" lon="9.3886283"><ele>99.4</ele><time>2026-04-25T08:35:18.63Z</time></trkpt><trkpt lat="45.4417583" lon="9.3885483"><ele>99.6</ele><time>2026-04-25T08:35:20.629Z</time></trkpt><trkpt lat="45.4418517" lon="9.3884683"><ele>99.8</ele><time>2026-04-25T08:35:22.63Z</time></trkpt><trkpt lat="45.4419417" lon="9.3883983"><ele>100.0</ele><time>2026-04-25T08:35:24.632Z</time></trkpt><trkpt lat="45.4420367" lon="9.3883183"><ele>100.0</ele><time>2026-04-25T08:35:26.63Z</time></trkpt><trkpt lat="45.44213" lon="9.3882317"><ele>100.0</ele><time>2026-04-25T08:35:28.63Z</time></trkpt><trkpt lat="45.4422183" lon="9.3881517"><ele>100.0</ele><time>2026-04-25T08:35:30.63Z</time></trkpt><trkpt lat="45.4423" lon="9.3880733"><ele>100.0</ele><time>2026-04-25T08:35:32.631Z</time></trkpt><trkpt lat="45.442385" lon="9.3879867"><ele>100.0</ele><time>2026-04-25T08:35:34.629Z</time></trkpt><trkpt lat="45.442465" lon="9.3879133"><ele>100.2</ele><time>2026-04-25T08:35:36.63Z</time></trkpt><trkpt lat="45.4425417" lon="9.387825"><ele>100.4</ele><time>2026-04-25T08:35:38.631Z</time></trkpt><trkpt lat="45.44262" lon="9.3877333"><ele>100.6</ele><time>2026-04-25T08:35:40.63Z</time></trkpt><trkpt lat="45.4427167" lon="9.3876567"><ele>100.8</ele><time>2026-04-25T08:35:42.63Z</time></trkpt><trkpt lat="45.4428233" lon="9.3875817"><ele>101.0</ele><time>2026-04-25T08:35:44.629Z</time></trkpt><trkpt lat="45.4429317" lon="9.3875267"><ele>101.19999999999999</ele><time>2026-04-25T08:35:46.628Z</time></trkpt><trkpt lat="45.4430233" lon="9.3874617"><ele>101.39999999999999</ele><time>2026-04-25T08:35:48.63Z</time></trkpt><trkpt lat="45.44309" lon="9.38734"><ele>101.6</ele><time>2026-04-25T08:35:50.632Z</time></trkpt><trkpt lat="45.4431267" lon="9.38718"><ele>101.8</ele><time>2026-04-25T08:35:52.629Z</time></trkpt><trkpt lat="45.44316" lon="9.3870233"><ele>102.0</ele><time>2026-04-25T08:35:54.63Z</time></trkpt><trkpt lat="45.44321" lon="9.386865"><ele>102.0</ele><time>2026-04-25T08:35:56.629Z</time></trkpt><trkpt lat="45.4432867" lon="9.386725"><ele>102.0</ele><time>2026-04-25T08:35:58.629Z</time></trkpt><trkpt lat="45.443325" lon="9.3866533"><ele>102.0</ele><time>2026-04-25T08:35:59.629Z</time></trkpt><trkpt lat="45.4434033" lon="9.3865233"><ele>102.0</ele><time>2026-04-25T08:36:01.629Z</time></trkpt><trkpt lat="45.4434483" lon="9.38646"><ele>102.0</ele><time>2026-04-25T08:36:02.631Z</time></trkpt><trkpt lat="45.4435417" lon="9.3863517"><ele>102.19999999999999</ele><time>2026-04-25T08:36:04.63Z</time></trkpt><trkpt lat="45.4436383" lon="9.386255"><ele>102.4</ele><time>2026-04-25T08:36:06.63Z</time></trkpt><trkpt lat="45.443725" lon="9.38616"><ele>102.6</ele><time>2026-04-25T08:36:08.63Z</time></trkpt><trkpt lat="45.44381" lon="9.3860683"><ele>102.80000000000001</ele><time>2026-04-25T08:36:10.629Z</time></trkpt><trkpt lat="45.4438933" lon="9.3859767"><ele>103.0</ele><time>2026-04-25T08:36:12.629Z</time></trkpt><trkpt lat="45.4439867" lon="9.3858867"><ele>103.0</ele><time>2026-04-25T08:36:14.631Z</time></trkpt><trkpt lat="45.444085" lon="9.385785"><ele>103.0</ele><time>2026-04-25T08:36:16.629Z</time></trkpt><trkpt lat="45.4441817" lon="9.385695"><ele>103.0</ele><time>2026-04-25T08:36:18.63Z</time></trkpt><trkpt lat="45.4442867" lon="9.3856017"><ele>103.0</ele><time>2026-04-25T08:36:20.629Z</time></trkpt><trkpt lat="45.4443883" lon="9.385505"><ele>103.0</ele><time>2026-04-25T08:36:22.63Z</time></trkpt><trkpt lat="45.4444867" lon="9.385415"><ele>103.0</ele><time>2026-04-25T08:36:24.63Z</time></trkpt><trkpt lat="45.4445833" lon="9.3853217"><ele>103.0</ele><time>2026-04-25T08:36:26.63Z</time></trkpt><trkpt lat="45.444675" lon="9.38524"><ele>103.0</ele><time>2026-04-25T08:36:28.63Z</time></trkpt><trkpt lat="45.4447767" lon="9.385145"><ele>103.2</ele><time>2026-04-25T08:36:30.63Z</time></trkpt><trkpt lat="45.4448683" lon="9.38505"><ele>103.4</ele><time>2026-04-25T08:36:32.63Z</time></trkpt><trkpt lat="45.4449567" lon="9.3849583"><ele>103.60000000000001</ele><time>2026-04-25T08:36:34.631Z</time></trkpt><trkpt lat="45.44505" lon="9.3848733"><ele>103.80000000000001</ele><time>2026-04-25T08:36:36.63Z</time></trkpt><trkpt lat="45.4451367" lon="9.3847833"><ele>104.0</ele><time>2026-04-25T08:36:38.638Z</time></trkpt><trkpt lat="45.44522" lon="9.384685"><ele>103.99999999999999</ele><time>2026-04-25T08:36:40.629Z</time></trkpt><trkpt lat="45.4453083" lon="9.3845867"><ele>104.0</ele><time>2026-04-25T08:36:42.629Z</time></trkpt><trkpt lat="45.44541" lon="9.38449"><ele>104.0</ele><time>2026-04-25T08:36:44.631Z</time></trkpt><trkpt lat="45.4454617" lon="9.3844367"><ele>104.0</ele><time>2026-04-25T08:36:45.631Z</time></trkpt><trkpt lat="45.4455133" lon="9.384385"><ele>103.99999999999999</ele><time>2026-04-25T08:36:46.629Z</time></trkpt><trkpt lat="45.4455667" lon="9.3843333"><ele>104.0</ele><time>2026-04-25T08:36:47.628Z</time></trkpt><trkpt lat="45.4456183" lon="9.38428"><ele>104.0</ele><time>2026-04-25T08:36:48.63Z</time></trkpt><trkpt lat="45.44572" lon="9.3841833"><ele>104.0</ele><time>2026-04-25T08:36:50.63Z</time></trkpt><trkpt lat="45.4458133" lon="9.3840783"><ele>104.0</ele><time>2026-04-25T08:36:52.629Z</time></trkpt><trkpt lat="45.445915" lon="9.3839967"><ele>104.0</ele><time>2026-04-25T08:36:54.63Z</time></trkpt><trkpt lat="45.446005" lon="9.3839133"><ele>103.83333333333333</ele><time>2026-04-25T08:36:56.63Z</time></trkpt><trkpt lat="45.4461017" lon="9.3838133"><ele>103.66666666666666</ele><time>2026-04-25T08:36:58.63Z</time></trkpt><trkpt lat="45.446205" lon="9.38371"><ele>103.5</ele><time>2026-04-25T08:37:00.63Z</time></trkpt><trkpt lat="45.4462567" lon="9.3836583"><ele>103.33333333333334</ele><time>2026-04-25T08:37:01.629Z</time></trkpt><trkpt lat="45.4463083" lon="9.383605"><ele>103.16666666666667</ele><time>2026-04-25T08:37:02.632Z</time></trkpt><trkpt lat="45.44636" lon="9.3835517"><ele>103.0</ele><time>2026-04-25T08:37:03.63Z</time></trkpt><trkpt lat="45.4464133" lon="9.3834933"><ele>102.99999999999999</ele><time>2026-04-25T08:37:04.629Z</time></trkpt><trkpt lat="45.4464667" lon="9.3834333"><ele>103.0</ele><time>2026-04-25T08:37:05.634Z</time></trkpt><trkpt lat="45.44652" lon="9.383375"><ele>103.0</ele><time>2026-04-25T08:37:06.631Z</time></trkpt><trkpt lat="45.4465733" lon="9.3833183"><ele>103.0</ele><time>2026-04-25T08:37:07.63Z</time></trkpt><trkpt lat="45.44663" lon="9.38326"><ele>103.0</ele><time>2026-04-25T08:37:08.63Z</time></trkpt><trkpt lat="45.4466867" lon="9.383205"><ele>102.99999999999999</ele><time>2026-04-25T08:37:09.63Z</time></trkpt><trkpt lat="45.4467417" lon="9.38315"><ele>103.0</ele><time>2026-04-25T08:37:10.631Z</time></trkpt><trkpt lat="45.4467933" lon="9.383095"><ele>103.00000000000001</ele><time>2026-04-25T08:37:11.629Z</time></trkpt><trkpt lat="45.4468467" lon="9.3830433"><ele>103.0</ele><time>2026-04-25T08:37:12.632Z</time></trkpt><trkpt lat="45.4469017" lon="9.38299"><ele>103.0</ele><time>2026-04-25T08:37:13.63Z</time></trkpt><trkpt lat="45.4469533" lon="9.3829383"><ele>103.0</ele><time>2026-04-25T08:37:14.63Z</time></trkpt><trkpt lat="45.4470517" lon="9.3828367"><ele>103.00000000000001</ele><time>2026-04-25T08:37:16.63Z</time></trkpt><trkpt lat="45.4471433" lon="9.3827433"><ele>103.0</ele><time>2026-04-25T08:37:18.631Z</time></trkpt><trkpt lat="45.4472317" lon="9.3826467"><ele>103.25</ele><time>2026-04-25T08:37:20.629Z</time></trkpt><trkpt lat="45.44732" lon="9.3825583"><ele>103.5</ele><time>2026-04-25T08:37:22.628Z</time></trkpt><trkpt lat="45.4474133" lon="9.3824717"><ele>103.75</ele><time>2026-04-25T08:37:24.631Z</time></trkpt><trkpt lat="45.4475067" lon="9.382385"><ele>104.0</ele><time>2026-04-25T08:37:26.63Z</time></trkpt><trkpt lat="45.447605" lon="9.3822883"><ele>104.0</ele><time>2026-04-25T08:37:28.63Z</time></trkpt><trkpt lat="45.4476567" lon="9.382235"><ele>104.0</ele><time>2026-04-25T08:37:29.63Z</time></trkpt><trkpt lat="45.4477083" lon="9.3821833"><ele>104.0</ele><time>2026-04-25T08:37:30.637Z</time></trkpt><trkpt lat="45.4478117" lon="9.3820783"><ele>104.0</ele><time>2026-04-25T08:37:32.631Z</time></trkpt><trkpt lat="45.447915" lon="9.3819867"><ele>104.0</ele><time>2026-04-25T08:37:34.629Z</time></trkpt><trkpt lat="45.4480267" lon="9.381895"><ele>104.33333333333333</ele><time>2026-04-25T08:37:36.63Z</time></trkpt><trkpt lat="45.448085" lon="9.38185"><ele>104.66666666666666</ele><time>2026-04-25T08:37:37.63Z</time></trkpt><trkpt lat="45.448145" lon="9.38181"><ele>105.0</ele><time>2026-04-25T08:37:38.631Z</time></trkpt><trkpt lat="45.448205" lon="9.3817767"><ele>105.33333333333334</ele><time>2026-04-25T08:37:39.632Z</time></trkpt><trkpt lat="45.4482717" lon="9.3817433"><ele>105.66666666666667</ele><time>2026-04-25T08:37:40.629Z</time></trkpt><trkpt lat="45.4483933" lon="9.3816883"><ele>106.0</ele><time>2026-04-25T08:37:42.632Z</time></trkpt><trkpt lat="45.448455" lon="9.38166"><ele>106.0</ele><time>2026-04-25T08:37:43.631Z</time></trkpt><trkpt lat="45.4485167" lon="9.3816333"><ele>106.0</ele><time>2026-04-25T08:37:44.63Z</time></trkpt><trkpt lat="45.4485783" lon="9.38161"><ele>106.0</ele><time>2026-04-25T08:37:45.632Z</time></trkpt><trkpt lat="45.4486417" lon="9.3815883"><ele>106.0</ele><time>2026-04-25T08:37:46.632Z</time></trkpt><trkpt lat="45.44876" lon="9.381555"><ele>106.0</ele><time>2026-04-25T08:37:48.629Z</time></trkpt><trkpt lat="45.4488217" lon="9.381535"><ele>106.0</ele><time>2026-04-25T08:37:49.631Z</time></trkpt><trkpt lat="45.448885" lon="9.38151"><ele>106.0</ele><time>2026-04-25T08:37:50.63Z</time></trkpt><trkpt lat="45.44895" lon="9.3814867"><ele>105.85714285714286</ele><time>2026-04-25T08:37:51.63Z</time></trkpt><trkpt lat="45.4490167" lon="9.3814683"><ele>105.71428571428571</ele><time>2026-04-25T08:37:52.629Z</time></trkpt><trkpt lat="45.4490833" lon="9.38145"><ele>105.57142857142857</ele><time>2026-04-25T08:37:53.632Z</time></trkpt><trkpt lat="45.4491483" lon="9.3814367"><ele>105.42857142857143</ele><time>2026-04-25T08:37:54.63Z</time></trkpt><trkpt lat="45.4492133" lon="9.3814283"><ele>105.28571428571428</ele><time>2026-04-25T08:37:55.631Z</time></trkpt><trkpt lat="45.4492783" lon="9.381415"><ele>105.14285714285714</ele><time>2026-04-25T08:37:56.633Z</time></trkpt><trkpt lat="45.4493417" lon="9.3814"><ele>105.0</ele><time>2026-04-25T08:37:57.633Z</time></trkpt><trkpt lat="45.44947" lon="9.38136"><ele>105.0</ele><time>2026-04-25T08:37:59.631Z</time></trkpt><trkpt lat="45.4495417" lon="9.38134"><ele>105.0</ele><time>2026-04-25T08:38:00.631Z</time></trkpt><trkpt lat="45.4496083" lon="9.38132"><ele>105.0</ele><time>2026-04-25T08:38:01.631Z</time></trkpt><trkpt lat="45.449675" lon="9.381295"><ele>105.0</ele><time>2026-04-25T08:38:02.631Z</time></trkpt><trkpt lat="45.44974" lon="9.3812767"><ele>105.0</ele><time>2026-04-25T08:38:03.631Z</time></trkpt><trkpt lat="45.449805" lon="9.381255"><ele>105.0</ele><time>2026-04-25T08:38:04.63Z</time></trkpt><trkpt lat="45.4498733" lon="9.381235"><ele>105.0</ele><time>2026-04-25T08:38:05.632Z</time></trkpt><trkpt lat="45.44999" lon="9.3812183"><ele>104.75</ele><time>2026-04-25T08:38:07.631Z</time></trkpt><trkpt lat="45.45011" lon="9.3811833"><ele>104.5</ele><time>2026-04-25T08:38:09.633Z</time></trkpt><trkpt lat="45.4502267" lon="9.38115"><ele>104.25</ele><time>2026-04-25T08:38:11.63Z</time></trkpt><trkpt lat="45.4503533" lon="9.3811183"><ele>104.0</ele><time>2026-04-25T08:38:13.631Z</time></trkpt><trkpt lat="45.4504683" lon="9.3810983"><ele>103.66666666666666</ele><time>2026-04-25T08:38:15.632Z</time></trkpt><trkpt lat="45.45054" lon="9.38108"><ele>103.33333333333333</ele><time>2026-04-25T08:38:16.63Z</time></trkpt><trkpt lat="45.4506067" lon="9.3810633"><ele>103.0</ele><time>2026-04-25T08:38:17.632Z</time></trkpt><trkpt lat="45.450675" lon="9.3810433"><ele>102.66666666666666</ele><time>2026-04-25T08:38:18.629Z</time></trkpt><trkpt lat="45.4507367" lon="9.3810233"><ele>102.33333333333333</ele><time>2026-04-25T08:38:19.63Z</time></trkpt><trkpt lat="45.4508017" lon="9.3810083"><ele>102.0</ele><time>2026-04-25T08:38:20.63Z</time></trkpt><trkpt lat="45.450929" lon="9.3809774"><ele>102.0</ele><time>2026-04-25T08:38:22.632Z</time></trkpt><trkpt lat="45.4509984" lon="9.3809615"><ele>102.0</ele><time>2026-04-25T08:38:23.629Z</time></trkpt><trkpt lat="45.4510685" lon="9.3809562"><ele>102.0</ele><time>2026-04-25T08:38:24.629Z</time></trkpt><trkpt lat="45.4511372" lon="9.3809716"><ele>102.0</ele><time>2026-04-25T08:38:25.631Z</time></trkpt><trkpt lat="45.4512005" lon="9.3809996"><ele>102.0</ele><time>2026-04-25T08:38:26.63Z</time></trkpt><trkpt lat="45.4512606" lon="9.3810286"><ele>102.0</ele><time>2026-04-25T08:38:27.632Z</time></trkpt><trkpt lat="45.4513226" lon="9.3810489"><ele>102.0</ele><time>2026-04-25T08:38:28.629Z</time></trkpt><trkpt lat="45.4513871" lon="9.3810465"><ele>102.28571428571429</ele><time>2026-04-25T08:38:29.63Z</time></trkpt><trkpt lat="45.4514977" lon="9.3809804"><ele>102.57142857142858</ele><time>2026-04-25T08:38:31.63Z</time></trkpt><trkpt lat="45.4515509" lon="9.3809278"><ele>102.85714285714286</ele><time>2026-04-25T08:38:32.631Z</time></trkpt><trkpt lat="45.4516072" lon="9.3808811"><ele>103.14285714285714</ele><time>2026-04-25T08:38:33.631Z</time></trkpt><trkpt lat="45.4516683" lon="9.3808473"><ele>103.42857142857143</ele><time>2026-04-25T08:38:34.633Z</time></trkpt><trkpt lat="45.451732" lon="9.380828"><ele>103.71428571428571</ele><time>2026-04-25T08:38:35.634Z</time></trkpt><trkpt lat="45.4517963" lon="9.3808191"><ele>104.0</ele><time>2026-04-25T08:38:36.63Z</time></trkpt><trkpt lat="45.4518621" lon="9.3808159"><ele>104.0</ele><time>2026-04-25T08:38:37.63Z</time></trkpt><trkpt lat="45.4519272" lon="9.3808186"><ele>104.0</ele><time>2026-04-25T08:38:38.631Z</time></trkpt><trkpt lat="45.451992" lon="9.3808186"><ele>104.0</ele><time>2026-04-25T08:38:39.629Z</time></trkpt><trkpt lat="45.4520577" lon="9.3808176"><ele>104.0</ele><time>2026-04-25T08:38:40.63Z</time></trkpt><trkpt lat="45.4521208" lon="9.3808222"><ele>104.0</ele><time>2026-04-25T08:38:41.632Z</time></trkpt><trkpt lat="45.4521843" lon="9.3808356"><ele>104.0</ele><time>2026-04-25T08:38:42.631Z</time></trkpt><trkpt lat="45.4522489" lon="9.3808497"><ele>104.0</ele><time>2026-04-25T08:38:43.63Z</time></trkpt><trkpt lat="45.4523153" lon="9.3808613"><ele>104.16666666666666</ele><time>2026-04-25T08:38:44.633Z</time></trkpt><trkpt lat="45.4523845" lon="9.3808752"><ele>104.33333333333333</ele><time>2026-04-25T08:38:45.63Z</time></trkpt><trkpt lat="45.4524539" lon="9.3808877"><ele>104.5</ele><time>2026-04-25T08:38:46.632Z</time></trkpt><trkpt lat="45.4525182" lon="9.3808958"><ele>104.66666666666666</ele><time>2026-04-25T08:38:47.63Z</time></trkpt><trkpt lat="45.4526459" lon="9.3809093"><ele>104.83333333333333</ele><time>2026-04-25T08:38:49.631Z</time></trkpt><trkpt lat="45.4527122" lon="9.3809196"><ele>105.0</ele><time>2026-04-25T08:38:50.63Z</time></trkpt><trkpt lat="45.4527852" lon="9.3809318"><ele>105.0</ele><time>2026-04-25T08:38:51.631Z</time></trkpt><trkpt lat="45.4528578" lon="9.3809451"><ele>105.0</ele><time>2026-04-25T08:38:52.629Z</time></trkpt><trkpt lat="45.4529271" lon="9.3809548"><ele>105.0</ele><time>2026-04-25T08:38:53.629Z</time></trkpt><trkpt lat="45.4529979" lon="9.3809678"><ele>105.0</ele><time>2026-04-25T08:38:54.63Z</time></trkpt><trkpt lat="45.4530679" lon="9.3809761"><ele>105.0</ele><time>2026-04-25T08:38:55.631Z</time></trkpt><trkpt lat="45.4531432" lon="9.3809967"><ele>105.0</ele><time>2026-04-25T08:38:56.63Z</time></trkpt><trkpt lat="45.4532146" lon="9.3810209"><ele>105.0</ele><time>2026-04-25T08:38:57.63Z</time></trkpt><trkpt lat="45.4532821" lon="9.3810434"><ele>105.0</ele><time>2026-04-25T08:38:58.629Z</time></trkpt><trkpt lat="45.4533489" lon="9.381063"><ele>105.0</ele><time>2026-04-25T08:38:59.631Z</time></trkpt><trkpt lat="45.4534141" lon="9.3810766"><ele>105.0</ele><time>2026-04-25T08:39:00.631Z</time></trkpt><trkpt lat="45.4535354" lon="9.3810949"><ele>105.0</ele><time>2026-04-25T08:39:02.631Z</time></trkpt><trkpt lat="45.4536441" lon="9.3811139"><ele>105.0</ele><time>2026-04-25T08:39:04.631Z</time></trkpt><trkpt lat="45.4537529" lon="9.3811332"><ele>104.66666666666667</ele><time>2026-04-25T08:39:06.631Z</time></trkpt><trkpt lat="45.4538678" lon="9.3811533"><ele>104.33333333333334</ele><time>2026-04-25T08:39:08.631Z</time></trkpt><trkpt lat="45.453932" lon="9.3811639"><ele>104.0</ele><time>2026-04-25T08:39:09.63Z</time></trkpt><trkpt lat="45.4539964" lon="9.3811787"><ele>103.66666666666667</ele><time>2026-04-25T08:39:10.63Z</time></trkpt><trkpt lat="45.4540631" lon="9.3811888"><ele>103.33333333333334</ele><time>2026-04-25T08:39:11.631Z</time></trkpt><trkpt lat="45.45413" lon="9.3812055"><ele>103.0</ele><time>2026-04-25T08:39:12.63Z</time></trkpt><trkpt lat="45.454199" lon="9.381226"><ele>102.99999999999999</ele><time>2026-04-25T08:39:13.631Z</time></trkpt><trkpt lat="45.4542679" lon="9.3812402"><ele>103.0</ele><time>2026-04-25T08:39:14.631Z</time></trkpt><trkpt lat="45.4543339" lon="9.3812592"><ele>103.0</ele><time>2026-04-25T08:39:15.63Z</time></trkpt><trkpt lat="45.4543972" lon="9.3812792"><ele>103.0</ele><time>2026-04-25T08:39:16.63Z</time></trkpt><trkpt lat="45.4544641" lon="9.3812905"><ele>103.0</ele><time>2026-04-25T08:39:17.637Z</time></trkpt><trkpt lat="45.4545373" lon="9.3812995"><ele>102.99999999999999</ele><time>2026-04-25T08:39:18.632Z</time></trkpt><trkpt lat="45.4546076" lon="9.3813063"><ele>103.0</ele><time>2026-04-25T08:39:19.63Z</time></trkpt><trkpt lat="45.4546729" lon="9.3813075"><ele>103.50000000000001</ele><time>2026-04-25T08:39:20.631Z</time></trkpt><trkpt lat="45.4547413" lon="9.3813077"><ele>104.0</ele><time>2026-04-25T08:39:21.63Z</time></trkpt><trkpt lat="45.4548083" lon="9.3813081"><ele>104.5</ele><time>2026-04-25T08:39:22.629Z</time></trkpt><trkpt lat="45.4548735" lon="9.3813049"><ele>105.0</ele><time>2026-04-25T08:39:23.628Z</time></trkpt><trkpt lat="45.4549979" lon="9.3812874"><ele>105.50000000000001</ele><time>2026-04-25T08:39:25.629Z</time></trkpt><trkpt lat="45.4551172" lon="9.3812695"><ele>106.0</ele><time>2026-04-25T08:39:27.63Z</time></trkpt><trkpt lat="45.455243" lon="9.3812398"><ele>106.0</ele><time>2026-04-25T08:39:29.629Z</time></trkpt><trkpt lat="45.4553618" lon="9.3812045"><ele>106.0</ele><time>2026-04-25T08:39:31.63Z</time></trkpt><trkpt lat="45.455491" lon="9.38117"><ele>106.0</ele><time>2026-04-25T08:39:33.628Z</time></trkpt><trkpt lat="45.4555622" lon="9.3811528"><ele>106.0</ele><time>2026-04-25T08:39:34.629Z</time></trkpt><trkpt lat="45.45563" lon="9.381135"><ele>106.0</ele><time>2026-04-25T08:39:35.628Z</time></trkpt><trkpt lat="45.4557533" lon="9.381105"><ele>105.83333333333334</ele><time>2026-04-25T08:39:37.629Z</time></trkpt><trkpt lat="45.4558183" lon="9.3810883"><ele>105.66666666666667</ele><time>2026-04-25T08:39:38.631Z</time></trkpt><trkpt lat="45.4559433" lon="9.3810533"><ele>105.5</ele><time>2026-04-25T08:39:40.63Z</time></trkpt><trkpt lat="45.4560083" lon="9.3810367"><ele>105.33333333333334</ele><time>2026-04-25T08:39:41.632Z</time></trkpt><trkpt lat="45.45607" lon="9.3810183"><ele>105.16666666666667</ele><time>2026-04-25T08:39:42.628Z</time></trkpt><trkpt lat="45.4561883" lon="9.38098"><ele>105.0</ele><time>2026-04-25T08:39:44.635Z</time></trkpt><trkpt lat="45.45631" lon="9.3809483"><ele>105.0</ele><time>2026-04-25T08:39:46.629Z</time></trkpt><trkpt lat="45.4564217" lon="9.3809083"><ele>105.0</ele><time>2026-04-25T08:39:48.63Z</time></trkpt><trkpt lat="45.45654" lon="9.380875"><ele>105.0</ele><time>2026-04-25T08:39:50.628Z</time></trkpt><trkpt lat="45.4566617" lon="9.38084"><ele>105.0</ele><time>2026-04-25T08:39:52.631Z</time></trkpt><trkpt lat="45.4567833" lon="9.3808083"><ele>105.0</ele><time>2026-04-25T08:39:54.631Z</time></trkpt><trkpt lat="45.4568467" lon="9.3807883"><ele>105.0</ele><time>2026-04-25T08:39:55.631Z</time></trkpt><trkpt lat="45.4569683" lon="9.3807517"><ele>105.0</ele><time>2026-04-25T08:39:57.628Z</time></trkpt><trkpt lat="45.4570333" lon="9.3807317"><ele>105.0</ele><time>2026-04-25T08:39:58.63Z</time></trkpt><trkpt lat="45.4571567" lon="9.3806983"><ele>105.0</ele><time>2026-04-25T08:40:00.629Z</time></trkpt><trkpt lat="45.45722" lon="9.38068"><ele>105.0</ele><time>2026-04-25T08:40:01.63Z</time></trkpt><trkpt lat="45.4573417" lon="9.3806433"><ele>105.0</ele><time>2026-04-25T08:40:03.629Z</time></trkpt><trkpt lat="45.457465" lon="9.380605"><ele>105.0</ele><time>2026-04-25T08:40:05.628Z</time></trkpt><trkpt lat="45.457585" lon="9.3805683"><ele>105.0</ele><time>2026-04-25T08:40:07.631Z</time></trkpt><trkpt lat="45.45765" lon="9.3805517"><ele>105.0</ele><time>2026-04-25T08:40:08.631Z</time></trkpt><trkpt lat="45.4577133" lon="9.3805367"><ele>105.0</ele><time>2026-04-25T08:40:09.632Z</time></trkpt><trkpt lat="45.4577767" lon="9.3805217"><ele>105.0</ele><time>2026-04-25T08:40:10.629Z</time></trkpt><trkpt lat="45.45784" lon="9.380505"><ele>105.0</ele><time>2026-04-25T08:40:11.63Z</time></trkpt><trkpt lat="45.45791" lon="9.38049"><ele>105.0</ele><time>2026-04-25T08:40:12.63Z</time></trkpt><trkpt lat="45.4579783" lon="9.3804733"><ele>105.0</ele><time>2026-04-25T08:40:13.629Z</time></trkpt><trkpt lat="45.4580467" lon="9.380455"><ele>105.0</ele><time>2026-04-25T08:40:14.63Z</time></trkpt><trkpt lat="45.458115" lon="9.38044"><ele>105.0</ele><time>2026-04-25T08:40:15.628Z</time></trkpt><trkpt lat="45.458185" lon="9.3804217"><ele>105.0</ele><time>2026-04-25T08:40:16.63Z</time></trkpt><trkpt lat="45.4582517" lon="9.3804017"><ele>105.0</ele><time>2026-04-25T08:40:17.629Z</time></trkpt><trkpt lat="45.4583183" lon="9.38038"><ele>105.0</ele><time>2026-04-25T08:40:18.63Z</time></trkpt><trkpt lat="45.45838" lon="9.38036"><ele>105.0</ele><time>2026-04-25T08:40:19.629Z</time></trkpt><trkpt lat="45.4584433" lon="9.3803433"><ele>105.0</ele><time>2026-04-25T08:40:20.629Z</time></trkpt><trkpt lat="45.458505" lon="9.380325"><ele>105.0</ele><time>2026-04-25T08:40:21.628Z</time></trkpt><trkpt lat="45.4586267" lon="9.3802967"><ele>105.0</ele><time>2026-04-25T08:40:23.63Z</time></trkpt><trkpt lat="45.45869" lon="9.3802783"><ele>105.0</ele><time>2026-04-25T08:40:24.63Z</time></trkpt><trkpt lat="45.458755" lon="9.3802633"><ele>105.0</ele><time>2026-04-25T08:40:25.631Z</time></trkpt><trkpt lat="45.4588233" lon="9.3802467"><ele>105.0</ele><time>2026-04-25T08:40:26.636Z</time></trkpt><trkpt lat="45.4588917" lon="9.38023"><ele>105.0</ele><time>2026-04-25T08:40:27.631Z</time></trkpt><trkpt lat="45.4589567" lon="9.380215"><ele>105.0</ele><time>2026-04-25T08:40:28.629Z</time></trkpt><trkpt lat="45.4590767" lon="9.3801767"><ele>105.0</ele><time>2026-04-25T08:40:30.631Z</time></trkpt><trkpt lat="45.4591917" lon="9.3801367"><ele>105.0</ele><time>2026-04-25T08:40:32.63Z</time></trkpt><trkpt lat="45.4592983" lon="9.3801"><ele>105.0</ele><time>2026-04-25T08:40:34.629Z</time></trkpt><trkpt lat="45.459395" lon="9.3800683"><ele>105.0</ele><time>2026-04-25T08:40:36.629Z</time></trkpt><trkpt lat="45.4594917" lon="9.38004"><ele>105.0</ele><time>2026-04-25T08:40:38.629Z</time></trkpt><trkpt lat="45.4595967" lon="9.3800133"><ele>105.0</ele><time>2026-04-25T08:40:40.628Z</time></trkpt><trkpt lat="45.4597167" lon="9.37998"><ele>105.0</ele><time>2026-04-25T08:40:42.63Z</time></trkpt><trkpt lat="45.4598383" lon="9.3799467"><ele>105.0</ele><time>2026-04-25T08:40:44.63Z</time></trkpt><trkpt lat="45.4599067" lon="9.379935"><ele>105.0</ele><time>2026-04-25T08:40:45.63Z</time></trkpt><trkpt lat="45.4599733" lon="9.37992"><ele>105.0</ele><time>2026-04-25T08:40:46.629Z</time></trkpt><trkpt lat="45.4600933" lon="9.3798867"><ele>105.0</ele><time>2026-04-25T08:40:48.634Z</time></trkpt><trkpt lat="45.4601567" lon="9.379875"><ele>105.0</ele><time>2026-04-25T08:40:49.63Z</time></trkpt><trkpt lat="45.4602233" lon="9.3798683"><ele>105.0</ele><time>2026-04-25T08:40:50.629Z</time></trkpt><trkpt lat="45.4603467" lon="9.3798617"><ele>105.2</ele><time>2026-04-25T08:40:52.632Z</time></trkpt><trkpt lat="45.460475" lon="9.379865"><ele>105.4</ele><time>2026-04-25T08:40:54.634Z</time></trkpt><trkpt lat="45.4605433" lon="9.379875"><ele>105.6</ele><time>2026-04-25T08:40:55.631Z</time></trkpt><trkpt lat="45.46061" lon="9.3798867"><ele>105.8</ele><time>2026-04-25T08:40:56.632Z</time></trkpt><trkpt lat="45.460675" lon="9.3798967"><ele>106.0</ele><time>2026-04-25T08:40:57.629Z</time></trkpt><trkpt lat="45.4607983" lon="9.379925"><ele>106.00000000000001</ele><time>2026-04-25T08:40:59.629Z</time></trkpt><trkpt lat="45.4608633" lon="9.3799433"><ele>106.0</ele><time>2026-04-25T08:41:00.629Z</time></trkpt><trkpt lat="45.460925" lon="9.3799683"><ele>106.0</ele><time>2026-04-25T08:41:01.63Z</time></trkpt><trkpt lat="45.46099" lon="9.3799983"><ele>106.0</ele><time>2026-04-25T08:41:02.629Z</time></trkpt><trkpt lat="45.4610517" lon="9.3800317"><ele>106.00000000000001</ele><time>2026-04-25T08:41:03.628Z</time></trkpt><trkpt lat="45.46117" lon="9.3801083"><ele>106.0</ele><time>2026-04-25T08:41:05.631Z</time></trkpt><trkpt lat="45.461235" lon="9.3801483"><ele>105.85714285714286</ele><time>2026-04-25T08:41:06.631Z</time></trkpt><trkpt lat="45.461295" lon="9.3801883"><ele>105.71428571428571</ele><time>2026-04-25T08:41:07.63Z</time></trkpt><trkpt lat="45.461355" lon="9.3802267"><ele>105.57142857142857</ele><time>2026-04-25T08:41:08.631Z</time></trkpt><trkpt lat="45.4614133" lon="9.3802667"><ele>105.42857142857143</ele><time>2026-04-25T08:41:09.632Z</time></trkpt><trkpt lat="45.4614733" lon="9.3803033"><ele>105.28571428571428</ele><time>2026-04-25T08:41:10.629Z</time></trkpt><trkpt lat="45.4615333" lon="9.38034"><ele>105.14285714285714</ele><time>2026-04-25T08:41:11.632Z</time></trkpt><trkpt lat="45.4615917" lon="9.3803767"><ele>105.0</ele><time>2026-04-25T08:41:12.629Z</time></trkpt><trkpt lat="45.4616517" lon="9.38042"><ele>105.0</ele><time>2026-04-25T08:41:13.632Z</time></trkpt><trkpt lat="45.4617083" lon="9.38046"><ele>105.0</ele><time>2026-04-25T08:41:14.63Z</time></trkpt><trkpt lat="45.4617667" lon="9.3805"><ele>105.0</ele><time>2026-04-25T08:41:15.633Z</time></trkpt><trkpt lat="45.461825" lon="9.38054"><ele>105.0</ele><time>2026-04-25T08:41:16.629Z</time></trkpt><trkpt lat="45.461885" lon="9.3805783"><ele>105.0</ele><time>2026-04-25T08:41:17.63Z</time></trkpt><trkpt lat="45.461945" lon="9.3806183"><ele>105.0</ele><time>2026-04-25T08:41:18.629Z</time></trkpt><trkpt lat="45.462005" lon="9.3806567"><ele>105.0</ele><time>2026-04-25T08:41:19.63Z</time></trkpt><trkpt lat="45.4620633" lon="9.380695"><ele>105.0</ele><time>2026-04-25T08:41:20.628Z</time></trkpt><trkpt lat="45.4621233" lon="9.3807333"><ele>105.0</ele><time>2026-04-25T08:41:21.629Z</time></trkpt><trkpt lat="45.4621833" lon="9.3807733"><ele>105.0</ele><time>2026-04-25T08:41:22.628Z</time></trkpt><trkpt lat="45.462245" lon="9.3808133"><ele>105.0</ele><time>2026-04-25T08:41:23.63Z</time></trkpt><trkpt lat="45.4623067" lon="9.3808567"><ele>105.0</ele><time>2026-04-25T08:41:24.632Z</time></trkpt><trkpt lat="45.46237" lon="9.3808967"><ele>105.0</ele><time>2026-04-25T08:41:25.631Z</time></trkpt><trkpt lat="45.4624317" lon="9.380935"><ele>105.0</ele><time>2026-04-25T08:41:26.63Z</time></trkpt><trkpt lat="45.4624967" lon="9.3809783"><ele>105.0</ele><time>2026-04-25T08:41:27.631Z</time></trkpt><trkpt lat="45.4625633" lon="9.3810217"><ele>105.0</ele><time>2026-04-25T08:41:28.63Z</time></trkpt><trkpt lat="45.4626267" lon="9.3810617"><ele>105.0</ele><time>2026-04-25T08:41:29.631Z</time></trkpt><trkpt lat="45.46269" lon="9.3811017"><ele>105.0</ele><time>2026-04-25T08:41:30.631Z</time></trkpt><trkpt lat="45.462755" lon="9.38114"><ele>105.0</ele><time>2026-04-25T08:41:31.629Z</time></trkpt><trkpt lat="45.4628167" lon="9.3811817"><ele>105.0</ele><time>2026-04-25T08:41:32.637Z</time></trkpt><trkpt lat="45.46288" lon="9.3812233"><ele>105.0</ele><time>2026-04-25T08:41:33.63Z</time></trkpt><trkpt lat="45.462945" lon="9.3812667"><ele>104.85714285714286</ele><time>2026-04-25T08:41:34.629Z</time></trkpt><trkpt lat="45.4630117" lon="9.3813083"><ele>104.71428571428572</ele><time>2026-04-25T08:41:35.63Z</time></trkpt><trkpt lat="45.4630783" lon="9.3813483"><ele>104.57142857142857</ele><time>2026-04-25T08:41:36.629Z</time></trkpt><trkpt lat="45.463145" lon="9.38139"><ele>104.42857142857143</ele><time>2026-04-25T08:41:37.631Z</time></trkpt><trkpt lat="45.46321" lon="9.381435"><ele>104.28571428571429</ele><time>2026-04-25T08:41:38.63Z</time></trkpt><trkpt lat="45.463275" lon="9.3814817"><ele>104.14285714285714</ele><time>2026-04-25T08:41:39.631Z</time></trkpt><trkpt lat="45.46334" lon="9.3815233"><ele>104.0</ele><time>2026-04-25T08:41:40.63Z</time></trkpt><trkpt lat="45.4634033" lon="9.381565"><ele>103.85714285714285</ele><time>2026-04-25T08:41:41.63Z</time></trkpt><trkpt lat="45.463465" lon="9.381605"><ele>103.71428571428572</ele><time>2026-04-25T08:41:42.631Z</time></trkpt><trkpt lat="45.4635233" lon="9.381645"><ele>103.57142857142857</ele><time>2026-04-25T08:41:43.629Z</time></trkpt><trkpt lat="45.4635817" lon="9.381685"><ele>103.42857142857142</ele><time>2026-04-25T08:41:44.628Z</time></trkpt><trkpt lat="45.4636417" lon="9.3817217"><ele>103.28571428571428</ele><time>2026-04-25T08:41:45.63Z</time></trkpt><trkpt lat="45.463705" lon="9.38176"><ele>103.14285714285714</ele><time>2026-04-25T08:41:46.629Z</time></trkpt><trkpt lat="45.4637683" lon="9.3818"><ele>103.0</ele><time>2026-04-25T08:41:47.633Z</time></trkpt><trkpt lat="45.4638317" lon="9.38184"><ele>103.42857142857142</ele><time>2026-04-25T08:41:48.63Z</time></trkpt><trkpt lat="45.463895" lon="9.3818833"><ele>103.85714285714286</ele><time>2026-04-25T08:41:49.632Z</time></trkpt><trkpt lat="45.4639583" lon="9.3819267"><ele>104.28571428571428</ele><time>2026-04-25T08:41:50.632Z</time></trkpt><trkpt lat="45.4640217" lon="9.3819667"><ele>104.71428571428571</ele><time>2026-04-25T08:41:51.632Z</time></trkpt><trkpt lat="45.4640867" lon="9.38201"><ele>105.14285714285714</ele><time>2026-04-25T08:41:52.632Z</time></trkpt><trkpt lat="45.4641517" lon="9.38205"><ele>105.57142857142857</ele><time>2026-04-25T08:41:53.631Z</time></trkpt><trkpt lat="45.4642167" lon="9.3820983"><ele>106.0</ele><time>2026-04-25T08:41:54.631Z</time></trkpt><trkpt lat="45.4642817" lon="9.3821467"><ele>106.0</ele><time>2026-04-25T08:41:55.628Z</time></trkpt><trkpt lat="45.4643467" lon="9.38219"><ele>106.0</ele><time>2026-04-25T08:41:56.63Z</time></trkpt><trkpt lat="45.46441" lon="9.3822317"><ele>106.0</ele><time>2026-04-25T08:41:57.63Z</time></trkpt><trkpt lat="45.4644767" lon="9.3822733"><ele>106.0</ele><time>2026-04-25T08:41:58.632Z</time></trkpt><trkpt lat="45.4645367" lon="9.3823133"><ele>106.0</ele><time>2026-04-25T08:41:59.633Z</time></trkpt><trkpt lat="45.4646017" lon="9.3823533"><ele>106.0</ele><time>2026-04-25T08:42:00.634Z</time></trkpt><trkpt lat="45.4646667" lon="9.3823917"><ele>106.0</ele><time>2026-04-25T08:42:01.631Z</time></trkpt><trkpt lat="45.4647333" lon="9.38243"><ele>106.0</ele><time>2026-04-25T08:42:02.633Z</time></trkpt><trkpt lat="45.4647983" lon="9.382465"><ele>106.0</ele><time>2026-04-25T08:42:03.632Z</time></trkpt><trkpt lat="45.464865" lon="9.3825017"><ele>106.0</ele><time>2026-04-25T08:42:04.633Z</time></trkpt><trkpt lat="45.4649333" lon="9.3825383"><ele>106.0</ele><time>2026-04-25T08:42:05.63Z</time></trkpt><trkpt lat="45.4650017" lon="9.3825683"><ele>106.0</ele><time>2026-04-25T08:42:06.633Z</time></trkpt><trkpt lat="45.4650683" lon="9.3825933"><ele>106.0</ele><time>2026-04-25T08:42:07.633Z</time></trkpt><trkpt lat="45.465135" lon="9.382615"><ele>106.0</ele><time>2026-04-25T08:42:08.632Z</time></trkpt><trkpt lat="45.4652017" lon="9.3826367"><ele>106.0</ele><time>2026-04-25T08:42:09.629Z</time></trkpt><trkpt lat="45.465265" lon="9.3826583"><ele>106.0</ele><time>2026-04-25T08:42:10.63Z</time></trkpt><trkpt lat="45.4653883" lon="9.3826867"><ele>106.0</ele><time>2026-04-25T08:42:12.633Z</time></trkpt><trkpt lat="45.4655083" lon="9.3827133"><ele>106.0</ele><time>2026-04-25T08:42:14.631Z</time></trkpt><trkpt lat="45.4656233" lon="9.3827283"><ele>106.0</ele><time>2026-04-25T08:42:16.63Z</time></trkpt><trkpt lat="45.4657333" lon="9.3827267"><ele>106.19999999999999</ele><time>2026-04-25T08:42:18.63Z</time></trkpt><trkpt lat="45.4658367" lon="9.38273"><ele>106.39999999999999</ele><time>2026-04-25T08:42:20.63Z</time></trkpt><trkpt lat="45.4659417" lon="9.38272"><ele>106.6</ele><time>2026-04-25T08:42:22.629Z</time></trkpt><trkpt lat="45.4660567" lon="9.3826983"><ele>106.8</ele><time>2026-04-25T08:42:24.63Z</time></trkpt><trkpt lat="45.4661767" lon="9.3826717"><ele>107.0</ele><time>2026-04-25T08:42:26.63Z</time></trkpt><trkpt lat="45.4662967" lon="9.382645"><ele>106.99999999999999</ele><time>2026-04-25T08:42:28.629Z</time></trkpt><trkpt lat="45.46642" lon="9.3826217"><ele>107.0</ele><time>2026-04-25T08:42:30.629Z</time></trkpt><trkpt lat="45.4664867" lon="9.3826083"><ele>107.0</ele><time>2026-04-25T08:42:31.628Z</time></trkpt><trkpt lat="45.4665533" lon="9.382595"><ele>107.0</ele><time>2026-04-25T08:42:32.631Z</time></trkpt><trkpt lat="45.4666183" lon="9.3825817"><ele>106.99999999999999</ele><time>2026-04-25T08:42:33.63Z</time></trkpt><trkpt lat="45.466685" lon="9.3825683"><ele>107.0</ele><time>2026-04-25T08:42:34.629Z</time></trkpt><trkpt lat="45.46675" lon="9.382555"><ele>107.0</ele><time>2026-04-25T08:42:35.629Z</time></trkpt><trkpt lat="45.4668133" lon="9.3825433"><ele>106.99999999999999</ele><time>2026-04-25T08:42:36.63Z</time></trkpt><trkpt lat="45.4669267" lon="9.3825233"><ele>106.99999999999999</ele><time>2026-04-25T08:42:38.63Z</time></trkpt><trkpt lat="45.4670417" lon="9.3824983"><ele>107.0</ele><time>2026-04-25T08:42:40.636Z</time></trkpt><trkpt lat="45.467165" lon="9.3824667"><ele>107.0</ele><time>2026-04-25T08:42:42.633Z</time></trkpt><trkpt lat="45.4672317" lon="9.3824533"><ele>107.00000000000001</ele><time>2026-04-25T08:42:43.63Z</time></trkpt><trkpt lat="45.4672983" lon="9.3824383"><ele>107.0</ele><time>2026-04-25T08:42:44.63Z</time></trkpt><trkpt lat="45.4673633" lon="9.3824233"><ele>107.0</ele><time>2026-04-25T08:42:45.63Z</time></trkpt><trkpt lat="45.46743" lon="9.3824083"><ele>107.0</ele><time>2026-04-25T08:42:46.63Z</time></trkpt><trkpt lat="45.4674967" lon="9.382395"><ele>107.0</ele><time>2026-04-25T08:42:47.633Z</time></trkpt><trkpt lat="45.4675667" lon="9.3823817"><ele>107.00000000000001</ele><time>2026-04-25T08:42:48.63Z</time></trkpt><trkpt lat="45.4676317" lon="9.38237"><ele>107.0</ele><time>2026-04-25T08:42:49.628Z</time></trkpt><trkpt lat="45.467695" lon="9.382355"><ele>107.0</ele><time>2026-04-25T08:42:50.631Z</time></trkpt><trkpt lat="45.4678167" lon="9.3823317"><ele>106.99999999999999</ele><time>2026-04-25T08:42:52.632Z</time></trkpt><trkpt lat="45.4679417" lon="9.382305"><ele>106.99999999999999</ele><time>2026-04-25T08:42:54.63Z</time></trkpt><trkpt lat="45.4680067" lon="9.3822867"><ele>107.0</ele><time>2026-04-25T08:42:55.629Z</time></trkpt><trkpt lat="45.4680717" lon="9.382265"><ele>107.0</ele><time>2026-04-25T08:42:56.63Z</time></trkpt><trkpt lat="45.4681433" lon="9.3822517"><ele>107.00000000000001</ele><time>2026-04-25T08:42:57.63Z</time></trkpt><trkpt lat="45.4682133" lon="9.382245"><ele>107.0</ele><time>2026-04-25T08:42:58.629Z</time></trkpt><trkpt lat="45.4682817" lon="9.3822483"><ele>107.0</ele><time>2026-04-25T08:42:59.631Z</time></trkpt><trkpt lat="45.4683483" lon="9.3822583"><ele>107.0</ele><time>2026-04-25T08:43:00.63Z</time></trkpt><trkpt lat="45.4684183" lon="9.38227"><ele>107.0</ele><time>2026-04-25T08:43:01.63Z</time></trkpt><trkpt lat="45.4684883" lon="9.3822883"><ele>107.00000000000001</ele><time>2026-04-25T08:43:02.633Z</time></trkpt><trkpt lat="45.468555" lon="9.38231"><ele>107.0</ele><time>2026-04-25T08:43:03.63Z</time></trkpt><trkpt lat="45.46862" lon="9.382315"><ele>107.0</ele><time>2026-04-25T08:43:04.632Z</time></trkpt><trkpt lat="45.4687267" lon="9.3822367"><ele>107.0</ele><time>2026-04-25T08:43:06.631Z</time></trkpt><trkpt lat="45.468755" lon="9.38208"><ele>107.0</ele><time>2026-04-25T08:43:08.632Z</time></trkpt><trkpt lat="45.4687217" lon="9.38193"><ele>107.0</ele><time>2026-04-25T08:43:10.63Z</time></trkpt><trkpt lat="45.468685" lon="9.38178"><ele>107.39999999999999</ele><time>2026-04-25T08:43:12.633Z</time></trkpt><trkpt lat="45.4686667" lon="9.381635"><ele>107.79999999999998</ele><time>2026-04-25T08:43:14.63Z</time></trkpt><trkpt lat="45.468675" lon="9.38148"><ele>108.2</ele><time>2026-04-25T08:43:16.629Z</time></trkpt><trkpt lat="45.468695" lon="9.381305"><ele>108.6</ele><time>2026-04-25T08:43:18.63Z</time></trkpt><trkpt lat="45.468705" lon="9.381215"><ele>109.0</ele><time>2026-04-25T08:43:19.63Z</time></trkpt><trkpt lat="45.468715" lon="9.3811183"><ele>109.0</ele><time>2026-04-25T08:43:20.629Z</time></trkpt><trkpt lat="45.4687517" lon="9.3809483"><ele>109.0</ele><time>2026-04-25T08:43:22.63Z</time></trkpt><trkpt lat="45.4687767" lon="9.380865"><ele>109.0</ele><time>2026-04-25T08:43:23.63Z</time></trkpt><trkpt lat="45.4688283" lon="9.3807117"><ele>109.0</ele><time>2026-04-25T08:43:25.63Z</time></trkpt><trkpt lat="45.468875" lon="9.3805767"><ele>109.0</ele><time>2026-04-25T08:43:27.632Z</time></trkpt><trkpt lat="45.4689183" lon="9.3804417"><ele>108.50000000000001</ele><time>2026-04-25T08:43:29.63Z</time></trkpt><trkpt lat="45.4689717" lon="9.38033"><ele>108.0</ele><time>2026-04-25T08:43:31.63Z</time></trkpt><trkpt lat="45.4690183" lon="9.38024"><ele>107.5</ele><time>2026-04-25T08:43:33.629Z</time></trkpt><trkpt lat="45.4690583" lon="9.3801417"><ele>107.0</ele><time>2026-04-25T08:43:35.63Z</time></trkpt><trkpt lat="45.469115" lon="9.3800233"><ele>106.50000000000001</ele><time>2026-04-25T08:45:09.629Z</time></trkpt><trkpt lat="45.46914" lon="9.3799167"><ele>106.0</ele><time>2026-04-25T08:45:13.629Z</time></trkpt><trkpt lat="45.4691667" lon="9.3798333"><ele>106.00000000000001</ele><time>2026-04-25T08:45:16.629Z</time></trkpt><trkpt lat="45.469195" lon="9.3797333"><ele>106.0</ele><time>2026-04-25T08:45:19.628Z</time></trkpt><trkpt lat="45.4692083" lon="9.3796117"><ele>106.0</ele><time>2026-04-25T08:45:22.629Z</time></trkpt><trkpt lat="45.4692117" lon="9.3794967"><ele>106.0</ele><time>2026-04-25T08:45:24.632Z</time></trkpt><trkpt lat="45.469225" lon="9.37937"><ele>106.00000000000001</ele><time>2026-04-25T08:45:26.63Z</time></trkpt><trkpt lat="45.4692417" lon="9.3792183"><ele>106.0</ele><time>2026-04-25T08:45:28.633Z</time></trkpt><trkpt lat="45.46926" lon="9.3790633"><ele>106.4</ele><time>2026-04-25T08:45:30.629Z</time></trkpt><trkpt lat="45.4692733" lon="9.3788967"><ele>106.8</ele><time>2026-04-25T08:45:32.63Z</time></trkpt><trkpt lat="45.469295" lon="9.3787217"><ele>107.20000000000002</ele><time>2026-04-25T08:45:34.631Z</time></trkpt><trkpt lat="45.4693033" lon="9.3786317"><ele>107.60000000000001</ele><time>2026-04-25T08:45:35.63Z</time></trkpt><trkpt lat="45.46931" lon="9.3784617"><ele>108.0</ele><time>2026-04-25T08:45:37.629Z</time></trkpt><trkpt lat="45.4693033" lon="9.3782933"><ele>108.2</ele><time>2026-04-25T08:45:39.631Z</time></trkpt><trkpt lat="45.469285" lon="9.3781233"><ele>108.4</ele><time>2026-04-25T08:45:41.629Z</time></trkpt><trkpt lat="45.4692567" lon="9.37796"><ele>108.60000000000001</ele><time>2026-04-25T08:45:43.63Z</time></trkpt><trkpt lat="45.4692417" lon="9.3778717"><ele>108.80000000000001</ele><time>2026-04-25T08:45:44.629Z</time></trkpt><trkpt lat="45.469205" lon="9.3777017"><ele>109.0</ele><time>2026-04-25T08:45:46.628Z</time></trkpt><trkpt lat="45.4691883" lon="9.3776083"><ele>109.0</ele><time>2026-04-25T08:45:47.629Z</time></trkpt><trkpt lat="45.46917" lon="9.3775167"><ele>109.0</ele><time>2026-04-25T08:45:48.629Z</time></trkpt><trkpt lat="45.4691533" lon="9.3774283"><ele>109.0</ele><time>2026-04-25T08:45:49.629Z</time></trkpt><trkpt lat="45.46914" lon="9.3773383"><ele>109.0</ele><time>2026-04-25T08:45:50.631Z</time></trkpt><trkpt lat="45.4691233" lon="9.37725"><ele>109.0</ele><time>2026-04-25T08:45:51.633Z</time></trkpt><trkpt lat="45.469105" lon="9.3771583"><ele>109.0</ele><time>2026-04-25T08:45:52.629Z</time></trkpt><trkpt lat="45.4690683" lon="9.3769967"><ele>109.0</ele><time>2026-04-25T08:45:54.628Z</time></trkpt><trkpt lat="45.4690333" lon="9.3768417"><ele>108.80000000000001</ele><time>2026-04-25T08:45:56.63Z</time></trkpt><trkpt lat="45.4690133" lon="9.3766883"><ele>108.60000000000001</ele><time>2026-04-25T08:45:58.631Z</time></trkpt><trkpt lat="45.4689967" lon="9.37654"><ele>108.4</ele><time>2026-04-25T08:46:00.628Z</time></trkpt><trkpt lat="45.46897" lon="9.3763833"><ele>108.2</ele><time>2026-04-25T08:46:02.628Z</time></trkpt><trkpt lat="45.4689517" lon="9.376295"><ele>108.0</ele><time>2026-04-25T08:46:03.63Z</time></trkpt><trkpt lat="45.4689333" lon="9.3762067"><ele>108.33333333333333</ele><time>2026-04-25T08:46:04.631Z</time></trkpt><trkpt lat="45.4688933" lon="9.376035"><ele>108.66666666666666</ele><time>2026-04-25T08:46:06.629Z</time></trkpt><trkpt lat="45.4688733" lon="9.3759433"><ele>109.0</ele><time>2026-04-25T08:46:07.631Z</time></trkpt><trkpt lat="45.4688517" lon="9.3758483"><ele>109.33333333333333</ele><time>2026-04-25T08:46:08.631Z</time></trkpt><trkpt lat="45.4688317" lon="9.375755"><ele>109.66666666666666</ele><time>2026-04-25T08:46:09.63Z</time></trkpt><trkpt lat="45.4688083" lon="9.3756583"><ele>110.0</ele><time>2026-04-25T08:46:10.63Z</time></trkpt><trkpt lat="45.4687817" lon="9.375565"><ele>109.85714285714285</ele><time>2026-04-25T08:46:11.629Z</time></trkpt><trkpt lat="45.4687567" lon="9.37548"><ele>109.71428571428571</ele><time>2026-04-25T08:46:12.63Z</time></trkpt><trkpt lat="45.4687333" lon="9.37539"><ele>109.57142857142857</ele><time>2026-04-25T08:46:13.629Z</time></trkpt><trkpt lat="45.4687067" lon="9.375305"><ele>109.42857142857142</ele><time>2026-04-25T08:46:14.63Z</time></trkpt><trkpt lat="45.46868" lon="9.37522"><ele>109.28571428571429</ele><time>2026-04-25T08:46:15.63Z</time></trkpt><trkpt lat="45.4686317" lon="9.3750683"><ele>109.14285714285714</ele><time>2026-04-25T08:46:17.63Z</time></trkpt><trkpt lat="45.4686067" lon="9.37498"><ele>109.0</ele><time>2026-04-25T08:46:18.63Z</time></trkpt><trkpt lat="45.468585" lon="9.3748917"><ele>109.00000000000001</ele><time>2026-04-25T08:46:19.633Z</time></trkpt><trkpt lat="45.4685667" lon="9.374805"><ele>109.0</ele><time>2026-04-25T08:46:20.631Z</time></trkpt><trkpt lat="45.4685317" lon="9.3746367"><ele>109.0</ele><time>2026-04-25T08:46:22.63Z</time></trkpt><trkpt lat="45.4685133" lon="9.37454"><ele>109.0</ele><time>2026-04-25T08:46:23.631Z</time></trkpt><trkpt lat="45.4684967" lon="9.3744433"><ele>109.00000000000001</ele><time>2026-04-25T08:46:24.629Z</time></trkpt><trkpt lat="45.46848" lon="9.374345"><ele>109.0</ele><time>2026-04-25T08:46:25.629Z</time></trkpt><trkpt lat="45.4684667" lon="9.374245"><ele>109.16666666666667</ele><time>2026-04-25T08:46:26.63Z</time></trkpt><trkpt lat="45.4684533" lon="9.3741467"><ele>109.33333333333334</ele><time>2026-04-25T08:46:27.629Z</time></trkpt><trkpt lat="45.4684417" lon="9.3740533"><ele>109.5</ele><time>2026-04-25T08:46:28.633Z</time></trkpt><trkpt lat="45.4684283" lon="9.37396"><ele>109.66666666666666</ele><time>2026-04-25T08:46:29.63Z</time></trkpt><trkpt lat="45.4684167" lon="9.37387"><ele>109.83333333333333</ele><time>2026-04-25T08:46:30.631Z</time></trkpt><trkpt lat="45.4684033" lon="9.3737733"><ele>110.0</ele><time>2026-04-25T08:46:31.63Z</time></trkpt><trkpt lat="45.4683867" lon="9.3735933"><ele>109.99999999999999</ele><time>2026-04-25T08:46:33.629Z</time></trkpt><trkpt lat="45.46842" lon="9.3734383"><ele>110.0</ele><time>2026-04-25T08:46:35.63Z</time></trkpt><trkpt lat="45.4685267" lon="9.3733717"><ele>110.0</ele><time>2026-04-25T08:46:37.628Z</time></trkpt><trkpt lat="45.4685967" lon="9.37337"><ele>110.0</ele><time>2026-04-25T08:46:38.631Z</time></trkpt><trkpt lat="45.4686633" lon="9.37336"><ele>109.99999999999999</ele><time>2026-04-25T08:46:39.63Z</time></trkpt><trkpt lat="45.4687283" lon="9.37335"><ele>110.0</ele><time>2026-04-25T08:46:40.631Z</time></trkpt><trkpt lat="45.468795" lon="9.3733333"><ele>109.99999999999999</ele><time>2026-04-25T08:46:41.631Z</time></trkpt><trkpt lat="45.46886" lon="9.3733133"><ele>110.0</ele><time>2026-04-25T08:46:42.634Z</time></trkpt><trkpt lat="45.4689267" lon="9.3732917"><ele>110.0</ele><time>2026-04-25T08:46:43.63Z</time></trkpt><trkpt lat="45.4689917" lon="9.3732733"><ele>110.0</ele><time>2026-04-25T08:46:44.63Z</time></trkpt><trkpt lat="45.4690583" lon="9.3732517"><ele>110.0</ele><time>2026-04-25T08:46:45.63Z</time></trkpt><trkpt lat="45.469125" lon="9.373235"><ele>109.99999999999999</ele><time>2026-04-25T08:46:46.629Z</time></trkpt><trkpt lat="45.4691933" lon="9.3732183"><ele>110.0</ele><time>2026-04-25T08:46:47.63Z</time></trkpt><trkpt lat="45.46926" lon="9.373205"><ele>109.99999999999999</ele><time>2026-04-25T08:46:48.63Z</time></trkpt><trkpt lat="45.4693267" lon="9.3731883"><ele>110.0</ele><time>2026-04-25T08:46:49.632Z</time></trkpt><trkpt lat="45.4693933" lon="9.3731667"><ele>110.0</ele><time>2026-04-25T08:46:50.632Z</time></trkpt><trkpt lat="45.4694583" lon="9.3731383"><ele>110.0</ele><time>2026-04-25T08:46:51.629Z</time></trkpt><trkpt lat="45.4695267" lon="9.3731033"><ele>110.0</ele><time>2026-04-25T08:46:52.63Z</time></trkpt><trkpt lat="45.4695983" lon="9.37307"><ele>109.99999999999999</ele><time>2026-04-25T08:46:53.63Z</time></trkpt><trkpt lat="45.4696667" lon="9.37304"><ele>110.0</ele><time>2026-04-25T08:46:54.629Z</time></trkpt><trkpt lat="45.4697383" lon="9.37301"><ele>109.99999999999999</ele><time>2026-04-25T08:46:55.63Z</time></trkpt><trkpt lat="45.46981" lon="9.372985"><ele>110.0</ele><time>2026-04-25T08:46:56.631Z</time></trkpt><trkpt lat="45.4698817" lon="9.37296"><ele>110.0</ele><time>2026-04-25T08:46:57.629Z</time></trkpt><trkpt lat="45.46995" lon="9.3729333"><ele>110.0</ele><time>2026-04-25T08:46:58.633Z</time></trkpt><trkpt lat="45.47002" lon="9.3729033"><ele>110.0</ele><time>2026-04-25T08:46:59.629Z</time></trkpt><trkpt lat="45.4700917" lon="9.3728717"><ele>109.99999999999999</ele><time>2026-04-25T08:47:00.631Z</time></trkpt><trkpt lat="45.4701617" lon="9.3728417"><ele>110.0</ele><time>2026-04-25T08:47:01.63Z</time></trkpt><trkpt lat="45.47023" lon="9.3728133"><ele>109.99999999999999</ele><time>2026-04-25T08:47:02.629Z</time></trkpt><trkpt lat="45.470295" lon="9.3727867"><ele>110.0</ele><time>2026-04-25T08:47:03.632Z</time></trkpt><trkpt lat="45.4703633" lon="9.3727567"><ele>110.0</ele><time>2026-04-25T08:47:04.629Z</time></trkpt><trkpt lat="45.4704317" lon="9.3727317"><ele>110.0</ele><time>2026-04-25T08:47:05.63Z</time></trkpt><trkpt lat="45.4705" lon="9.3727167"><ele>110.0</ele><time>2026-04-25T08:47:06.63Z</time></trkpt><trkpt lat="45.47057" lon="9.3726983"><ele>109.99999999999999</ele><time>2026-04-25T08:47:07.63Z</time></trkpt><trkpt lat="45.4706417" lon="9.37266"><ele>110.0</ele><time>2026-04-25T08:47:08.63Z</time></trkpt><trkpt lat="45.4707167" lon="9.372625"><ele>110.16666666666666</ele><time>2026-04-25T08:47:09.629Z</time></trkpt><trkpt lat="45.4707933" lon="9.3725933"><ele>110.33333333333333</ele><time>2026-04-25T08:47:10.63Z</time></trkpt><trkpt lat="45.47087" lon="9.3725617"><ele>110.5</ele><time>2026-04-25T08:47:11.63Z</time></trkpt><trkpt lat="45.470955" lon="9.3725217"><ele>110.66666666666666</ele><time>2026-04-25T08:47:12.629Z</time></trkpt><trkpt lat="45.47103" lon="9.3724967"><ele>110.83333333333333</ele><time>2026-04-25T08:47:13.63Z</time></trkpt><trkpt lat="45.4711" lon="9.37247"><ele>111.0</ele><time>2026-04-25T08:47:14.63Z</time></trkpt><trkpt lat="45.47117" lon="9.37244"><ele>111.0</ele><time>2026-04-25T08:47:15.629Z</time></trkpt><trkpt lat="45.4712433" lon="9.37241"><ele>111.0</ele><time>2026-04-25T08:47:16.63Z</time></trkpt><trkpt lat="45.4713183" lon="9.3723733"><ele>111.0</ele><time>2026-04-25T08:47:17.63Z</time></trkpt><trkpt lat="45.47139" lon="9.372335"><ele>111.0</ele><time>2026-04-25T08:47:18.631Z</time></trkpt><trkpt lat="45.4714583" lon="9.3723083"><ele>111.0</ele><time>2026-04-25T08:47:19.63Z</time></trkpt><trkpt lat="45.4715267" lon="9.3722917"><ele>111.0</ele><time>2026-04-25T08:47:20.634Z</time></trkpt><trkpt lat="45.4715917" lon="9.37228"><ele>111.0</ele><time>2026-04-25T08:47:21.629Z</time></trkpt><trkpt lat="45.47166" lon="9.3722683"><ele>111.0</ele><time>2026-04-25T08:47:22.632Z</time></trkpt><trkpt lat="45.4717333" lon="9.37225"><ele>111.0</ele><time>2026-04-25T08:47:23.631Z</time></trkpt><trkpt lat="45.4718083" lon="9.37223"><ele>111.0</ele><time>2026-04-25T08:47:24.633Z</time></trkpt><trkpt lat="45.4718817" lon="9.3722117"><ele>111.0</ele><time>2026-04-25T08:47:25.631Z</time></trkpt><trkpt lat="45.471955" lon="9.372195"><ele>111.0</ele><time>2026-04-25T08:47:26.629Z</time></trkpt><trkpt lat="45.472025" lon="9.37218"><ele>111.0</ele><time>2026-04-25T08:47:27.63Z</time></trkpt><trkpt lat="45.472095" lon="9.3721733"><ele>111.0</ele><time>2026-04-25T08:47:28.63Z</time></trkpt><trkpt lat="45.4721667" lon="9.3721667"><ele>110.85714285714285</ele><time>2026-04-25T08:47:29.629Z</time></trkpt><trkpt lat="45.4722317" lon="9.3721617"><ele>110.71428571428572</ele><time>2026-04-25T08:47:30.63Z</time></trkpt><trkpt lat="45.472295" lon="9.372155"><ele>110.57142857142857</ele><time>2026-04-25T08:47:31.63Z</time></trkpt><trkpt lat="45.4723617" lon="9.3721483"><ele>110.42857142857142</ele><time>2026-04-25T08:47:32.63Z</time></trkpt><trkpt lat="45.47243" lon="9.3721367"><ele>110.28571428571428</ele><time>2026-04-25T08:47:33.63Z</time></trkpt><trkpt lat="45.472495" lon="9.372125"><ele>110.14285714285714</ele><time>2026-04-25T08:47:34.63Z</time></trkpt><trkpt lat="45.4725633" lon="9.3721117"><ele>110.0</ele><time>2026-04-25T08:47:35.629Z</time></trkpt><trkpt lat="45.47263" lon="9.3720983"><ele>109.99999999999999</ele><time>2026-04-25T08:47:36.632Z</time></trkpt><trkpt lat="45.4726967" lon="9.3720917"><ele>110.0</ele><time>2026-04-25T08:47:37.631Z</time></trkpt><trkpt lat="45.4727667" lon="9.37209"><ele>110.0</ele><time>2026-04-25T08:47:38.63Z</time></trkpt><trkpt lat="45.4728367" lon="9.3720917"><ele>110.0</ele><time>2026-04-25T08:47:39.628Z</time></trkpt><trkpt lat="45.472905" lon="9.3720867"><ele>110.0</ele><time>2026-04-25T08:47:40.629Z</time></trkpt><trkpt lat="45.4729683" lon="9.3720767"><ele>109.99999999999999</ele><time>2026-04-25T08:47:41.629Z</time></trkpt><trkpt lat="45.47303" lon="9.3720583"><ele>110.0</ele><time>2026-04-25T08:47:42.631Z</time></trkpt><trkpt lat="45.4730933" lon="9.372025"><ele>109.99999999999999</ele><time>2026-04-25T08:47:43.63Z</time></trkpt><trkpt lat="45.4731567" lon="9.37197"><ele>110.0</ele><time>2026-04-25T08:47:44.634Z</time></trkpt><trkpt lat="45.47321" lon="9.371895"><ele>110.0</ele><time>2026-04-25T08:47:45.63Z</time></trkpt><trkpt lat="45.4732417" lon="9.371805"><ele>110.0</ele><time>2026-04-25T08:47:46.629Z</time></trkpt><trkpt lat="45.4732583" lon="9.3716983"><ele>109.99999999999999</ele><time>2026-04-25T08:47:47.63Z</time></trkpt><trkpt lat="45.4732583" lon="9.37159"><ele>110.0</ele><time>2026-04-25T08:47:48.631Z</time></trkpt><trkpt lat="45.4732517" lon="9.37148"><ele>109.99999999999999</ele><time>2026-04-25T08:47:49.633Z</time></trkpt><trkpt lat="45.4732417" lon="9.371375"><ele>110.0</ele><time>2026-04-25T08:47:50.63Z</time></trkpt><trkpt lat="45.47323" lon="9.3712733"><ele>110.0</ele><time>2026-04-25T08:47:51.629Z</time></trkpt><trkpt lat="45.4732167" lon="9.37117"><ele>110.0</ele><time>2026-04-25T08:47:52.631Z</time></trkpt><trkpt lat="45.4732067" lon="9.3710717"><ele>110.0</ele><time>2026-04-25T08:47:53.631Z</time></trkpt><trkpt lat="45.4731983" lon="9.3709633"><ele>109.99999999999999</ele><time>2026-04-25T08:47:54.633Z</time></trkpt><trkpt lat="45.47319" lon="9.3708583"><ele>110.0</ele><time>2026-04-25T08:47:55.63Z</time></trkpt><trkpt lat="45.47318" lon="9.3707517"><ele>109.99999999999999</ele><time>2026-04-25T08:47:56.63Z</time></trkpt><trkpt lat="45.4731683" lon="9.3706467"><ele>110.0</ele><time>2026-04-25T08:47:57.63Z</time></trkpt><trkpt lat="45.473155" lon="9.370545"><ele>110.0</ele><time>2026-04-25T08:47:58.631Z</time></trkpt><trkpt lat="45.4731467" lon="9.37045"><ele>110.0</ele><time>2026-04-25T08:47:59.631Z</time></trkpt><trkpt lat="45.4731383" lon="9.3703567"><ele>110.0</ele><time>2026-04-25T08:48:00.63Z</time></trkpt><trkpt lat="45.4731267" lon="9.37026"><ele>109.99999999999999</ele><time>2026-04-25T08:48:01.629Z</time></trkpt><trkpt lat="45.4731133" lon="9.3701667"><ele>110.0</ele><time>2026-04-25T08:48:02.63Z</time></trkpt><trkpt lat="45.4731017" lon="9.3700767"><ele>109.83333333333333</ele><time>2026-04-25T08:48:03.631Z</time></trkpt><trkpt lat="45.47309" lon="9.3699867"><ele>109.66666666666666</ele><time>2026-04-25T08:48:04.632Z</time></trkpt><trkpt lat="45.4730833" lon="9.36981"><ele>109.5</ele><time>2026-04-25T08:48:06.63Z</time></trkpt><trkpt lat="45.4731317" lon="9.3696517"><ele>109.33333333333334</ele><time>2026-04-25T08:48:08.63Z</time></trkpt><trkpt lat="45.473185" lon="9.3695967"><ele>109.16666666666667</ele><time>2026-04-25T08:48:09.63Z</time></trkpt><trkpt lat="45.4732483" lon="9.3695717"><ele>109.0</ele><time>2026-04-25T08:48:10.628Z</time></trkpt><trkpt lat="45.4733133" lon="9.3695633"><ele>108.80000000000001</ele><time>2026-04-25T08:48:11.628Z</time></trkpt><trkpt lat="45.4733817" lon="9.3695567"><ele>108.60000000000001</ele><time>2026-04-25T08:48:12.634Z</time></trkpt><trkpt lat="45.4734483" lon="9.36955"><ele>108.4</ele><time>2026-04-25T08:48:13.629Z</time></trkpt><trkpt lat="45.4735683" lon="9.3695417"><ele>108.2</ele><time>2026-04-25T08:48:15.631Z</time></trkpt><trkpt lat="45.4736667" lon="9.3695317"><ele>108.0</ele><time>2026-04-25T08:48:17.632Z</time></trkpt><trkpt lat="45.4737717" lon="9.3695117"><ele>107.66666666666667</ele><time>2026-04-25T08:48:19.63Z</time></trkpt><trkpt lat="45.4738783" lon="9.3694933"><ele>107.33333333333334</ele><time>2026-04-25T08:48:21.632Z</time></trkpt><trkpt lat="45.4739883" lon="9.3694717"><ele>107.0</ele><time>2026-04-25T08:48:23.63Z</time></trkpt><trkpt lat="45.474055" lon="9.36946"><ele>106.66666666666667</ele><time>2026-04-25T08:48:24.628Z</time></trkpt><trkpt lat="45.47412" lon="9.3694533"><ele>106.33333333333334</ele><time>2026-04-25T08:48:25.63Z</time></trkpt><trkpt lat="45.47419" lon="9.3694467"><ele>106.0</ele><time>2026-04-25T08:48:26.63Z</time></trkpt><trkpt lat="45.4742617" lon="9.3694367"><ele>106.00000000000001</ele><time>2026-04-25T08:48:27.629Z</time></trkpt><trkpt lat="45.4743317" lon="9.369425"><ele>106.0</ele><time>2026-04-25T08:48:28.632Z</time></trkpt><trkpt lat="45.4744017" lon="9.3694117"><ele>106.0</ele><time>2026-04-25T08:48:29.628Z</time></trkpt><trkpt lat="45.4744717" lon="9.3694017"><ele>106.0</ele><time>2026-04-25T08:48:30.629Z</time></trkpt><trkpt lat="45.4745367" lon="9.3693933"><ele>106.00000000000001</ele><time>2026-04-25T08:48:31.629Z</time></trkpt><trkpt lat="45.47466" lon="9.3693783"><ele>106.0</ele><time>2026-04-25T08:48:33.629Z</time></trkpt><trkpt lat="45.4747833" lon="9.3693617"><ele>106.71428571428572</ele><time>2026-04-25T08:48:35.63Z</time></trkpt><trkpt lat="45.4748467" lon="9.3693567"><ele>107.42857142857142</ele><time>2026-04-25T08:48:36.629Z</time></trkpt><trkpt lat="45.47491" lon="9.3693583"><ele>108.14285714285714</ele><time>2026-04-25T08:48:37.631Z</time></trkpt><trkpt lat="45.474975" lon="9.3693567"><ele>108.85714285714286</ele><time>2026-04-25T08:48:38.632Z</time></trkpt><trkpt lat="45.47504" lon="9.369345"><ele>109.57142857142858</ele><time>2026-04-25T08:48:39.629Z</time></trkpt><trkpt lat="45.4751083" lon="9.3693317"><ele>110.28571428571428</ele><time>2026-04-25T08:48:40.63Z</time></trkpt><trkpt lat="45.4751717" lon="9.36932"><ele>111.0</ele><time>2026-04-25T08:48:41.629Z</time></trkpt><trkpt lat="45.4752917" lon="9.369305"><ele>111.0</ele><time>2026-04-25T08:48:43.63Z</time></trkpt><trkpt lat="45.4753967" lon="9.3692917"><ele>111.0</ele><time>2026-04-25T08:48:45.63Z</time></trkpt><trkpt lat="45.4754933" lon="9.3692783"><ele>111.0</ele><time>2026-04-25T08:48:47.63Z</time></trkpt><trkpt lat="45.4756017" lon="9.369265"><ele>111.0</ele><time>2026-04-25T08:48:49.63Z</time></trkpt><trkpt lat="45.475715" lon="9.36926"><ele>111.0</ele><time>2026-04-25T08:48:51.63Z</time></trkpt><trkpt lat="45.4758267" lon="9.3692467"><ele>111.0</ele><time>2026-04-25T08:48:53.63Z</time></trkpt><trkpt lat="45.475895" lon="9.3692417"><ele>111.0</ele><time>2026-04-25T08:48:54.633Z</time></trkpt><trkpt lat="45.4760183" lon="9.36922"><ele>111.0</ele><time>2026-04-25T08:48:56.629Z</time></trkpt><trkpt lat="45.476135" lon="9.369205"><ele>111.0</ele><time>2026-04-25T08:48:58.632Z</time></trkpt><trkpt lat="45.4762583" lon="9.3691883"><ele>111.0</ele><time>2026-04-25T08:49:00.629Z</time></trkpt><trkpt lat="45.4763217" lon="9.3691783"><ele>111.16666666666667</ele><time>2026-04-25T08:49:01.629Z</time></trkpt><trkpt lat="45.476385" lon="9.3691717"><ele>111.33333333333334</ele><time>2026-04-25T08:49:02.63Z</time></trkpt><trkpt lat="45.4764517" lon="9.3691633"><ele>111.5</ele><time>2026-04-25T08:49:03.632Z</time></trkpt><trkpt lat="45.4765217" lon="9.369155"><ele>111.66666666666667</ele><time>2026-04-25T08:49:04.629Z</time></trkpt><trkpt lat="45.476645" lon="9.369135"><ele>111.83333333333334</ele><time>2026-04-25T08:49:06.629Z</time></trkpt><trkpt lat="45.4767667" lon="9.3691133"><ele>112.0</ele><time>2026-04-25T08:49:08.631Z</time></trkpt><trkpt lat="45.47683" lon="9.3691033"><ele>112.0</ele><time>2026-04-25T08:49:09.629Z</time></trkpt><trkpt lat="45.476955" lon="9.3690917"><ele>111.99999999999999</ele><time>2026-04-25T08:49:11.629Z</time></trkpt><trkpt lat="45.47708" lon="9.369065"><ele>111.99999999999999</ele><time>2026-04-25T08:49:13.629Z</time></trkpt><trkpt lat="45.4772033" lon="9.3690483"><ele>112.0</ele><time>2026-04-25T08:49:15.63Z</time></trkpt><trkpt lat="45.47727" lon="9.3690417"><ele>112.0</ele><time>2026-04-25T08:49:16.631Z</time></trkpt><trkpt lat="45.4773333" lon="9.369035"><ele>111.83333333333334</ele><time>2026-04-25T08:49:17.629Z</time></trkpt><trkpt lat="45.4774" lon="9.3690283"><ele>111.66666666666667</ele><time>2026-04-25T08:49:18.635Z</time></trkpt><trkpt lat="45.4775267" lon="9.3690117"><ele>111.5</ele><time>2026-04-25T08:49:20.629Z</time></trkpt><trkpt lat="45.4775917" lon="9.3690017"><ele>111.33333333333334</ele><time>2026-04-25T08:49:21.632Z</time></trkpt><trkpt lat="45.4776583" lon="9.3689917"><ele>111.16666666666667</ele><time>2026-04-25T08:49:22.629Z</time></trkpt><trkpt lat="45.477725" lon="9.3689817"><ele>111.0</ele><time>2026-04-25T08:49:23.63Z</time></trkpt><trkpt lat="45.47779" lon="9.3689733"><ele>111.0</ele><time>2026-04-25T08:49:24.629Z</time></trkpt><trkpt lat="45.4778533" lon="9.368965"><ele>111.0</ele><time>2026-04-25T08:49:25.629Z</time></trkpt><trkpt lat="45.4779733" lon="9.3689517"><ele>111.0</ele><time>2026-04-25T08:49:27.629Z</time></trkpt><trkpt lat="45.4780917" lon="9.368935"><ele>111.0</ele><time>2026-04-25T08:49:29.631Z</time></trkpt><trkpt lat="45.4781567" lon="9.368925"><ele>111.0</ele><time>2026-04-25T08:49:30.631Z</time></trkpt><trkpt lat="45.4782217" lon="9.3689183"><ele>111.0</ele><time>2026-04-25T08:49:31.628Z</time></trkpt><trkpt lat="45.4782883" lon="9.36891"><ele>110.85714285714285</ele><time>2026-04-25T08:49:32.629Z</time></trkpt><trkpt lat="45.478355" lon="9.368905"><ele>110.71428571428572</ele><time>2026-04-25T08:49:33.629Z</time></trkpt><trkpt lat="45.4784217" lon="9.3688983"><ele>110.57142857142857</ele><time>2026-04-25T08:49:34.629Z</time></trkpt><trkpt lat="45.4784883" lon="9.3688883"><ele>110.42857142857142</ele><time>2026-04-25T08:49:35.629Z</time></trkpt><trkpt lat="45.4785533" lon="9.3688783"><ele>110.28571428571428</ele><time>2026-04-25T08:49:36.629Z</time></trkpt><trkpt lat="45.47862" lon="9.36887"><ele>110.14285714285714</ele><time>2026-04-25T08:49:37.629Z</time></trkpt><trkpt lat="45.4786867" lon="9.3688617"><ele>110.0</ele><time>2026-04-25T08:49:38.628Z</time></trkpt><trkpt lat="45.47875" lon="9.368855"><ele>110.8</ele><time>2026-04-25T08:49:39.631Z</time></trkpt><trkpt lat="45.4788733" lon="9.36884"><ele>111.6</ele><time>2026-04-25T08:49:41.629Z</time></trkpt><trkpt lat="45.478995" lon="9.3688267"><ele>112.4</ele><time>2026-04-25T08:49:43.63Z</time></trkpt><trkpt lat="45.4791167" lon="9.368805"><ele>113.2</ele><time>2026-04-25T08:49:45.629Z</time></trkpt><trkpt lat="45.47918" lon="9.3687983"><ele>114.0</ele><time>2026-04-25T08:49:46.629Z</time></trkpt><trkpt lat="45.4793033" lon="9.3687833"><ele>114.0</ele><time>2026-04-25T08:49:48.629Z</time></trkpt><trkpt lat="45.47943" lon="9.3687667"><ele>114.0</ele><time>2026-04-25T08:49:50.633Z</time></trkpt><trkpt lat="45.4794933" lon="9.3687517"><ele>114.0</ele><time>2026-04-25T08:49:51.631Z</time></trkpt><trkpt lat="45.47956" lon="9.368735"><ele>114.0</ele><time>2026-04-25T08:49:52.63Z</time></trkpt><trkpt lat="45.4796233" lon="9.36873"><ele>114.0</ele><time>2026-04-25T08:49:53.629Z</time></trkpt><trkpt lat="45.47969" lon="9.36873"><ele>114.0</ele><time>2026-04-25T08:49:54.63Z</time></trkpt><trkpt lat="45.4797567" lon="9.36872"><ele>114.16666666666667</ele><time>2026-04-25T08:49:55.629Z</time></trkpt><trkpt lat="45.479825" lon="9.36871"><ele>114.33333333333334</ele><time>2026-04-25T08:49:56.631Z</time></trkpt><trkpt lat="45.4798917" lon="9.3687033"><ele>114.5</ele><time>2026-04-25T08:49:57.635Z</time></trkpt><trkpt lat="45.4799567" lon="9.3686933"><ele>114.66666666666667</ele><time>2026-04-25T08:49:58.63Z</time></trkpt><trkpt lat="45.4800767" lon="9.3686683"><ele>114.83333333333334</ele><time>2026-04-25T08:50:00.63Z</time></trkpt><trkpt lat="45.4801917" lon="9.3686433"><ele>115.0</ele><time>2026-04-25T08:50:02.632Z</time></trkpt><trkpt lat="45.48031" lon="9.3686267"><ele>114.8</ele><time>2026-04-25T08:50:04.629Z</time></trkpt><trkpt lat="45.4804333" lon="9.368605"><ele>114.6</ele><time>2026-04-25T08:50:06.632Z</time></trkpt><trkpt lat="45.480545" lon="9.3686"><ele>114.4</ele><time>2026-04-25T08:50:08.629Z</time></trkpt><trkpt lat="45.480645" lon="9.3686033"><ele>114.2</ele><time>2026-04-25T08:50:10.629Z</time></trkpt><trkpt lat="45.4807417" lon="9.368595"><ele>114.0</ele><time>2026-04-25T08:50:12.629Z</time></trkpt><trkpt lat="45.4808467" lon="9.3685833"><ele>114.0</ele><time>2026-04-25T08:50:14.631Z</time></trkpt><trkpt lat="45.480955" lon="9.368565"><ele>114.0</ele><time>2026-04-25T08:50:16.628Z</time></trkpt><trkpt lat="45.4810633" lon="9.3685317"><ele>114.0</ele><time>2026-04-25T08:50:18.629Z</time></trkpt><trkpt lat="45.4811867" lon="9.3685067"><ele>114.0</ele><time>2026-04-25T08:50:20.631Z</time></trkpt><trkpt lat="45.48125" lon="9.3684933"><ele>114.0</ele><time>2026-04-25T08:50:21.631Z</time></trkpt><trkpt lat="45.4813683" lon="9.3684733"><ele>114.0</ele><time>2026-04-25T08:50:23.629Z</time></trkpt><trkpt lat="45.4814867" lon="9.3684567"><ele>114.0</ele><time>2026-04-25T08:50:25.629Z</time></trkpt><trkpt lat="45.48155" lon="9.36845"><ele>114.0</ele><time>2026-04-25T08:50:26.631Z</time></trkpt><trkpt lat="45.4816733" lon="9.368435"><ele>114.0</ele><time>2026-04-25T08:50:28.631Z</time></trkpt><trkpt lat="45.4817917" lon="9.36842"><ele>114.0</ele><time>2026-04-25T08:50:30.629Z</time></trkpt><trkpt lat="45.481915" lon="9.3684083"><ele>114.0</ele><time>2026-04-25T08:50:32.63Z</time></trkpt><trkpt lat="45.48204" lon="9.3683983"><ele>114.0</ele><time>2026-04-25T08:50:34.63Z</time></trkpt><trkpt lat="45.4821617" lon="9.3683833"><ele>114.0</ele><time>2026-04-25T08:50:36.63Z</time></trkpt><trkpt lat="45.48227" lon="9.36837"><ele>114.0</ele><time>2026-04-25T08:50:38.634Z</time></trkpt><trkpt lat="45.4823683" lon="9.3683517"><ele>114.0</ele><time>2026-04-25T08:50:40.63Z</time></trkpt><trkpt lat="45.4824667" lon="9.3683283"><ele>114.0</ele><time>2026-04-25T08:50:42.63Z</time></trkpt><trkpt lat="45.4825583" lon="9.36832"><ele>114.0</ele><time>2026-04-25T08:50:44.63Z</time></trkpt><trkpt lat="45.4826467" lon="9.368315"><ele>114.0</ele><time>2026-04-25T08:50:46.631Z</time></trkpt><trkpt lat="45.4827367" lon="9.3683"><ele>114.0</ele><time>2026-04-25T08:50:48.631Z</time></trkpt><trkpt lat="45.4828267" lon="9.3682867"><ele>114.0</ele><time>2026-04-25T08:50:50.632Z</time></trkpt><trkpt lat="45.4829133" lon="9.368275"><ele>114.0</ele><time>2026-04-25T08:50:52.63Z</time></trkpt><trkpt lat="45.4829983" lon="9.3682667"><ele>114.0</ele><time>2026-04-25T08:50:54.63Z</time></trkpt><trkpt lat="45.4830967" lon="9.3682567"><ele>114.0</ele><time>2026-04-25T08:50:56.63Z</time></trkpt><trkpt lat="45.4831933" lon="9.3682417"><ele>114.0</ele><time>2026-04-25T08:50:58.633Z</time></trkpt><trkpt lat="45.4832867" lon="9.3682317"><ele>114.83333333333333</ele><time>2026-04-25T08:51:00.628Z</time></trkpt><trkpt lat="45.4833767" lon="9.3682183"><ele>115.66666666666666</ele><time>2026-04-25T08:51:02.632Z</time></trkpt><trkpt lat="45.4834517" lon="9.3682117"><ele>116.5</ele><time>2026-04-25T08:51:04.63Z</time></trkpt><trkpt lat="45.4835283" lon="9.3682"><ele>117.33333333333333</ele><time>2026-04-25T08:51:06.63Z</time></trkpt><trkpt lat="45.4836117" lon="9.3681917"><ele>118.16666666666666</ele><time>2026-04-25T08:51:08.632Z</time></trkpt><trkpt lat="45.4836983" lon="9.3681817"><ele>119.0</ele><time>2026-04-25T08:51:10.629Z</time></trkpt><trkpt lat="45.4837917" lon="9.368165"><ele>119.2</ele><time>2026-04-25T08:51:12.631Z</time></trkpt><trkpt lat="45.4838883" lon="9.3681567"><ele>119.4</ele><time>2026-04-25T08:51:14.632Z</time></trkpt><trkpt lat="45.4839933" lon="9.3681367"><ele>119.6</ele><time>2026-04-25T08:51:16.63Z</time></trkpt><trkpt lat="45.4840983" lon="9.3681117"><ele>119.8</ele><time>2026-04-25T08:51:18.631Z</time></trkpt><trkpt lat="45.48421" lon="9.3680917"><ele>120.0</ele><time>2026-04-25T08:51:20.631Z</time></trkpt><trkpt lat="45.4843317" lon="9.3680783"><ele>120.0</ele><time>2026-04-25T08:51:22.631Z</time></trkpt><trkpt lat="45.484395" lon="9.368075"><ele>120.0</ele><time>2026-04-25T08:51:23.63Z</time></trkpt><trkpt lat="45.4844617" lon="9.3680717"><ele>120.0</ele><time>2026-04-25T08:51:24.631Z</time></trkpt><trkpt lat="45.4845333" lon="9.368065"><ele>120.0</ele><time>2026-04-25T08:51:25.631Z</time></trkpt><trkpt lat="45.48461" lon="9.3680567"><ele>120.0</ele><time>2026-04-25T08:51:26.634Z</time></trkpt><trkpt lat="45.4846967" lon="9.368045"><ele>120.0</ele><time>2026-04-25T08:51:27.631Z</time></trkpt><trkpt lat="45.4847867" lon="9.3680317"><ele>120.0</ele><time>2026-04-25T08:51:28.63Z</time></trkpt><trkpt lat="45.484875" lon="9.36802"><ele>120.0</ele><time>2026-04-25T08:51:29.629Z</time></trkpt><trkpt lat="45.4849633" lon="9.3680117"><ele>120.0</ele><time>2026-04-25T08:51:30.632Z</time></trkpt><trkpt lat="45.4850383" lon="9.36802"><ele>120.0</ele><time>2026-04-25T08:51:31.63Z</time></trkpt><trkpt lat="45.4851133" lon="9.3680317"><ele>120.0</ele><time>2026-04-25T08:51:32.634Z</time></trkpt><trkpt lat="45.4851783" lon="9.3680367"><ele>120.0</ele><time>2026-04-25T08:51:33.632Z</time></trkpt><trkpt lat="45.4852817" lon="9.3679633"><ele>119.0</ele><time>2026-04-25T08:51:35.629Z</time></trkpt><trkpt lat="45.4853" lon="9.3677933"><ele>118.0</ele><time>2026-04-25T08:51:37.63Z</time></trkpt><trkpt lat="45.4852333" lon="9.36766"><ele>117.0</ele><time>2026-04-25T08:51:39.631Z</time></trkpt><trkpt lat="45.4851233" lon="9.3676"><ele>116.0</ele><time>2026-04-25T08:51:41.631Z</time></trkpt><trkpt lat="45.4850067" lon="9.367605"><ele>115.99999999999999</ele><time>2026-04-25T08:51:43.636Z</time></trkpt><trkpt lat="45.4849417" lon="9.36762"><ele>116.0</ele><time>2026-04-25T08:51:44.631Z</time></trkpt><trkpt lat="45.4848767" lon="9.3676383"><ele>116.0</ele><time>2026-04-25T08:51:45.63Z</time></trkpt><trkpt lat="45.484815" lon="9.3676567"><ele>116.0</ele><time>2026-04-25T08:51:46.629Z</time></trkpt><trkpt lat="45.484695" lon="9.3676883"><ele>115.99999999999999</ele><time>2026-04-25T08:51:48.629Z</time></trkpt><trkpt lat="45.4845767" lon="9.3677083"><ele>116.0</ele><time>2026-04-25T08:51:50.631Z</time></trkpt><trkpt lat="45.4844567" lon="9.3677083"><ele>117.0</ele><time>2026-04-25T08:51:52.635Z</time></trkpt><trkpt lat="45.4843433" lon="9.3676683"><ele>118.0</ele><time>2026-04-25T08:51:54.632Z</time></trkpt><trkpt lat="45.4842433" lon="9.3675833"><ele>119.0</ele><time>2026-04-25T08:51:56.631Z</time></trkpt><trkpt lat="45.4841633" lon="9.36746"><ele>120.0</ele><time>2026-04-25T08:51:58.629Z</time></trkpt><trkpt lat="45.4841167" lon="9.3673"><ele>120.0</ele><time>2026-04-25T08:52:00.631Z</time></trkpt><trkpt lat="45.4841033" lon="9.3672117"><ele>120.0</ele><time>2026-04-25T08:52:01.631Z</time></trkpt><trkpt lat="45.4840917" lon="9.3670367"><ele>120.0</ele><time>2026-04-25T08:52:03.632Z</time></trkpt><trkpt lat="45.48409" lon="9.36686"><ele>120.0</ele><time>2026-04-25T08:52:05.63Z</time></trkpt><trkpt lat="45.48409" lon="9.3667683"><ele>120.0</ele><time>2026-04-25T08:52:06.629Z</time></trkpt><trkpt lat="45.4840883" lon="9.366675"><ele>120.0</ele><time>2026-04-25T08:52:07.63Z</time></trkpt><trkpt lat="45.484085" lon="9.3665833"><ele>119.57142857142858</ele><time>2026-04-25T08:52:08.63Z</time></trkpt><trkpt lat="45.48408" lon="9.3664883"><ele>119.14285714285714</ele><time>2026-04-25T08:52:09.628Z</time></trkpt><trkpt lat="45.4840783" lon="9.3663917"><ele>118.71428571428572</ele><time>2026-04-25T08:52:10.628Z</time></trkpt><trkpt lat="45.4840783" lon="9.3662983"><ele>118.28571428571429</ele><time>2026-04-25T08:52:11.63Z</time></trkpt><trkpt lat="45.4840767" lon="9.3661983"><ele>117.85714285714286</ele><time>2026-04-25T08:52:12.629Z</time></trkpt><trkpt lat="45.48408" lon="9.3660983"><ele>117.42857142857143</ele><time>2026-04-25T08:52:13.63Z</time></trkpt><trkpt lat="45.4840817" lon="9.3659917"><ele>117.0</ele><time>2026-04-25T08:52:14.63Z</time></trkpt><trkpt lat="45.4840833" lon="9.3658883"><ele>116.85714285714286</ele><time>2026-04-25T08:52:15.63Z</time></trkpt><trkpt lat="45.4840833" lon="9.365785"><ele>116.71428571428572</ele><time>2026-04-25T08:52:16.632Z</time></trkpt><trkpt lat="45.4840833" lon="9.3656833"><ele>116.57142857142858</ele><time>2026-04-25T08:52:17.628Z</time></trkpt><trkpt lat="45.4840817" lon="9.3655767"><ele>116.42857142857144</ele><time>2026-04-25T08:52:18.633Z</time></trkpt><trkpt lat="45.48408" lon="9.3654733"><ele>116.28571428571429</ele><time>2026-04-25T08:52:19.63Z</time></trkpt><trkpt lat="45.4840767" lon="9.3653617"><ele>116.14285714285717</ele><time>2026-04-25T08:52:20.63Z</time></trkpt><trkpt lat="45.4840717" lon="9.365255"><ele>116.00000000000001</ele><time>2026-04-25T08:52:21.63Z</time></trkpt><trkpt lat="45.4840717" lon="9.3651483"><ele>116.57142857142858</ele><time>2026-04-25T08:52:22.628Z</time></trkpt><trkpt lat="45.4840717" lon="9.36504"><ele>117.14285714285714</ele><time>2026-04-25T08:52:23.63Z</time></trkpt><trkpt lat="45.4840717" lon="9.3649383"><ele>117.71428571428572</ele><time>2026-04-25T08:52:24.629Z</time></trkpt><trkpt lat="45.4840667" lon="9.3648417"><ele>118.28571428571429</ele><time>2026-04-25T08:52:25.631Z</time></trkpt><trkpt lat="45.4840617" lon="9.364745"><ele>118.85714285714286</ele><time>2026-04-25T08:52:26.631Z</time></trkpt><trkpt lat="45.4840567" lon="9.3646467"><ele>119.42857142857143</ele><time>2026-04-25T08:52:27.632Z</time></trkpt><trkpt lat="45.4840517" lon="9.36455"><ele>120.0</ele><time>2026-04-25T08:52:28.629Z</time></trkpt><trkpt lat="45.4840483" lon="9.3644567"><ele>120.2</ele><time>2026-04-25T08:52:29.628Z</time></trkpt><trkpt lat="45.484045" lon="9.3643667"><ele>120.4</ele><time>2026-04-25T08:52:30.628Z</time></trkpt><trkpt lat="45.48404" lon="9.3641833"><ele>120.6</ele><time>2026-04-25T08:52:32.631Z</time></trkpt><trkpt lat="45.4840333" lon="9.3640167"><ele>120.8</ele><time>2026-04-25T08:52:34.63Z</time></trkpt><trkpt lat="45.4840267" lon="9.3638417"><ele>121.0</ele><time>2026-04-25T08:52:36.629Z</time></trkpt><trkpt lat="45.4840267" lon="9.3637517"><ele>120.71428571428571</ele><time>2026-04-25T08:52:37.629Z</time></trkpt><trkpt lat="45.4840317" lon="9.3636617"><ele>120.42857142857142</ele><time>2026-04-25T08:52:38.63Z</time></trkpt><trkpt lat="45.4840317" lon="9.3635683"><ele>120.14285714285714</ele><time>2026-04-25T08:52:39.628Z</time></trkpt><trkpt lat="45.4840317" lon="9.3634733"><ele>119.85714285714286</ele><time>2026-04-25T08:52:40.629Z</time></trkpt><trkpt lat="45.4840317" lon="9.36338"><ele>119.57142857142857</ele><time>2026-04-25T08:52:41.628Z</time></trkpt><trkpt lat="45.4840283" lon="9.363285"><ele>119.28571428571428</ele><time>2026-04-25T08:52:42.63Z</time></trkpt><trkpt lat="45.4840267" lon="9.3631917"><ele>119.0</ele><time>2026-04-25T08:52:43.629Z</time></trkpt><trkpt lat="45.484025" lon="9.3631"><ele>118.57142857142857</ele><time>2026-04-25T08:52:44.63Z</time></trkpt><trkpt lat="45.484025" lon="9.3630067"><ele>118.14285714285714</ele><time>2026-04-25T08:52:45.631Z</time></trkpt><trkpt lat="45.484025" lon="9.3629133"><ele>117.71428571428572</ele><time>2026-04-25T08:52:46.628Z</time></trkpt><trkpt lat="45.484025" lon="9.36282"><ele>117.28571428571429</ele><time>2026-04-25T08:52:47.629Z</time></trkpt><trkpt lat="45.484025" lon="9.3627283"><ele>116.85714285714286</ele><time>2026-04-25T08:52:48.629Z</time></trkpt><trkpt lat="45.484025" lon="9.3626383"><ele>116.42857142857144</ele><time>2026-04-25T08:52:49.63Z</time></trkpt><trkpt lat="45.484025" lon="9.362545"><ele>116.00000000000001</ele><time>2026-04-25T08:52:50.63Z</time></trkpt><trkpt lat="45.484025" lon="9.3624517"><ele>115.99999999999999</ele><time>2026-04-25T08:52:51.629Z</time></trkpt><trkpt lat="45.4840233" lon="9.362355"><ele>116.0</ele><time>2026-04-25T08:52:52.63Z</time></trkpt><trkpt lat="45.4840217" lon="9.36226"><ele>116.0</ele><time>2026-04-25T08:52:53.63Z</time></trkpt><trkpt lat="45.4840183" lon="9.3621667"><ele>116.0</ele><time>2026-04-25T08:52:54.629Z</time></trkpt><trkpt lat="45.4840167" lon="9.3619867"><ele>115.99999999999999</ele><time>2026-04-25T08:52:56.629Z</time></trkpt><trkpt lat="45.4840167" lon="9.3618917"><ele>116.0</ele><time>2026-04-25T08:52:57.63Z</time></trkpt><trkpt lat="45.4840167" lon="9.3617933"><ele>116.00000000000001</ele><time>2026-04-25T08:52:58.63Z</time></trkpt><trkpt lat="45.4840167" lon="9.3616967"><ele>116.0</ele><time>2026-04-25T08:52:59.629Z</time></trkpt><trkpt lat="45.4840167" lon="9.361595"><ele>116.00000000000001</ele><time>2026-04-25T08:53:00.629Z</time></trkpt><trkpt lat="45.4840133" lon="9.361495"><ele>116.00000000000001</ele><time>2026-04-25T08:53:01.629Z</time></trkpt><trkpt lat="45.4840083" lon="9.361395"><ele>116.0</ele><time>2026-04-25T08:53:02.632Z</time></trkpt><trkpt lat="45.4840033" lon="9.3613017"><ele>116.00000000000001</ele><time>2026-04-25T08:53:03.631Z</time></trkpt><trkpt lat="45.4839983" lon="9.3612067"><ele>116.00000000000001</ele><time>2026-04-25T08:53:04.631Z</time></trkpt><trkpt lat="45.4839967" lon="9.3610217"><ele>116.42857142857144</ele><time>2026-04-25T08:53:06.631Z</time></trkpt><trkpt lat="45.4839967" lon="9.3609233"><ele>116.85714285714286</ele><time>2026-04-25T08:53:07.63Z</time></trkpt><trkpt lat="45.4839983" lon="9.36083"><ele>117.28571428571429</ele><time>2026-04-25T08:53:08.632Z</time></trkpt><trkpt lat="45.4839967" lon="9.360735"><ele>117.71428571428572</ele><time>2026-04-25T08:53:09.631Z</time></trkpt><trkpt lat="45.4839917" lon="9.3606433"><ele>118.14285714285714</ele><time>2026-04-25T08:53:10.631Z</time></trkpt><trkpt lat="45.4839883" lon="9.3605467"><ele>118.57142857142857</ele><time>2026-04-25T08:53:11.629Z</time></trkpt><trkpt lat="45.4839867" lon="9.360445"><ele>119.0</ele><time>2026-04-25T08:53:12.631Z</time></trkpt><trkpt lat="45.4839883" lon="9.360345"><ele>119.14285714285714</ele><time>2026-04-25T08:53:13.629Z</time></trkpt><trkpt lat="45.4839883" lon="9.3602483"><ele>119.28571428571428</ele><time>2026-04-25T08:53:14.631Z</time></trkpt><trkpt lat="45.4839867" lon="9.36015"><ele>119.42857142857143</ele><time>2026-04-25T08:53:15.631Z</time></trkpt><trkpt lat="45.48398" lon="9.36006"><ele>119.57142857142857</ele><time>2026-04-25T08:53:16.63Z</time></trkpt><trkpt lat="45.4839767" lon="9.359965"><ele>119.71428571428571</ele><time>2026-04-25T08:53:17.63Z</time></trkpt><trkpt lat="45.483975" lon="9.35987"><ele>119.85714285714286</ele><time>2026-04-25T08:53:18.63Z</time></trkpt><trkpt lat="45.483975" lon="9.3597783"><ele>120.0</ele><time>2026-04-25T08:53:19.63Z</time></trkpt><trkpt lat="45.483975" lon="9.3596833"><ele>120.0</ele><time>2026-04-25T08:53:20.634Z</time></trkpt><trkpt lat="45.483975" lon="9.3595867"><ele>120.0</ele><time>2026-04-25T08:53:21.629Z</time></trkpt><trkpt lat="45.4839717" lon="9.35949"><ele>120.0</ele><time>2026-04-25T08:53:22.629Z</time></trkpt><trkpt lat="45.48397" lon="9.359395"><ele>120.0</ele><time>2026-04-25T08:53:23.63Z</time></trkpt><trkpt lat="45.4839683" lon="9.3593017"><ele>120.0</ele><time>2026-04-25T08:53:24.629Z</time></trkpt><trkpt lat="45.4839683" lon="9.3592067"><ele>120.0</ele><time>2026-04-25T08:53:25.628Z</time></trkpt><trkpt lat="45.4839683" lon="9.35911"><ele>120.0</ele><time>2026-04-25T08:53:26.63Z</time></trkpt><trkpt lat="45.4839667" lon="9.3590133"><ele>120.0</ele><time>2026-04-25T08:53:27.63Z</time></trkpt><trkpt lat="45.4839667" lon="9.3589167"><ele>120.0</ele><time>2026-04-25T08:53:28.629Z</time></trkpt><trkpt lat="45.483965" lon="9.3588167"><ele>120.0</ele><time>2026-04-25T08:53:29.63Z</time></trkpt><trkpt lat="45.4839633" lon="9.3587183"><ele>120.0</ele><time>2026-04-25T08:53:30.629Z</time></trkpt><trkpt lat="45.483965" lon="9.358625"><ele>120.0</ele><time>2026-04-25T08:53:31.63Z</time></trkpt><trkpt lat="45.483965" lon="9.358525"><ele>120.0</ele><time>2026-04-25T08:53:32.631Z</time></trkpt><trkpt lat="45.483965" lon="9.3584283"><ele>120.0</ele><time>2026-04-25T08:53:33.629Z</time></trkpt><trkpt lat="45.483965" lon="9.358335"><ele>120.0</ele><time>2026-04-25T08:53:34.63Z</time></trkpt><trkpt lat="45.4839633" lon="9.35824"><ele>120.0</ele><time>2026-04-25T08:53:35.63Z</time></trkpt><trkpt lat="45.48396" lon="9.3581467"><ele>120.0</ele><time>2026-04-25T08:53:36.63Z</time></trkpt><trkpt lat="45.48396" lon="9.3580517"><ele>120.0</ele><time>2026-04-25T08:53:37.629Z</time></trkpt><trkpt lat="45.4839583" lon="9.3579533"><ele>120.0</ele><time>2026-04-25T08:53:38.63Z</time></trkpt><trkpt lat="45.483955" lon="9.3578567"><ele>120.0</ele><time>2026-04-25T08:53:39.63Z</time></trkpt><trkpt lat="45.483955" lon="9.3577567"><ele>120.0</ele><time>2026-04-25T08:53:40.629Z</time></trkpt><trkpt lat="45.4839533" lon="9.35766"><ele>120.0</ele><time>2026-04-25T08:53:41.631Z</time></trkpt><trkpt lat="45.483955" lon="9.3575683"><ele>120.0</ele><time>2026-04-25T08:53:42.63Z</time></trkpt><trkpt lat="45.483955" lon="9.357475"><ele>120.0</ele><time>2026-04-25T08:53:43.629Z</time></trkpt><trkpt lat="45.4839533" lon="9.3573817"><ele>120.0</ele><time>2026-04-25T08:53:44.629Z</time></trkpt><trkpt lat="45.48395" lon="9.3572883"><ele>120.0</ele><time>2026-04-25T08:53:45.629Z</time></trkpt><trkpt lat="45.4839483" lon="9.3571933"><ele>120.0</ele><time>2026-04-25T08:53:46.63Z</time></trkpt><trkpt lat="45.483945" lon="9.3571033"><ele>120.0</ele><time>2026-04-25T08:53:47.629Z</time></trkpt><trkpt lat="45.483945" lon="9.35701"><ele>120.0</ele><time>2026-04-25T08:53:48.632Z</time></trkpt><trkpt lat="45.4839433" lon="9.356915"><ele>120.0</ele><time>2026-04-25T08:53:49.631Z</time></trkpt><trkpt lat="45.4839417" lon="9.3568183"><ele>120.0</ele><time>2026-04-25T08:53:50.63Z</time></trkpt><trkpt lat="45.4839383" lon="9.356725"><ele>120.0</ele><time>2026-04-25T08:53:51.629Z</time></trkpt><trkpt lat="45.4839333" lon="9.35663"><ele>120.0</ele><time>2026-04-25T08:53:52.631Z</time></trkpt><trkpt lat="45.4839333" lon="9.3565333"><ele>120.0</ele><time>2026-04-25T08:53:53.631Z</time></trkpt><trkpt lat="45.4839333" lon="9.35644"><ele>120.0</ele><time>2026-04-25T08:53:54.63Z</time></trkpt><trkpt lat="45.4839333" lon="9.3563483"><ele>120.0</ele><time>2026-04-25T08:53:55.629Z</time></trkpt><trkpt lat="45.4839367" lon="9.3562567"><ele>120.0</ele><time>2026-04-25T08:53:56.63Z</time></trkpt><trkpt lat="45.4839383" lon="9.356155"><ele>120.0</ele><time>2026-04-25T08:53:57.631Z</time></trkpt><trkpt lat="45.4839417" lon="9.35606"><ele>120.0</ele><time>2026-04-25T08:53:58.629Z</time></trkpt><trkpt lat="45.4839417" lon="9.355965"><ele>120.0</ele><time>2026-04-25T08:53:59.628Z</time></trkpt><trkpt lat="45.48394" lon="9.35587"><ele>120.0</ele><time>2026-04-25T08:54:00.628Z</time></trkpt><trkpt lat="45.4839383" lon="9.3557717"><ele>120.0</ele><time>2026-04-25T08:54:01.629Z</time></trkpt><trkpt lat="45.483935" lon="9.3556733"><ele>120.0</ele><time>2026-04-25T08:54:02.632Z</time></trkpt><trkpt lat="45.4839333" lon="9.3555833"><ele>120.0</ele><time>2026-04-25T08:54:03.63Z</time></trkpt><trkpt lat="45.4839333" lon="9.3554867"><ele>120.0</ele><time>2026-04-25T08:54:04.629Z</time></trkpt><trkpt lat="45.4839333" lon="9.3553933"><ele>120.0</ele><time>2026-04-25T08:54:05.629Z</time></trkpt><trkpt lat="45.483935" lon="9.3553033"><ele>120.0</ele><time>2026-04-25T08:54:06.629Z</time></trkpt><trkpt lat="45.4839333" lon="9.35521"><ele>120.0</ele><time>2026-04-25T08:54:07.63Z</time></trkpt><trkpt lat="45.4839367" lon="9.3551133"><ele>120.0</ele><time>2026-04-25T08:54:08.631Z</time></trkpt><trkpt lat="45.4839417" lon="9.3550183"><ele>119.66666666666667</ele><time>2026-04-25T08:54:09.63Z</time></trkpt><trkpt lat="45.4839433" lon="9.35492"><ele>119.33333333333334</ele><time>2026-04-25T08:54:10.629Z</time></trkpt><trkpt lat="45.483945" lon="9.354825"><ele>119.0</ele><time>2026-04-25T08:54:11.631Z</time></trkpt><trkpt lat="45.4839467" lon="9.35473"><ele>118.66666666666667</ele><time>2026-04-25T08:54:12.63Z</time></trkpt><trkpt lat="45.4839533" lon="9.3545517"><ele>118.33333333333334</ele><time>2026-04-25T08:54:14.629Z</time></trkpt><trkpt lat="45.483955" lon="9.3544567"><ele>118.0</ele><time>2026-04-25T08:54:15.63Z</time></trkpt><trkpt lat="45.4839583" lon="9.3543617"><ele>117.83333333333334</ele><time>2026-04-25T08:54:16.634Z</time></trkpt><trkpt lat="45.4839617" lon="9.35427"><ele>117.66666666666667</ele><time>2026-04-25T08:54:17.634Z</time></trkpt><trkpt lat="45.4839633" lon="9.3541783"><ele>117.5</ele><time>2026-04-25T08:54:18.629Z</time></trkpt><trkpt lat="45.483965" lon="9.3540883"><ele>117.33333333333334</ele><time>2026-04-25T08:54:19.63Z</time></trkpt><trkpt lat="45.4839683" lon="9.3539183"><ele>117.16666666666667</ele><time>2026-04-25T08:54:21.632Z</time></trkpt><trkpt lat="45.4839733" lon="9.3537517"><ele>117.0</ele><time>2026-04-25T08:54:23.63Z</time></trkpt><trkpt lat="45.4839783" lon="9.3535917"><ele>117.0</ele><time>2026-04-25T08:54:25.63Z</time></trkpt><trkpt lat="45.48398" lon="9.3534433"><ele>116.99999999999999</ele><time>2026-04-25T08:54:27.631Z</time></trkpt><trkpt lat="45.4839867" lon="9.3533017"><ele>116.99999999999999</ele><time>2026-04-25T08:54:29.63Z</time></trkpt><trkpt lat="45.48399" lon="9.35318"><ele>117.0</ele><time>2026-04-25T08:54:31.629Z</time></trkpt><trkpt lat="45.48399" lon="9.3530633"><ele>117.0</ele><time>2026-04-25T08:54:33.63Z</time></trkpt><trkpt lat="45.4839867" lon="9.3529433"><ele>117.19999999999999</ele><time>2026-04-25T08:54:35.631Z</time></trkpt><trkpt lat="45.4839783" lon="9.3528317"><ele>117.39999999999999</ele><time>2026-04-25T08:54:37.632Z</time></trkpt><trkpt lat="45.4839617" lon="9.3527033"><ele>117.60000000000001</ele><time>2026-04-25T08:54:39.63Z</time></trkpt><trkpt lat="45.4839267" lon="9.35259"><ele>117.80000000000001</ele><time>2026-04-25T08:54:41.631Z</time></trkpt><trkpt lat="45.483875" lon="9.3524717"><ele>118.0</ele><time>2026-04-25T08:54:43.63Z</time></trkpt><trkpt lat="45.4838483" lon="9.35233"><ele>118.4</ele><time>2026-04-25T08:54:45.628Z</time></trkpt><trkpt lat="45.4838517" lon="9.3521833"><ele>118.80000000000001</ele><time>2026-04-25T08:54:47.63Z</time></trkpt><trkpt lat="45.4838367" lon="9.3520333"><ele>119.2</ele><time>2026-04-25T08:54:49.629Z</time></trkpt><trkpt lat="45.4838" lon="9.3518617"><ele>119.6</ele><time>2026-04-25T08:54:51.629Z</time></trkpt><trkpt lat="45.4837767" lon="9.3517633"><ele>120.0</ele><time>2026-04-25T08:54:52.63Z</time></trkpt><trkpt lat="45.4837533" lon="9.3516633"><ele>119.4</ele><time>2026-04-25T08:54:53.63Z</time></trkpt><trkpt lat="45.483725" lon="9.3515533"><ele>118.8</ele><time>2026-04-25T08:54:54.63Z</time></trkpt><trkpt lat="45.4836967" lon="9.3514367"><ele>118.19999999999999</ele><time>2026-04-25T08:54:55.631Z</time></trkpt><trkpt lat="45.4836683" lon="9.3513117"><ele>117.6</ele><time>2026-04-25T08:54:56.63Z</time></trkpt><trkpt lat="45.48364" lon="9.3511817"><ele>117.0</ele><time>2026-04-25T08:54:57.63Z</time></trkpt><trkpt lat="45.483615" lon="9.3510533"><ele>117.0</ele><time>2026-04-25T08:54:58.63Z</time></trkpt><trkpt lat="45.483595" lon="9.35093"><ele>117.0</ele><time>2026-04-25T08:54:59.629Z</time></trkpt><trkpt lat="45.483585" lon="9.3508167"><ele>117.0</ele><time>2026-04-25T08:55:00.632Z</time></trkpt><trkpt lat="45.483585" lon="9.3507067"><ele>117.0</ele><time>2026-04-25T08:55:01.63Z</time></trkpt><trkpt lat="45.48358" lon="9.3506033"><ele>117.0</ele><time>2026-04-25T08:55:02.63Z</time></trkpt><trkpt lat="45.4835633" lon="9.3505083"><ele>117.0</ele><time>2026-04-25T08:55:03.631Z</time></trkpt><trkpt lat="45.48353" lon="9.3503433"><ele>116.6</ele><time>2026-04-25T08:55:05.631Z</time></trkpt><trkpt lat="45.483495" lon="9.3501817"><ele>116.19999999999999</ele><time>2026-04-25T08:55:07.628Z</time></trkpt><trkpt lat="45.4834267" lon="9.3500717"><ele>115.8</ele><time>2026-04-25T08:55:09.629Z</time></trkpt><trkpt lat="45.4833867" lon="9.3499733"><ele>115.4</ele><time>2026-04-25T08:55:11.631Z</time></trkpt><trkpt lat="45.4833617" lon="9.3498717"><ele>115.0</ele><time>2026-04-25T08:55:13.63Z</time></trkpt><trkpt lat="45.48333" lon="9.3497467"><ele>115.0</ele><time>2026-04-25T08:55:15.629Z</time></trkpt><trkpt lat="45.48329" lon="9.3496167"><ele>115.0</ele><time>2026-04-25T08:55:17.631Z</time></trkpt><trkpt lat="45.48326" lon="9.349475"><ele>115.0</ele><time>2026-04-25T08:55:19.63Z</time></trkpt><trkpt lat="45.48323" lon="9.349335"><ele>115.0</ele><time>2026-04-25T08:55:21.632Z</time></trkpt><trkpt lat="45.4831983" lon="9.349195"><ele>115.0</ele><time>2026-04-25T08:55:23.63Z</time></trkpt><trkpt lat="45.4831717" lon="9.3490683"><ele>115.0</ele><time>2026-04-25T08:55:25.63Z</time></trkpt><trkpt lat="45.4831433" lon="9.348945"><ele>115.0</ele><time>2026-04-25T08:55:27.63Z</time></trkpt><trkpt lat="45.4831167" lon="9.3488183"><ele>115.0</ele><time>2026-04-25T08:55:29.631Z</time></trkpt><trkpt lat="45.4830867" lon="9.348685"><ele>115.0</ele><time>2026-04-25T08:55:31.632Z</time></trkpt><trkpt lat="45.4830583" lon="9.34856"><ele>115.0</ele><time>2026-04-25T08:55:33.631Z</time></trkpt><trkpt lat="45.4830267" lon="9.3484283"><ele>115.0</ele><time>2026-04-25T08:55:35.631Z</time></trkpt><trkpt lat="45.4829933" lon="9.3482967"><ele>115.0</ele><time>2026-04-25T08:55:37.63Z</time></trkpt><trkpt lat="45.4829633" lon="9.3481633"><ele>115.0</ele><time>2026-04-25T08:55:39.629Z</time></trkpt><trkpt lat="45.4829283" lon="9.3480283"><ele>115.0</ele><time>2026-04-25T08:55:41.63Z</time></trkpt><trkpt lat="45.4828883" lon="9.347885"><ele>115.0</ele><time>2026-04-25T08:55:43.631Z</time></trkpt><trkpt lat="45.4828517" lon="9.3477433"><ele>114.75</ele><time>2026-04-25T08:55:45.631Z</time></trkpt><trkpt lat="45.4828167" lon="9.3475967"><ele>114.5</ele><time>2026-04-25T08:55:47.631Z</time></trkpt><trkpt lat="45.482775" lon="9.3474517"><ele>114.25</ele><time>2026-04-25T08:55:49.63Z</time></trkpt><trkpt lat="45.4827333" lon="9.3473"><ele>114.0</ele><time>2026-04-25T08:55:51.629Z</time></trkpt><trkpt lat="45.4826867" lon="9.3471417"><ele>114.0</ele><time>2026-04-25T08:55:53.631Z</time></trkpt><trkpt lat="45.4826467" lon="9.347"><ele>114.0</ele><time>2026-04-25T08:55:55.63Z</time></trkpt><trkpt lat="45.48261" lon="9.3468683"><ele>114.0</ele><time>2026-04-25T08:55:57.63Z</time></trkpt><trkpt lat="45.482565" lon="9.3467333"><ele>114.0</ele><time>2026-04-25T08:55:59.631Z</time></trkpt><trkpt lat="45.4825217" lon="9.3465883"><ele>114.0</ele><time>2026-04-25T08:56:01.63Z</time></trkpt><trkpt lat="45.4824817" lon="9.34644"><ele>114.25</ele><time>2026-04-25T08:56:03.629Z</time></trkpt><trkpt lat="45.4824367" lon="9.3463"><ele>114.5</ele><time>2026-04-25T08:56:05.629Z</time></trkpt><trkpt lat="45.4823933" lon="9.3461533"><ele>114.75</ele><time>2026-04-25T08:56:07.63Z</time></trkpt><trkpt lat="45.4823467" lon="9.3460033"><ele>115.0</ele><time>2026-04-25T08:56:09.63Z</time></trkpt><trkpt lat="45.4822983" lon="9.3458417"><ele>115.0</ele><time>2026-04-25T08:56:11.632Z</time></trkpt><trkpt lat="45.48225" lon="9.345675"><ele>115.0</ele><time>2026-04-25T08:56:13.632Z</time></trkpt><trkpt lat="45.482205" lon="9.3455183"><ele>115.0</ele><time>2026-04-25T08:56:15.632Z</time></trkpt><trkpt lat="45.4821633" lon="9.3453617"><ele>115.0</ele><time>2026-04-25T08:56:17.629Z</time></trkpt><trkpt lat="45.4821217" lon="9.345195"><ele>115.14285714285712</ele><time>2026-04-25T08:56:19.631Z</time></trkpt><trkpt lat="45.4821083" lon="9.3451033"><ele>115.28571428571428</ele><time>2026-04-25T08:56:20.631Z</time></trkpt><trkpt lat="45.482115" lon="9.3450117"><ele>115.42857142857143</ele><time>2026-04-25T08:56:21.633Z</time></trkpt><trkpt lat="45.482135" lon="9.3449233"><ele>115.57142857142857</ele><time>2026-04-25T08:56:22.629Z</time></trkpt><trkpt lat="45.48217" lon="9.3448417"><ele>115.71428571428572</ele><time>2026-04-25T08:56:23.631Z</time></trkpt><trkpt lat="45.4822167" lon="9.3447767"><ele>115.85714285714288</ele><time>2026-04-25T08:56:24.63Z</time></trkpt><trkpt lat="45.4823083" lon="9.3446817"><ele>116.00000000000001</ele><time>2026-04-25T08:56:26.632Z</time></trkpt><trkpt lat="45.482415" lon="9.344605"><ele>116.19999999999999</ele><time>2026-04-25T08:56:28.629Z</time></trkpt><trkpt lat="45.4824767" lon="9.3445833"><ele>116.39999999999999</ele><time>2026-04-25T08:56:29.631Z</time></trkpt><trkpt lat="45.4825967" lon="9.3445433"><ele>116.6</ele><time>2026-04-25T08:56:31.63Z</time></trkpt><trkpt lat="45.4827133" lon="9.344505"><ele>116.8</ele><time>2026-04-25T08:56:33.628Z</time></trkpt><trkpt lat="45.482825" lon="9.34446"><ele>117.0</ele><time>2026-04-25T08:56:35.629Z</time></trkpt><trkpt lat="45.4829233" lon="9.3444"><ele>116.8</ele><time>2026-04-25T08:56:37.631Z</time></trkpt><trkpt lat="45.48302" lon="9.3443433"><ele>116.6</ele><time>2026-04-25T08:56:39.631Z</time></trkpt><trkpt lat="45.48311" lon="9.3442683"><ele>116.39999999999999</ele><time>2026-04-25T08:56:41.63Z</time></trkpt><trkpt lat="45.48318" lon="9.3441633"><ele>116.19999999999999</ele><time>2026-04-25T08:56:43.63Z</time></trkpt><trkpt lat="45.4832183" lon="9.344015"><ele>116.0</ele><time>2026-04-25T08:56:45.631Z</time></trkpt><trkpt lat="45.4832417" lon="9.3438467"><ele>115.99999999999999</ele><time>2026-04-25T08:56:47.629Z</time></trkpt><trkpt lat="45.4832483" lon="9.3437533"><ele>116.0</ele><time>2026-04-25T08:56:48.63Z</time></trkpt><trkpt lat="45.4832533" lon="9.3436633"><ele>116.0</ele><time>2026-04-25T08:56:49.629Z</time></trkpt><trkpt lat="45.4832633" lon="9.3435717"><ele>116.0</ele><time>2026-04-25T08:56:50.63Z</time></trkpt><trkpt lat="45.483275" lon="9.3433833"><ele>115.99999999999999</ele><time>2026-04-25T08:56:52.628Z</time></trkpt><trkpt lat="45.483275" lon="9.34329"><ele>116.0</ele><time>2026-04-25T08:56:53.629Z</time></trkpt><trkpt lat="45.4832717" lon="9.3432"><ele>116.0</ele><time>2026-04-25T08:56:54.633Z</time></trkpt><trkpt lat="45.4832733" lon="9.3431083"><ele>116.0</ele><time>2026-04-25T08:56:55.629Z</time></trkpt><trkpt lat="45.483275" lon="9.343015"><ele>116.0</ele><time>2026-04-25T08:56:56.631Z</time></trkpt><trkpt lat="45.4832767" lon="9.3428467"><ele>116.0</ele><time>2026-04-25T08:56:58.63Z</time></trkpt><trkpt lat="45.4832633" lon="9.3426917"><ele>116.0</ele><time>2026-04-25T08:57:00.63Z</time></trkpt><trkpt lat="45.483255" lon="9.3425267"><ele>116.0</ele><time>2026-04-25T08:57:02.63Z</time></trkpt><trkpt lat="45.483245" lon="9.3423633"><ele>116.0</ele><time>2026-04-25T08:57:04.63Z</time></trkpt><trkpt lat="45.4832367" lon="9.3422083"><ele>116.0</ele><time>2026-04-25T08:57:06.629Z</time></trkpt><trkpt lat="45.4832117" lon="9.3420383"><ele>116.0</ele><time>2026-04-25T08:57:08.628Z</time></trkpt><trkpt lat="45.4832033" lon="9.3419483"><ele>116.0</ele><time>2026-04-25T08:57:09.63Z</time></trkpt><trkpt lat="45.4831933" lon="9.3418517"><ele>116.00000000000001</ele><time>2026-04-25T08:57:10.63Z</time></trkpt><trkpt lat="45.483185" lon="9.3417533"><ele>116.0</ele><time>2026-04-25T08:57:11.63Z</time></trkpt><trkpt lat="45.483175" lon="9.341655"><ele>116.00000000000001</ele><time>2026-04-25T08:57:12.63Z</time></trkpt><trkpt lat="45.4831667" lon="9.3415567"><ele>116.00000000000001</ele><time>2026-04-25T08:57:13.629Z</time></trkpt><trkpt lat="45.4831633" lon="9.3414583"><ele>116.0</ele><time>2026-04-25T08:57:14.63Z</time></trkpt><trkpt lat="45.4831617" lon="9.341365"><ele>116.00000000000001</ele><time>2026-04-25T08:57:15.63Z</time></trkpt><trkpt lat="45.483165" lon="9.341275"><ele>116.00000000000001</ele><time>2026-04-25T08:57:16.628Z</time></trkpt><trkpt lat="45.4831683" lon="9.3411833"><ele>115.99999999999999</ele><time>2026-04-25T08:57:17.631Z</time></trkpt><trkpt lat="45.4831717" lon="9.3410067"><ele>116.0</ele><time>2026-04-25T08:57:19.629Z</time></trkpt><trkpt lat="45.4831667" lon="9.3408433"><ele>116.0</ele><time>2026-04-25T08:57:21.631Z</time></trkpt><trkpt lat="45.4831633" lon="9.3407483"><ele>116.0</ele><time>2026-04-25T08:57:22.63Z</time></trkpt><trkpt lat="45.4831583" lon="9.340655"><ele>115.99999999999999</ele><time>2026-04-25T08:57:23.629Z</time></trkpt><trkpt lat="45.4831517" lon="9.3405617"><ele>116.0</ele><time>2026-04-25T08:57:24.629Z</time></trkpt><trkpt lat="45.4831467" lon="9.34047"><ele>116.00000000000001</ele><time>2026-04-25T08:57:25.629Z</time></trkpt><trkpt lat="45.483145" lon="9.340375"><ele>116.0</ele><time>2026-04-25T08:57:26.63Z</time></trkpt><trkpt lat="45.483145" lon="9.3402783"><ele>116.00000000000001</ele><time>2026-04-25T08:57:27.629Z</time></trkpt><trkpt lat="45.483145" lon="9.3401817"><ele>116.00000000000001</ele><time>2026-04-25T08:57:28.629Z</time></trkpt><trkpt lat="45.483145" lon="9.3400867"><ele>116.0</ele><time>2026-04-25T08:57:29.63Z</time></trkpt><trkpt lat="45.483145" lon="9.3399917"><ele>116.00000000000001</ele><time>2026-04-25T08:57:30.629Z</time></trkpt><trkpt lat="45.4831483" lon="9.339895"><ele>116.00000000000001</ele><time>2026-04-25T08:57:31.629Z</time></trkpt><trkpt lat="45.4831517" lon="9.3397883"><ele>116.16666666666666</ele><time>2026-04-25T08:57:32.631Z</time></trkpt><trkpt lat="45.4831583" lon="9.3396817"><ele>116.33333333333333</ele><time>2026-04-25T08:57:33.629Z</time></trkpt><trkpt lat="45.4831633" lon="9.3395733"><ele>116.5</ele><time>2026-04-25T08:57:34.628Z</time></trkpt><trkpt lat="45.48317" lon="9.3394767"><ele>116.66666666666666</ele><time>2026-04-25T08:57:35.631Z</time></trkpt><trkpt lat="45.48318" lon="9.3393833"><ele>116.83333333333333</ele><time>2026-04-25T08:57:36.629Z</time></trkpt><trkpt lat="45.4831867" lon="9.3392933"><ele>117.0</ele><time>2026-04-25T08:57:37.629Z</time></trkpt><trkpt lat="45.4831883" lon="9.3391167"><ele>117.0</ele><time>2026-04-25T08:57:39.629Z</time></trkpt><trkpt lat="45.4831767" lon="9.3389433"><ele>116.99999999999999</ele><time>2026-04-25T08:57:41.629Z</time></trkpt><trkpt lat="45.4831733" lon="9.3388533"><ele>116.99999999999999</ele><time>2026-04-25T08:57:42.632Z</time></trkpt><trkpt lat="45.4831667" lon="9.3387617"><ele>117.0</ele><time>2026-04-25T08:57:43.629Z</time></trkpt><trkpt lat="45.4831533" lon="9.338605"><ele>117.0</ele><time>2026-04-25T08:57:45.628Z</time></trkpt><trkpt lat="45.483145" lon="9.3384417"><ele>117.0</ele><time>2026-04-25T08:57:47.629Z</time></trkpt><trkpt lat="45.4831417" lon="9.3383517"><ele>117.00000000000001</ele><time>2026-04-25T08:57:48.63Z</time></trkpt><trkpt lat="45.4831333" lon="9.338175"><ele>117.0</ele><time>2026-04-25T08:57:50.63Z</time></trkpt><trkpt lat="45.4831267" lon="9.3380833"><ele>117.0</ele><time>2026-04-25T08:57:51.629Z</time></trkpt><trkpt lat="45.4831217" lon="9.3379867"><ele>117.00000000000001</ele><time>2026-04-25T08:57:52.63Z</time></trkpt><trkpt lat="45.4831133" lon="9.3378967"><ele>117.0</ele><time>2026-04-25T08:57:53.63Z</time></trkpt><trkpt lat="45.4831117" lon="9.3378033"><ele>117.0</ele><time>2026-04-25T08:57:54.631Z</time></trkpt><trkpt lat="45.4831067" lon="9.3376333"><ele>117.0</ele><time>2026-04-25T08:57:56.631Z</time></trkpt><trkpt lat="45.4831083" lon="9.3374783"><ele>116.99999999999999</ele><time>2026-04-25T08:57:58.63Z</time></trkpt><trkpt lat="45.483105" lon="9.3373317"><ele>116.99999999999999</ele><time>2026-04-25T08:58:00.629Z</time></trkpt><trkpt lat="45.4831033" lon="9.3371883"><ele>117.0</ele><time>2026-04-25T08:58:02.633Z</time></trkpt><trkpt lat="45.483105" lon="9.3370417"><ele>117.0</ele><time>2026-04-25T08:58:04.63Z</time></trkpt><trkpt lat="45.4831" lon="9.3368767"><ele>117.0</ele><time>2026-04-25T08:58:06.629Z</time></trkpt><trkpt lat="45.4830833" lon="9.3367083"><ele>117.0</ele><time>2026-04-25T08:58:08.631Z</time></trkpt><trkpt lat="45.4830733" lon="9.336615"><ele>117.0</ele><time>2026-04-25T08:58:09.63Z</time></trkpt><trkpt lat="45.4830633" lon="9.33652"><ele>117.0</ele><time>2026-04-25T08:58:10.629Z</time></trkpt><trkpt lat="45.483055" lon="9.3364267"><ele>117.0</ele><time>2026-04-25T08:58:11.629Z</time></trkpt><trkpt lat="45.48304" lon="9.3362567"><ele>117.0</ele><time>2026-04-25T08:58:13.631Z</time></trkpt><trkpt lat="45.4830333" lon="9.3361667"><ele>117.0</ele><time>2026-04-25T08:58:14.633Z</time></trkpt><trkpt lat="45.483025" lon="9.3359883"><ele>116.99999999999999</ele><time>2026-04-25T08:58:16.629Z</time></trkpt><trkpt lat="45.4830133" lon="9.3358067"><ele>116.99999999999999</ele><time>2026-04-25T08:58:18.63Z</time></trkpt><trkpt lat="45.4830083" lon="9.3356217"><ele>117.0</ele><time>2026-04-25T08:58:20.63Z</time></trkpt><trkpt lat="45.4830067" lon="9.3355317"><ele>117.0</ele><time>2026-04-25T08:58:21.631Z</time></trkpt><trkpt lat="45.48301" lon="9.3354383"><ele>117.16666666666667</ele><time>2026-04-25T08:58:22.629Z</time></trkpt><trkpt lat="45.4830117" lon="9.3353483"><ele>117.33333333333334</ele><time>2026-04-25T08:58:23.63Z</time></trkpt><trkpt lat="45.4830067" lon="9.3351733"><ele>117.5</ele><time>2026-04-25T08:58:25.63Z</time></trkpt><trkpt lat="45.4830033" lon="9.33508"><ele>117.66666666666667</ele><time>2026-04-25T08:58:26.635Z</time></trkpt><trkpt lat="45.4830033" lon="9.3349867"><ele>117.83333333333334</ele><time>2026-04-25T08:58:27.63Z</time></trkpt><trkpt lat="45.4830017" lon="9.3348967"><ele>118.0</ele><time>2026-04-25T08:58:28.629Z</time></trkpt><trkpt lat="45.483" lon="9.33473"><ele>117.75</ele><time>2026-04-25T08:58:30.63Z</time></trkpt><trkpt lat="45.483025" lon="9.334565"><ele>117.5</ele><time>2026-04-25T08:58:32.63Z</time></trkpt><trkpt lat="45.4830933" lon="9.3344217"><ele>117.25</ele><time>2026-04-25T08:58:34.63Z</time></trkpt><trkpt lat="45.48319" lon="9.3343067"><ele>117.0</ele><time>2026-04-25T08:58:36.629Z</time></trkpt><trkpt lat="45.483295" lon="9.33421"><ele>117.0</ele><time>2026-04-25T08:58:38.629Z</time></trkpt><trkpt lat="45.483375" lon="9.33409"><ele>117.0</ele><time>2026-04-25T08:58:40.63Z</time></trkpt><trkpt lat="45.4834" lon="9.333925"><ele>117.0</ele><time>2026-04-25T08:58:42.63Z</time></trkpt><trkpt lat="45.48338" lon="9.3337633"><ele>117.0</ele><time>2026-04-25T08:58:44.63Z</time></trkpt><trkpt lat="45.48336" lon="9.3336133"><ele>117.0</ele><time>2026-04-25T08:58:46.63Z</time></trkpt><trkpt lat="45.4833467" lon="9.3334633"><ele>116.99999999999999</ele><time>2026-04-25T08:58:48.632Z</time></trkpt><trkpt lat="45.4833317" lon="9.3333183"><ele>116.99999999999999</ele><time>2026-04-25T08:58:50.631Z</time></trkpt><trkpt lat="45.4833333" lon="9.3331817"><ele>117.0</ele><time>2026-04-25T08:58:52.631Z</time></trkpt><trkpt lat="45.4833533" lon="9.3330383"><ele>117.0</ele><time>2026-04-25T08:58:54.631Z</time></trkpt><trkpt lat="45.4834117" lon="9.3329"><ele>117.0</ele><time>2026-04-25T08:58:56.634Z</time></trkpt><trkpt lat="45.4835017" lon="9.3327867"><ele>117.0</ele><time>2026-04-25T08:58:58.63Z</time></trkpt><trkpt lat="45.4836083" lon="9.3327067"><ele>117.0</ele><time>2026-04-25T08:59:00.629Z</time></trkpt><trkpt lat="45.4836683" lon="9.3326767"><ele>117.0</ele><time>2026-04-25T08:59:01.629Z</time></trkpt><trkpt lat="45.4837317" lon="9.33265"><ele>117.0</ele><time>2026-04-25T08:59:02.633Z</time></trkpt><trkpt lat="45.483795" lon="9.332625"><ele>117.0</ele><time>2026-04-25T08:59:03.63Z</time></trkpt><trkpt lat="45.4839117" lon="9.33258"><ele>116.66666666666667</ele><time>2026-04-25T08:59:05.629Z</time></trkpt><trkpt lat="45.4840283" lon="9.33253"><ele>116.33333333333334</ele><time>2026-04-25T08:59:07.629Z</time></trkpt><trkpt lat="45.48409" lon="9.3325067"><ele>116.0</ele><time>2026-04-25T08:59:08.63Z</time></trkpt><trkpt lat="45.4842067" lon="9.33247"><ele>115.66666666666667</ele><time>2026-04-25T08:59:10.63Z</time></trkpt><trkpt lat="45.48427" lon="9.3324467"><ele>115.33333333333334</ele><time>2026-04-25T08:59:11.63Z</time></trkpt><trkpt lat="45.4843317" lon="9.3324217"><ele>115.0</ele><time>2026-04-25T08:59:12.63Z</time></trkpt><trkpt lat="45.4844517" lon="9.332385"><ele>115.0</ele><time>2026-04-25T08:59:14.633Z</time></trkpt><trkpt lat="45.48457" lon="9.33236"><ele>115.0</ele><time>2026-04-25T08:59:16.629Z</time></trkpt><trkpt lat="45.48469" lon="9.332335"><ele>115.0</ele><time>2026-04-25T08:59:18.631Z</time></trkpt><trkpt lat="45.4848133" lon="9.332315"><ele>115.0</ele><time>2026-04-25T08:59:20.632Z</time></trkpt><trkpt lat="45.4848767" lon="9.33231"><ele>115.0</ele><time>2026-04-25T08:59:21.631Z</time></trkpt><trkpt lat="45.484995" lon="9.3322983"><ele>115.6</ele><time>2026-04-25T08:59:23.63Z</time></trkpt><trkpt lat="45.485115" lon="9.3322883"><ele>116.2</ele><time>2026-04-25T08:59:25.63Z</time></trkpt><trkpt lat="45.4852367" lon="9.33227"><ele>116.80000000000001</ele><time>2026-04-25T08:59:27.63Z</time></trkpt><trkpt lat="45.4853067" lon="9.3322633"><ele>117.4</ele><time>2026-04-25T08:59:28.632Z</time></trkpt><trkpt lat="45.4853717" lon="9.3322617"><ele>118.0</ele><time>2026-04-25T08:59:29.63Z</time></trkpt><trkpt lat="45.4855" lon="9.332255"><ele>118.0</ele><time>2026-04-25T08:59:31.629Z</time></trkpt><trkpt lat="45.4855633" lon="9.3322483"><ele>118.0</ele><time>2026-04-25T08:59:32.63Z</time></trkpt><trkpt lat="45.4856267" lon="9.3322417"><ele>118.0</ele><time>2026-04-25T08:59:33.63Z</time></trkpt><trkpt lat="45.48569" lon="9.332235"><ele>118.0</ele><time>2026-04-25T08:59:34.628Z</time></trkpt><trkpt lat="45.4858117" lon="9.332225"><ele>118.0</ele><time>2026-04-25T08:59:36.629Z</time></trkpt><trkpt lat="45.485875" lon="9.33222"><ele>118.0</ele><time>2026-04-25T08:59:37.629Z</time></trkpt><trkpt lat="45.4859383" lon="9.3322117"><ele>118.0</ele><time>2026-04-25T08:59:38.63Z</time></trkpt><trkpt lat="45.4860583" lon="9.332195"><ele>118.16666666666667</ele><time>2026-04-25T08:59:40.631Z</time></trkpt><trkpt lat="45.486185" lon="9.33218"><ele>118.33333333333334</ele><time>2026-04-25T08:59:42.63Z</time></trkpt><trkpt lat="45.4862533" lon="9.33217"><ele>118.5</ele><time>2026-04-25T08:59:43.63Z</time></trkpt><trkpt lat="45.48632" lon="9.33217"><ele>118.66666666666666</ele><time>2026-04-25T08:59:44.629Z</time></trkpt><trkpt lat="45.48644" lon="9.3321617"><ele>118.83333333333333</ele><time>2026-04-25T08:59:46.63Z</time></trkpt><trkpt lat="45.4865033" lon="9.332155"><ele>119.0</ele><time>2026-04-25T08:59:47.63Z</time></trkpt><trkpt lat="45.4865667" lon="9.3321517"><ele>118.71428571428572</ele><time>2026-04-25T08:59:48.631Z</time></trkpt><trkpt lat="45.4866333" lon="9.3321483"><ele>118.42857142857143</ele><time>2026-04-25T08:59:49.629Z</time></trkpt><trkpt lat="45.4867" lon="9.33214"><ele>118.14285714285714</ele><time>2026-04-25T08:59:50.631Z</time></trkpt><trkpt lat="45.4867683" lon="9.332135"><ele>117.85714285714286</ele><time>2026-04-25T08:59:51.632Z</time></trkpt><trkpt lat="45.48684" lon="9.3321283"><ele>117.57142857142858</ele><time>2026-04-25T08:59:52.631Z</time></trkpt><trkpt lat="45.4869133" lon="9.3321233"><ele>117.28571428571429</ele><time>2026-04-25T08:59:53.629Z</time></trkpt><trkpt lat="45.4869883" lon="9.332115"><ele>117.0</ele><time>2026-04-25T08:59:54.632Z</time></trkpt><trkpt lat="45.487065" lon="9.332105"><ele>116.83333333333333</ele><time>2026-04-25T08:59:55.632Z</time></trkpt><trkpt lat="45.487145" lon="9.3320967"><ele>116.66666666666666</ele><time>2026-04-25T08:59:56.63Z</time></trkpt><trkpt lat="45.4872267" lon="9.3320883"><ele>116.5</ele><time>2026-04-25T08:59:57.632Z</time></trkpt><trkpt lat="45.4873117" lon="9.3320783"><ele>116.33333333333333</ele><time>2026-04-25T08:59:58.631Z</time></trkpt><trkpt lat="45.4873983" lon="9.33207"><ele>116.16666666666666</ele><time>2026-04-25T08:59:59.629Z</time></trkpt><trkpt lat="45.4874883" lon="9.3320633"><ele>116.0</ele><time>2026-04-25T09:00:00.631Z</time></trkpt><trkpt lat="45.4875783" lon="9.3320583"><ele>116.0</ele><time>2026-04-25T09:00:01.631Z</time></trkpt><trkpt lat="45.48767" lon="9.3320517"><ele>116.0</ele><time>2026-04-25T09:00:02.631Z</time></trkpt><trkpt lat="45.4877617" lon="9.332045"><ele>116.0</ele><time>2026-04-25T09:00:03.631Z</time></trkpt><trkpt lat="45.4878567" lon="9.3320383"><ele>116.0</ele><time>2026-04-25T09:00:04.63Z</time></trkpt><trkpt lat="45.48795" lon="9.33203"><ele>116.0</ele><time>2026-04-25T09:00:05.63Z</time></trkpt><trkpt lat="45.4880433" lon="9.3320233"><ele>116.19999999999999</ele><time>2026-04-25T09:00:06.63Z</time></trkpt><trkpt lat="45.4881417" lon="9.3320133"><ele>116.39999999999999</ele><time>2026-04-25T09:00:07.631Z</time></trkpt><trkpt lat="45.4882383" lon="9.3320083"><ele>116.6</ele><time>2026-04-25T09:00:08.633Z</time></trkpt><trkpt lat="45.4883367" lon="9.3320033"><ele>116.8</ele><time>2026-04-25T09:00:09.629Z</time></trkpt><trkpt lat="45.488435" lon="9.3319967"><ele>117.0</ele><time>2026-04-25T09:00:10.631Z</time></trkpt><trkpt lat="45.4885333" lon="9.331995"><ele>117.0</ele><time>2026-04-25T09:00:11.628Z</time></trkpt><trkpt lat="45.4886333" lon="9.3319917"><ele>116.99999999999999</ele><time>2026-04-25T09:00:12.63Z</time></trkpt><trkpt lat="45.48873" lon="9.3319967"><ele>116.99999999999999</ele><time>2026-04-25T09:00:13.629Z</time></trkpt><trkpt lat="45.48883" lon="9.3320083"><ele>117.0</ele><time>2026-04-25T09:00:14.63Z</time></trkpt><trkpt lat="45.48893" lon="9.3320267"><ele>117.0</ele><time>2026-04-25T09:00:15.628Z</time></trkpt><trkpt lat="45.4890283" lon="9.3320567"><ele>117.0</ele><time>2026-04-25T09:00:16.631Z</time></trkpt><trkpt lat="45.489125" lon="9.332095"><ele>116.99999999999999</ele><time>2026-04-25T09:00:17.63Z</time></trkpt><trkpt lat="45.4892183" lon="9.3321433"><ele>116.99999999999999</ele><time>2026-04-25T09:00:18.63Z</time></trkpt><trkpt lat="45.48931" lon="9.3322"><ele>117.0</ele><time>2026-04-25T09:00:19.629Z</time></trkpt><trkpt lat="45.4893933" lon="9.3322633"><ele>117.0</ele><time>2026-04-25T09:00:20.631Z</time></trkpt><trkpt lat="45.4894733" lon="9.33233"><ele>117.0</ele><time>2026-04-25T09:00:21.629Z</time></trkpt><trkpt lat="45.4895533" lon="9.3323983"><ele>117.0</ele><time>2026-04-25T09:00:22.633Z</time></trkpt><trkpt lat="45.4896283" lon="9.3324667"><ele>117.0</ele><time>2026-04-25T09:00:23.63Z</time></trkpt><trkpt lat="45.4897017" lon="9.3325333"><ele>117.0</ele><time>2026-04-25T09:00:24.629Z</time></trkpt><trkpt lat="45.48977" lon="9.3326083"><ele>117.0</ele><time>2026-04-25T09:00:25.629Z</time></trkpt><trkpt lat="45.4898267" lon="9.332695"><ele>117.0</ele><time>2026-04-25T09:00:26.63Z</time></trkpt><trkpt lat="45.489875" lon="9.3327917"><ele>116.66666666666667</ele><time>2026-04-25T09:00:27.629Z</time></trkpt><trkpt lat="45.489915" lon="9.3328933"><ele>116.33333333333334</ele><time>2026-04-25T09:00:28.628Z</time></trkpt><trkpt lat="45.489955" lon="9.3329933"><ele>116.0</ele><time>2026-04-25T09:00:29.631Z</time></trkpt><trkpt lat="45.490005" lon="9.3330783"><ele>115.66666666666667</ele><time>2026-04-25T09:00:30.634Z</time></trkpt><trkpt lat="45.49007" lon="9.33313"><ele>115.33333333333334</ele><time>2026-04-25T09:00:31.629Z</time></trkpt><trkpt lat="45.4901433" lon="9.333145"><ele>115.0</ele><time>2026-04-25T09:00:32.629Z</time></trkpt><trkpt lat="45.490215" lon="9.3331117"><ele>114.99999999999999</ele><time>2026-04-25T09:00:33.631Z</time></trkpt><trkpt lat="45.49028" lon="9.3330567"><ele>115.0</ele><time>2026-04-25T09:00:34.632Z</time></trkpt><trkpt lat="45.4903317" lon="9.3329817"><ele>114.99999999999999</ele><time>2026-04-25T09:00:35.628Z</time></trkpt><trkpt lat="45.4903683" lon="9.332895"><ele>114.99999999999999</ele><time>2026-04-25T09:00:36.634Z</time></trkpt><trkpt lat="45.49038" lon="9.3327967"><ele>115.0</ele><time>2026-04-25T09:00:37.63Z</time></trkpt><trkpt lat="45.4903717" lon="9.3326967"><ele>114.99999999999999</ele><time>2026-04-25T09:00:38.628Z</time></trkpt><trkpt lat="45.4903417" lon="9.332605"><ele>114.99999999999999</ele><time>2026-04-25T09:00:39.634Z</time></trkpt><trkpt lat="45.4903017" lon="9.33252"><ele>114.99999999999999</ele><time>2026-04-25T09:00:40.631Z</time></trkpt><trkpt lat="45.4902483" lon="9.3324433"><ele>115.0</ele><time>2026-04-25T09:00:41.63Z</time></trkpt><trkpt lat="45.4901917" lon="9.3323833"><ele>114.99999999999999</ele><time>2026-04-25T09:00:42.632Z</time></trkpt><trkpt lat="45.4901283" lon="9.3323133"><ele>114.99999999999999</ele><time>2026-04-25T09:00:43.629Z</time></trkpt><trkpt lat="45.4900833" lon="9.3322333"><ele>115.0</ele><time>2026-04-25T09:00:44.629Z</time></trkpt><trkpt lat="45.4900483" lon="9.3321433"><ele>114.99999999999999</ele><time>2026-04-25T09:00:45.628Z</time></trkpt><trkpt lat="45.490025" lon="9.3320433"><ele>114.99999999999999</ele><time>2026-04-25T09:00:46.629Z</time></trkpt><trkpt lat="45.4900033" lon="9.3319433"><ele>115.00000000000001</ele><time>2026-04-25T09:00:47.631Z</time></trkpt><trkpt lat="45.4899883" lon="9.331835"><ele>115.0</ele><time>2026-04-25T09:00:48.633Z</time></trkpt><trkpt lat="45.4899833" lon="9.331725"><ele>115.0</ele><time>2026-04-25T09:00:49.631Z</time></trkpt><trkpt lat="45.4899883" lon="9.3316167"><ele>115.0</ele><time>2026-04-25T09:00:50.63Z</time></trkpt><trkpt lat="45.4900083" lon="9.3315167"><ele>115.00000000000001</ele><time>2026-04-25T09:00:51.63Z</time></trkpt><trkpt lat="45.490045" lon="9.3314267"><ele>115.0</ele><time>2026-04-25T09:00:52.63Z</time></trkpt><trkpt lat="45.4900967" lon="9.3313517"><ele>115.00000000000001</ele><time>2026-04-25T09:00:53.631Z</time></trkpt><trkpt lat="45.490155" lon="9.3312783"><ele>115.0</ele><time>2026-04-25T09:00:54.629Z</time></trkpt><trkpt lat="45.4902233" lon="9.3312133"><ele>115.0</ele><time>2026-04-25T09:00:55.628Z</time></trkpt><trkpt lat="45.4902883" lon="9.331155"><ele>115.0</ele><time>2026-04-25T09:00:56.631Z</time></trkpt><trkpt lat="45.4903517" lon="9.3310917"><ele>115.00000000000001</ele><time>2026-04-25T09:00:57.629Z</time></trkpt><trkpt lat="45.4904183" lon="9.33103"><ele>115.0</ele><time>2026-04-25T09:00:58.629Z</time></trkpt><trkpt lat="45.4904867" lon="9.3309633"><ele>115.50000000000001</ele><time>2026-04-25T09:00:59.629Z</time></trkpt><trkpt lat="45.4905517" lon="9.3308983"><ele>116.0</ele><time>2026-04-25T09:01:00.631Z</time></trkpt><trkpt lat="45.4906183" lon="9.33084"><ele>116.5</ele><time>2026-04-25T09:01:01.63Z</time></trkpt><trkpt lat="45.4906867" lon="9.330785"><ele>117.0</ele><time>2026-04-25T09:01:02.629Z</time></trkpt><trkpt lat="45.490755" lon="9.3307317"><ele>117.50000000000001</ele><time>2026-04-25T09:01:03.628Z</time></trkpt><trkpt lat="45.490825" lon="9.3306767"><ele>118.0</ele><time>2026-04-25T09:01:04.633Z</time></trkpt><trkpt lat="45.490895" lon="9.3306233"><ele>118.00000000000001</ele><time>2026-04-25T09:01:05.629Z</time></trkpt><trkpt lat="45.4909683" lon="9.3305717"><ele>118.0</ele><time>2026-04-25T09:01:06.63Z</time></trkpt><trkpt lat="45.4910417" lon="9.3305233"><ele>118.0</ele><time>2026-04-25T09:01:07.632Z</time></trkpt><trkpt lat="45.491115" lon="9.33047"><ele>118.0</ele><time>2026-04-25T09:01:08.63Z</time></trkpt><trkpt lat="45.4911883" lon="9.3304183"><ele>118.00000000000001</ele><time>2026-04-25T09:01:09.63Z</time></trkpt><trkpt lat="45.4912617" lon="9.3303683"><ele>118.0</ele><time>2026-04-25T09:01:10.632Z</time></trkpt><trkpt lat="45.4913367" lon="9.330315"><ele>117.66666666666667</ele><time>2026-04-25T09:01:11.629Z</time></trkpt><trkpt lat="45.4914117" lon="9.330265"><ele>117.33333333333334</ele><time>2026-04-25T09:01:12.632Z</time></trkpt><trkpt lat="45.4914867" lon="9.3302133"><ele>117.0</ele><time>2026-04-25T09:01:13.629Z</time></trkpt><trkpt lat="45.4915633" lon="9.3301583"><ele>116.66666666666666</ele><time>2026-04-25T09:01:14.631Z</time></trkpt><trkpt lat="45.4916367" lon="9.330105"><ele>116.33333333333333</ele><time>2026-04-25T09:01:15.631Z</time></trkpt><trkpt lat="45.4917117" lon="9.3300533"><ele>116.0</ele><time>2026-04-25T09:01:16.629Z</time></trkpt><trkpt lat="45.4917867" lon="9.330005"><ele>115.99999999999999</ele><time>2026-04-25T09:01:17.63Z</time></trkpt><trkpt lat="45.4918617" lon="9.329955"><ele>116.0</ele><time>2026-04-25T09:01:18.632Z</time></trkpt><trkpt lat="45.4919367" lon="9.3299033"><ele>116.0</ele><time>2026-04-25T09:01:19.632Z</time></trkpt><trkpt lat="45.4920133" lon="9.3298533"><ele>116.0</ele><time>2026-04-25T09:01:20.632Z</time></trkpt><trkpt lat="45.4920917" lon="9.3298033"><ele>115.99999999999999</ele><time>2026-04-25T09:01:21.63Z</time></trkpt><trkpt lat="45.4921667" lon="9.3297483"><ele>116.0</ele><time>2026-04-25T09:01:22.63Z</time></trkpt><trkpt lat="45.49224" lon="9.3296983"><ele>116.33333333333333</ele><time>2026-04-25T09:01:23.63Z</time></trkpt><trkpt lat="45.4923133" lon="9.329655"><ele>116.66666666666666</ele><time>2026-04-25T09:01:24.63Z</time></trkpt><trkpt lat="45.4923883" lon="9.3296183"><ele>117.0</ele><time>2026-04-25T09:01:25.63Z</time></trkpt><trkpt lat="45.4924617" lon="9.3295883"><ele>117.33333333333334</ele><time>2026-04-25T09:01:26.629Z</time></trkpt><trkpt lat="45.49254" lon="9.3295567"><ele>117.66666666666667</ele><time>2026-04-25T09:01:27.628Z</time></trkpt><trkpt lat="45.4926183" lon="9.3295233"><ele>118.0</ele><time>2026-04-25T09:01:28.63Z</time></trkpt><trkpt lat="45.4926967" lon="9.3294917"><ele>118.00000000000001</ele><time>2026-04-25T09:01:29.63Z</time></trkpt><trkpt lat="45.4927767" lon="9.3294683"><ele>118.0</ele><time>2026-04-25T09:01:30.629Z</time></trkpt><trkpt lat="45.49286" lon="9.32945"><ele>118.0</ele><time>2026-04-25T09:01:31.629Z</time></trkpt><trkpt lat="45.49294" lon="9.3294383"><ele>118.0</ele><time>2026-04-25T09:01:32.632Z</time></trkpt><trkpt lat="45.49301" lon="9.3294333"><ele>118.00000000000001</ele><time>2026-04-25T09:01:33.629Z</time></trkpt><trkpt lat="45.4930833" lon="9.3294317"><ele>118.0</ele><time>2026-04-25T09:01:34.629Z</time></trkpt><trkpt lat="45.4931533" lon="9.32943"><ele>117.85714285714286</ele><time>2026-04-25T09:01:35.628Z</time></trkpt><trkpt lat="45.493225" lon="9.3294317"><ele>117.71428571428572</ele><time>2026-04-25T09:01:36.63Z</time></trkpt><trkpt lat="45.493295" lon="9.329435"><ele>117.57142857142858</ele><time>2026-04-25T09:01:37.63Z</time></trkpt><trkpt lat="45.4933667" lon="9.329435"><ele>117.42857142857143</ele><time>2026-04-25T09:01:38.63Z</time></trkpt><trkpt lat="45.4934317" lon="9.32944"><ele>117.2857142857143</ele><time>2026-04-25T09:01:39.63Z</time></trkpt><trkpt lat="45.4934983" lon="9.3294467"><ele>117.14285714285715</ele><time>2026-04-25T09:01:40.629Z</time></trkpt><trkpt lat="45.493565" lon="9.3294567"><ele>117.0</ele><time>2026-04-25T09:01:41.63Z</time></trkpt><trkpt lat="45.49363" lon="9.32947"><ele>117.0</ele><time>2026-04-25T09:01:42.629Z</time></trkpt><trkpt lat="45.4937" lon="9.329485"><ele>117.00000000000001</ele><time>2026-04-25T09:01:43.63Z</time></trkpt><trkpt lat="45.4937717" lon="9.3295033"><ele>117.0</ele><time>2026-04-25T09:01:44.629Z</time></trkpt><trkpt lat="45.4938433" lon="9.329525"><ele>117.0</ele><time>2026-04-25T09:01:45.629Z</time></trkpt><trkpt lat="45.493915" lon="9.32955"><ele>117.00000000000001</ele><time>2026-04-25T09:01:46.629Z</time></trkpt><trkpt lat="45.49399" lon="9.3295767"><ele>117.0</ele><time>2026-04-25T09:01:47.63Z</time></trkpt><trkpt lat="45.4940617" lon="9.3296017"><ele>117.0</ele><time>2026-04-25T09:01:48.63Z</time></trkpt><trkpt lat="45.4941367" lon="9.32963"><ele>117.14285714285715</ele><time>2026-04-25T09:01:49.631Z</time></trkpt><trkpt lat="45.4942067" lon="9.3296567"><ele>117.2857142857143</ele><time>2026-04-25T09:01:50.63Z</time></trkpt><trkpt lat="45.4942783" lon="9.3296817"><ele>117.42857142857143</ele><time>2026-04-25T09:01:51.628Z</time></trkpt><trkpt lat="45.49435" lon="9.32971"><ele>117.57142857142858</ele><time>2026-04-25T09:01:52.628Z</time></trkpt><trkpt lat="45.494415" lon="9.32974"><ele>117.71428571428572</ele><time>2026-04-25T09:01:53.628Z</time></trkpt><trkpt lat="45.494485" lon="9.3297667"><ele>117.85714285714286</ele><time>2026-04-25T09:01:54.629Z</time></trkpt><trkpt lat="45.494555" lon="9.3297883"><ele>118.0</ele><time>2026-04-25T09:01:55.63Z</time></trkpt><trkpt lat="45.4946233" lon="9.3298117"><ele>118.0</ele><time>2026-04-25T09:01:56.63Z</time></trkpt><trkpt lat="45.4946933" lon="9.329835"><ele>118.0</ele><time>2026-04-25T09:01:57.628Z</time></trkpt><trkpt lat="45.494765" lon="9.3298617"><ele>118.0</ele><time>2026-04-25T09:01:58.631Z</time></trkpt><trkpt lat="45.494835" lon="9.3298883"><ele>118.0</ele><time>2026-04-25T09:01:59.629Z</time></trkpt><trkpt lat="45.4949033" lon="9.329915"><ele>118.0</ele><time>2026-04-25T09:02:00.63Z</time></trkpt><trkpt lat="45.49497" lon="9.3299383"><ele>118.0</ele><time>2026-04-25T09:02:01.629Z</time></trkpt><trkpt lat="45.49504" lon="9.32996"><ele>118.0</ele><time>2026-04-25T09:02:02.635Z</time></trkpt><trkpt lat="45.4951067" lon="9.3299867"><ele>118.0</ele><time>2026-04-25T09:02:03.629Z</time></trkpt><trkpt lat="45.49517" lon="9.330015"><ele>118.0</ele><time>2026-04-25T09:02:04.629Z</time></trkpt><trkpt lat="45.49524" lon="9.33004"><ele>118.0</ele><time>2026-04-25T09:02:05.628Z</time></trkpt><trkpt lat="45.4953033" lon="9.3300633"><ele>118.0</ele><time>2026-04-25T09:02:06.628Z</time></trkpt><trkpt lat="45.4953717" lon="9.330085"><ele>118.0</ele><time>2026-04-25T09:02:07.629Z</time></trkpt><trkpt lat="45.4954417" lon="9.3301017"><ele>118.0</ele><time>2026-04-25T09:02:08.635Z</time></trkpt><trkpt lat="45.4955083" lon="9.3301167"><ele>118.0</ele><time>2026-04-25T09:02:09.631Z</time></trkpt><trkpt lat="45.4955767" lon="9.33013"><ele>118.14285714285714</ele><time>2026-04-25T09:02:10.629Z</time></trkpt><trkpt lat="45.495645" lon="9.330135"><ele>118.28571428571429</ele><time>2026-04-25T09:02:11.63Z</time></trkpt><trkpt lat="45.4957133" lon="9.33014"><ele>118.42857142857143</ele><time>2026-04-25T09:02:12.628Z</time></trkpt><trkpt lat="45.495785" lon="9.3301433"><ele>118.57142857142857</ele><time>2026-04-25T09:02:13.63Z</time></trkpt><trkpt lat="45.4958567" lon="9.3301433"><ele>118.71428571428572</ele><time>2026-04-25T09:02:14.631Z</time></trkpt><trkpt lat="45.49593" lon="9.330145"><ele>118.85714285714286</ele><time>2026-04-25T09:02:15.631Z</time></trkpt><trkpt lat="45.496" lon="9.3301483"><ele>119.0</ele><time>2026-04-25T09:02:16.63Z</time></trkpt><trkpt lat="45.49607" lon="9.3301517"><ele>119.0</ele><time>2026-04-25T09:02:17.63Z</time></trkpt><trkpt lat="45.49614" lon="9.3301533"><ele>119.0</ele><time>2026-04-25T09:02:18.63Z</time></trkpt><trkpt lat="45.4962133" lon="9.3301567"><ele>119.0</ele><time>2026-04-25T09:02:19.63Z</time></trkpt><trkpt lat="45.49629" lon="9.3301567"><ele>119.0</ele><time>2026-04-25T09:02:20.634Z</time></trkpt><trkpt lat="45.4963633" lon="9.33016"><ele>119.0</ele><time>2026-04-25T09:02:21.628Z</time></trkpt><trkpt lat="45.4964383" lon="9.3301617"><ele>119.0</ele><time>2026-04-25T09:02:22.63Z</time></trkpt><trkpt lat="45.4965133" lon="9.3301617"><ele>119.0</ele><time>2026-04-25T09:02:23.629Z</time></trkpt><trkpt lat="45.4965883" lon="9.330165"><ele>119.57142857142857</ele><time>2026-04-25T09:02:24.63Z</time></trkpt><trkpt lat="45.4966633" lon="9.33017"><ele>120.14285714285714</ele><time>2026-04-25T09:02:25.629Z</time></trkpt><trkpt lat="45.4967367" lon="9.3301717"><ele>120.71428571428572</ele><time>2026-04-25T09:02:26.631Z</time></trkpt><trkpt lat="45.49681" lon="9.3301717"><ele>121.28571428571429</ele><time>2026-04-25T09:02:27.629Z</time></trkpt><trkpt lat="45.4968817" lon="9.3301733"><ele>121.85714285714286</ele><time>2026-04-25T09:02:28.63Z</time></trkpt><trkpt lat="45.4969517" lon="9.330175"><ele>122.42857142857144</ele><time>2026-04-25T09:02:29.629Z</time></trkpt><trkpt lat="45.4970183" lon="9.3301783"><ele>123.00000000000001</ele><time>2026-04-25T09:02:30.63Z</time></trkpt><trkpt lat="45.4970833" lon="9.33018"><ele>123.2</ele><time>2026-04-25T09:02:31.63Z</time></trkpt><trkpt lat="45.4971983" lon="9.3301783"><ele>123.4</ele><time>2026-04-25T09:02:33.631Z</time></trkpt><trkpt lat="45.4973117" lon="9.33018"><ele>123.60000000000001</ele><time>2026-04-25T09:02:36.634Z</time></trkpt><trkpt lat="45.4973917" lon="9.330185"><ele>123.80000000000001</ele><time>2026-04-25T09:02:38.631Z</time></trkpt><trkpt lat="45.4974617" lon="9.3301117"><ele>124.0</ele><time>2026-04-25T09:02:40.629Z</time></trkpt><trkpt lat="45.4974767" lon="9.3299633"><ele>124.00000000000001</ele><time>2026-04-25T09:02:42.634Z</time></trkpt><trkpt lat="45.49749" lon="9.3298033"><ele>124.0</ele><time>2026-04-25T09:02:44.631Z</time></trkpt><trkpt lat="45.4975133" lon="9.3296417"><ele>124.0</ele><time>2026-04-25T09:02:46.631Z</time></trkpt><trkpt lat="45.4975283" lon="9.3295517"><ele>124.0</ele><time>2026-04-25T09:02:47.628Z</time></trkpt><trkpt lat="45.4975433" lon="9.3294567"><ele>124.00000000000001</ele><time>2026-04-25T09:02:48.63Z</time></trkpt><trkpt lat="45.4975583" lon="9.32936"><ele>124.0</ele><time>2026-04-25T09:02:49.629Z</time></trkpt><trkpt lat="45.4975733" lon="9.32926"><ele>123.71428571428572</ele><time>2026-04-25T09:02:50.629Z</time></trkpt><trkpt lat="45.4975883" lon="9.3291633"><ele>123.42857142857144</ele><time>2026-04-25T09:02:51.63Z</time></trkpt><trkpt lat="45.4976017" lon="9.329075"><ele>123.14285714285714</ele><time>2026-04-25T09:02:52.629Z</time></trkpt><trkpt lat="45.4976167" lon="9.3289833"><ele>122.85714285714286</ele><time>2026-04-25T09:02:53.629Z</time></trkpt><trkpt lat="45.49763" lon="9.3288933"><ele>122.57142857142857</ele><time>2026-04-25T09:02:54.629Z</time></trkpt><trkpt lat="45.4976433" lon="9.3288033"><ele>122.28571428571428</ele><time>2026-04-25T09:02:55.634Z</time></trkpt><trkpt lat="45.4976583" lon="9.32871"><ele>121.99999999999999</ele><time>2026-04-25T09:02:56.631Z</time></trkpt><trkpt lat="45.4976733" lon="9.3286167"><ele>121.99999999999999</ele><time>2026-04-25T09:02:57.63Z</time></trkpt><trkpt lat="45.4976883" lon="9.3285283"><ele>122.0</ele><time>2026-04-25T09:02:58.632Z</time></trkpt><trkpt lat="45.497705" lon="9.32844"><ele>121.99999999999999</ele><time>2026-04-25T09:02:59.631Z</time></trkpt><trkpt lat="45.4977233" lon="9.32835"><ele>121.99999999999999</ele><time>2026-04-25T09:03:00.632Z</time></trkpt><trkpt lat="45.4977417" lon="9.32826"><ele>122.0</ele><time>2026-04-25T09:03:01.632Z</time></trkpt><trkpt lat="45.4977617" lon="9.3281667"><ele>121.99999999999999</ele><time>2026-04-25T09:03:02.631Z</time></trkpt><trkpt lat="45.49778" lon="9.328075"><ele>121.99999999999999</ele><time>2026-04-25T09:03:03.631Z</time></trkpt><trkpt lat="45.4977983" lon="9.32798"><ele>122.28571428571428</ele><time>2026-04-25T09:03:04.629Z</time></trkpt><trkpt lat="45.49782" lon="9.3278817"><ele>122.57142857142857</ele><time>2026-04-25T09:03:05.629Z</time></trkpt><trkpt lat="45.4978433" lon="9.3277917"><ele>122.85714285714286</ele><time>2026-04-25T09:03:06.631Z</time></trkpt><trkpt lat="45.4978667" lon="9.3277033"><ele>123.14285714285714</ele><time>2026-04-25T09:03:07.629Z</time></trkpt><trkpt lat="45.4978883" lon="9.327615"><ele>123.42857142857144</ele><time>2026-04-25T09:03:08.63Z</time></trkpt><trkpt lat="45.4979067" lon="9.3275233"><ele>123.71428571428572</ele><time>2026-04-25T09:03:09.631Z</time></trkpt><trkpt lat="45.49792" lon="9.3274333"><ele>124.0</ele><time>2026-04-25T09:03:10.634Z</time></trkpt><trkpt lat="45.4979283" lon="9.32734"><ele>124.0</ele><time>2026-04-25T09:03:11.63Z</time></trkpt><trkpt lat="45.4979317" lon="9.3272467"><ele>124.00000000000001</ele><time>2026-04-25T09:03:12.63Z</time></trkpt><trkpt lat="45.4979317" lon="9.3271483"><ele>124.0</ele><time>2026-04-25T09:03:13.63Z</time></trkpt><trkpt lat="45.49793" lon="9.3270517"><ele>124.0</ele><time>2026-04-25T09:03:14.634Z</time></trkpt><trkpt lat="45.4979233" lon="9.3269517"><ele>124.00000000000001</ele><time>2026-04-25T09:03:15.631Z</time></trkpt><trkpt lat="45.4979117" lon="9.32686"><ele>124.0</ele><time>2026-04-25T09:03:16.629Z</time></trkpt><trkpt lat="45.4979" lon="9.3267667"><ele>124.0</ele><time>2026-04-25T09:03:17.631Z</time></trkpt><trkpt lat="45.4978883" lon="9.3266733"><ele>124.16666666666667</ele><time>2026-04-25T09:03:18.633Z</time></trkpt><trkpt lat="45.4978767" lon="9.3265817"><ele>124.33333333333334</ele><time>2026-04-25T09:03:19.631Z</time></trkpt><trkpt lat="45.497865" lon="9.3264867"><ele>124.5</ele><time>2026-04-25T09:03:20.635Z</time></trkpt><trkpt lat="45.4978533" lon="9.326395"><ele>124.66666666666666</ele><time>2026-04-25T09:03:21.631Z</time></trkpt><trkpt lat="45.497845" lon="9.3263017"><ele>124.83333333333333</ele><time>2026-04-25T09:03:22.632Z</time></trkpt><trkpt lat="45.4978733" lon="9.3261517"><ele>125.0</ele><time>2026-04-25T09:03:24.633Z</time></trkpt><trkpt lat="45.4979883" lon="9.3260967"><ele>123.85714285714286</ele><time>2026-04-25T09:03:26.634Z</time></trkpt><trkpt lat="45.49806" lon="9.3261267"><ele>122.71428571428572</ele><time>2026-04-25T09:03:27.632Z</time></trkpt><trkpt lat="45.498125" lon="9.326145"><ele>121.57142857142858</ele><time>2026-04-25T09:03:28.633Z</time></trkpt><trkpt lat="45.4981883" lon="9.32617"><ele>120.42857142857143</ele><time>2026-04-25T09:03:29.629Z</time></trkpt><trkpt lat="45.498255" lon="9.3261833"><ele>119.2857142857143</ele><time>2026-04-25T09:03:30.633Z</time></trkpt><trkpt lat="45.4983233" lon="9.3262"><ele>118.14285714285715</ele><time>2026-04-25T09:03:31.629Z</time></trkpt><trkpt lat="45.4983883" lon="9.326215"><ele>117.0</ele><time>2026-04-25T09:03:32.631Z</time></trkpt><trkpt lat="45.4984567" lon="9.326225"><ele>117.0</ele><time>2026-04-25T09:03:33.629Z</time></trkpt><trkpt lat="45.4985267" lon="9.3262333"><ele>117.0</ele><time>2026-04-25T09:03:34.629Z</time></trkpt><trkpt lat="45.4985933" lon="9.3262467"><ele>117.0</ele><time>2026-04-25T09:03:35.63Z</time></trkpt><trkpt lat="45.4986583" lon="9.32626"><ele>117.0</ele><time>2026-04-25T09:03:36.629Z</time></trkpt><trkpt lat="45.4987267" lon="9.3262617"><ele>117.0</ele><time>2026-04-25T09:03:37.63Z</time></trkpt><trkpt lat="45.49883" lon="9.32617"><ele>117.0</ele><time>2026-04-25T09:03:39.63Z</time></trkpt><trkpt lat="45.49886" lon="9.32609"><ele>117.39999999999999</ele><time>2026-04-25T09:03:40.63Z</time></trkpt><trkpt lat="45.498905" lon="9.3259283"><ele>117.79999999999998</ele><time>2026-04-25T09:03:42.629Z</time></trkpt><trkpt lat="45.4989233" lon="9.32584"><ele>118.2</ele><time>2026-04-25T09:03:43.63Z</time></trkpt><trkpt lat="45.498955" lon="9.3256733"><ele>118.6</ele><time>2026-04-25T09:03:45.63Z</time></trkpt><trkpt lat="45.498985" lon="9.3255017"><ele>119.0</ele><time>2026-04-25T09:03:47.63Z</time></trkpt><trkpt lat="45.4989967" lon="9.3254133"><ele>118.99999999999999</ele><time>2026-04-25T09:03:48.633Z</time></trkpt><trkpt lat="45.49901" lon="9.325325"><ele>119.0</ele><time>2026-04-25T09:03:49.629Z</time></trkpt><trkpt lat="45.4990233" lon="9.325235"><ele>119.0</ele><time>2026-04-25T09:03:50.634Z</time></trkpt><trkpt lat="45.4990483" lon="9.32506"><ele>119.0</ele><time>2026-04-25T09:03:52.629Z</time></trkpt><trkpt lat="45.4990617" lon="9.32497"><ele>118.99999999999999</ele><time>2026-04-25T09:03:53.629Z</time></trkpt><trkpt lat="45.499075" lon="9.32488"><ele>119.0</ele><time>2026-04-25T09:03:54.63Z</time></trkpt><trkpt lat="45.4991033" lon="9.3247033"><ele>118.85714285714286</ele><time>2026-04-25T09:03:56.63Z</time></trkpt><trkpt lat="45.4991167" lon="9.3246133"><ele>118.71428571428572</ele><time>2026-04-25T09:03:57.631Z</time></trkpt><trkpt lat="45.49913" lon="9.3245217"><ele>118.57142857142857</ele><time>2026-04-25T09:03:58.629Z</time></trkpt><trkpt lat="45.4991433" lon="9.32443"><ele>118.42857142857143</ele><time>2026-04-25T09:03:59.629Z</time></trkpt><trkpt lat="45.4991567" lon="9.3243383"><ele>118.28571428571429</ele><time>2026-04-25T09:04:00.63Z</time></trkpt><trkpt lat="45.4991683" lon="9.324245"><ele>118.14285714285714</ele><time>2026-04-25T09:04:01.63Z</time></trkpt><trkpt lat="45.4991817" lon="9.3241517"><ele>118.0</ele><time>2026-04-25T09:04:02.629Z</time></trkpt><trkpt lat="45.4991967" lon="9.3240633"><ele>118.0</ele><time>2026-04-25T09:04:03.629Z</time></trkpt><trkpt lat="45.49921" lon="9.3239733"><ele>118.0</ele><time>2026-04-25T09:04:04.63Z</time></trkpt><trkpt lat="45.4992233" lon="9.3238833"><ele>118.0</ele><time>2026-04-25T09:04:05.629Z</time></trkpt><trkpt lat="45.4992367" lon="9.3237883"><ele>118.0</ele><time>2026-04-25T09:04:06.629Z</time></trkpt><trkpt lat="45.499255" lon="9.323695"><ele>118.0</ele><time>2026-04-25T09:04:07.629Z</time></trkpt><trkpt lat="45.4992767" lon="9.3236033"><ele>118.0</ele><time>2026-04-25T09:04:08.63Z</time></trkpt><trkpt lat="45.4993033" lon="9.323515"><ele>118.0</ele><time>2026-04-25T09:04:09.63Z</time></trkpt><trkpt lat="45.4993417" lon="9.3234283"><ele>118.14285714285714</ele><time>2026-04-25T09:04:10.63Z</time></trkpt><trkpt lat="45.4993867" lon="9.3233467"><ele>118.28571428571429</ele><time>2026-04-25T09:04:11.629Z</time></trkpt><trkpt lat="45.4994383" lon="9.3232783"><ele>118.42857142857143</ele><time>2026-04-25T09:04:12.629Z</time></trkpt><trkpt lat="45.4994983" lon="9.3232267"><ele>118.57142857142857</ele><time>2026-04-25T09:04:13.628Z</time></trkpt><trkpt lat="45.4995617" lon="9.323195"><ele>118.71428571428572</ele><time>2026-04-25T09:04:14.63Z</time></trkpt><trkpt lat="45.49963" lon="9.32318"><ele>118.85714285714286</ele><time>2026-04-25T09:04:15.63Z</time></trkpt><trkpt lat="45.4997017" lon="9.32318"><ele>119.0</ele><time>2026-04-25T09:04:16.632Z</time></trkpt><trkpt lat="45.49977" lon="9.3232017"><ele>119.14285714285714</ele><time>2026-04-25T09:04:17.631Z</time></trkpt><trkpt lat="45.499835" lon="9.323245"><ele>119.28571428571428</ele><time>2026-04-25T09:04:18.632Z</time></trkpt><trkpt lat="45.4998933" lon="9.3233017"><ele>119.42857142857143</ele><time>2026-04-25T09:04:19.629Z</time></trkpt><trkpt lat="45.4999467" lon="9.3233667"><ele>119.57142857142857</ele><time>2026-04-25T09:04:20.635Z</time></trkpt><trkpt lat="45.5" lon="9.3234317"><ele>119.71428571428571</ele><time>2026-04-25T09:04:21.629Z</time></trkpt><trkpt lat="45.500055" lon="9.32349"><ele>119.85714285714286</ele><time>2026-04-25T09:04:22.63Z</time></trkpt><trkpt lat="45.500115" lon="9.3235383"><ele>120.0</ele><time>2026-04-25T09:04:23.629Z</time></trkpt><trkpt lat="45.50018" lon="9.323565"><ele>120.0</ele><time>2026-04-25T09:04:24.63Z</time></trkpt><trkpt lat="45.5002483" lon="9.3235667"><ele>120.0</ele><time>2026-04-25T09:04:25.631Z</time></trkpt><trkpt lat="45.5003117" lon="9.32355"><ele>120.0</ele><time>2026-04-25T09:04:26.63Z</time></trkpt><trkpt lat="45.500375" lon="9.3235167"><ele>120.0</ele><time>2026-04-25T09:04:27.629Z</time></trkpt><trkpt lat="45.500435" lon="9.3234817"><ele>120.0</ele><time>2026-04-25T09:04:28.629Z</time></trkpt><trkpt lat="45.5005" lon="9.32345"><ele>120.0</ele><time>2026-04-25T09:04:29.633Z</time></trkpt><trkpt lat="45.5005667" lon="9.3234183"><ele>120.0</ele><time>2026-04-25T09:04:30.629Z</time></trkpt><trkpt lat="45.5006333" lon="9.3233867"><ele>119.71428571428572</ele><time>2026-04-25T09:04:31.631Z</time></trkpt><trkpt lat="45.5007017" lon="9.323355"><ele>119.42857142857142</ele><time>2026-04-25T09:04:32.631Z</time></trkpt><trkpt lat="45.5007683" lon="9.3233317"><ele>119.14285714285714</ele><time>2026-04-25T09:04:33.629Z</time></trkpt><trkpt lat="45.5008367" lon="9.3233183"><ele>118.85714285714286</ele><time>2026-04-25T09:04:34.63Z</time></trkpt><trkpt lat="45.5009067" lon="9.323325"><ele>118.57142857142858</ele><time>2026-04-25T09:04:35.629Z</time></trkpt><trkpt lat="45.5009767" lon="9.3233333"><ele>118.28571428571428</ele><time>2026-04-25T09:04:36.628Z</time></trkpt><trkpt lat="45.5010467" lon="9.3233433"><ele>118.0</ele><time>2026-04-25T09:04:37.631Z</time></trkpt><trkpt lat="45.501115" lon="9.323355"><ele>118.0</ele><time>2026-04-25T09:04:38.631Z</time></trkpt><trkpt lat="45.5011833" lon="9.3233667"><ele>118.0</ele><time>2026-04-25T09:04:39.63Z</time></trkpt><trkpt lat="45.5012517" lon="9.3233783"><ele>118.0</ele><time>2026-04-25T09:04:40.629Z</time></trkpt><trkpt lat="45.5013217" lon="9.3233867"><ele>118.0</ele><time>2026-04-25T09:04:41.63Z</time></trkpt><trkpt lat="45.5013933" lon="9.3233983"><ele>118.0</ele><time>2026-04-25T09:04:42.629Z</time></trkpt><trkpt lat="45.5014633" lon="9.3234067"><ele>118.0</ele><time>2026-04-25T09:04:43.629Z</time></trkpt><trkpt lat="45.50153" lon="9.3234133"><ele>118.0</ele><time>2026-04-25T09:04:44.636Z</time></trkpt><trkpt lat="45.5015983" lon="9.3234217"><ele>118.0</ele><time>2026-04-25T09:04:45.629Z</time></trkpt><trkpt lat="45.5016667" lon="9.3234283"><ele>118.0</ele><time>2026-04-25T09:04:46.631Z</time></trkpt><trkpt lat="45.501735" lon="9.3234417"><ele>118.0</ele><time>2026-04-25T09:04:47.63Z</time></trkpt><trkpt lat="45.5018083" lon="9.3234533"><ele>118.0</ele><time>2026-04-25T09:04:48.632Z</time></trkpt><trkpt lat="45.50188" lon="9.32346"><ele>118.0</ele><time>2026-04-25T09:04:49.629Z</time></trkpt><trkpt lat="45.50195" lon="9.3234683"><ele>118.0</ele><time>2026-04-25T09:04:50.63Z</time></trkpt><trkpt lat="45.5020217" lon="9.3234717"><ele>118.0</ele><time>2026-04-25T09:04:51.63Z</time></trkpt><trkpt lat="45.502095" lon="9.3234767"><ele>118.71428571428571</ele><time>2026-04-25T09:04:52.629Z</time></trkpt><trkpt lat="45.5021633" lon="9.32348"><ele>119.42857142857144</ele><time>2026-04-25T09:04:53.631Z</time></trkpt><trkpt lat="45.5022367" lon="9.323485"><ele>120.14285714285715</ele><time>2026-04-25T09:04:54.632Z</time></trkpt><trkpt lat="45.5023083" lon="9.3234883"><ele>120.85714285714286</ele><time>2026-04-25T09:04:55.629Z</time></trkpt><trkpt lat="45.5023783" lon="9.3234883"><ele>121.57142857142858</ele><time>2026-04-25T09:04:56.63Z</time></trkpt><trkpt lat="45.50245" lon="9.3234883"><ele>122.2857142857143</ele><time>2026-04-25T09:04:57.63Z</time></trkpt><trkpt lat="45.50252" lon="9.32349"><ele>123.00000000000001</ele><time>2026-04-25T09:04:58.63Z</time></trkpt><trkpt lat="45.5025917" lon="9.3234933"><ele>123.00000000000001</ele><time>2026-04-25T09:04:59.63Z</time></trkpt><trkpt lat="45.5026617" lon="9.3234967"><ele>123.0</ele><time>2026-04-25T09:05:00.63Z</time></trkpt><trkpt lat="45.5027317" lon="9.3235"><ele>123.00000000000001</ele><time>2026-04-25T09:05:01.629Z</time></trkpt><trkpt lat="45.5028033" lon="9.323505"><ele>123.00000000000001</ele><time>2026-04-25T09:05:02.63Z</time></trkpt><trkpt lat="45.5028767" lon="9.3235117"><ele>123.0</ele><time>2026-04-25T09:05:03.629Z</time></trkpt><trkpt lat="45.50295" lon="9.3235117"><ele>123.00000000000001</ele><time>2026-04-25T09:05:04.634Z</time></trkpt><trkpt lat="45.503025" lon="9.3235067"><ele>123.00000000000001</ele><time>2026-04-25T09:05:05.629Z</time></trkpt><trkpt lat="45.5031" lon="9.3235117"><ele>122.85714285714288</ele><time>2026-04-25T09:05:06.629Z</time></trkpt><trkpt lat="45.5031717" lon="9.3235183"><ele>122.71428571428572</ele><time>2026-04-25T09:05:07.63Z</time></trkpt><trkpt lat="45.5032417" lon="9.3235183"><ele>122.57142857142857</ele><time>2026-04-25T09:05:08.632Z</time></trkpt><trkpt lat="45.5033133" lon="9.3235167"><ele>122.42857142857143</ele><time>2026-04-25T09:05:09.628Z</time></trkpt><trkpt lat="45.5033867" lon="9.3235217"><ele>122.28571428571428</ele><time>2026-04-25T09:05:10.63Z</time></trkpt><trkpt lat="45.50346" lon="9.3235233"><ele>122.14285714285712</ele><time>2026-04-25T09:05:11.63Z</time></trkpt><trkpt lat="45.5035333" lon="9.3235233"><ele>121.99999999999999</ele><time>2026-04-25T09:05:12.629Z</time></trkpt><trkpt lat="45.5036067" lon="9.32353"><ele>121.99999999999999</ele><time>2026-04-25T09:05:13.629Z</time></trkpt><trkpt lat="45.5036767" lon="9.3235383"><ele>122.0</ele><time>2026-04-25T09:05:14.629Z</time></trkpt><trkpt lat="45.5037467" lon="9.323555"><ele>121.99999999999999</ele><time>2026-04-25T09:05:15.631Z</time></trkpt><trkpt lat="45.503815" lon="9.3235783"><ele>121.99999999999999</ele><time>2026-04-25T09:05:16.632Z</time></trkpt><trkpt lat="45.5038867" lon="9.3235967"><ele>122.0</ele><time>2026-04-25T09:05:17.63Z</time></trkpt><trkpt lat="45.503955" lon="9.3235967"><ele>121.99999999999999</ele><time>2026-04-25T09:05:18.63Z</time></trkpt><trkpt lat="45.504025" lon="9.323585"><ele>121.99999999999999</ele><time>2026-04-25T09:05:19.629Z</time></trkpt><trkpt lat="45.5040933" lon="9.3235683"><ele>122.14285714285712</ele><time>2026-04-25T09:05:20.631Z</time></trkpt><trkpt lat="45.5041583" lon="9.3235567"><ele>122.28571428571428</ele><time>2026-04-25T09:05:21.63Z</time></trkpt><trkpt lat="45.504225" lon="9.3235483"><ele>122.42857142857143</ele><time>2026-04-25T09:05:22.63Z</time></trkpt><trkpt lat="45.5042933" lon="9.3235483"><ele>122.57142857142857</ele><time>2026-04-25T09:05:23.63Z</time></trkpt><trkpt lat="45.5043633" lon="9.3235517"><ele>122.71428571428572</ele><time>2026-04-25T09:05:24.63Z</time></trkpt><trkpt lat="45.5044367" lon="9.3235567"><ele>122.85714285714288</ele><time>2026-04-25T09:05:25.628Z</time></trkpt><trkpt lat="45.50451" lon="9.3235617"><ele>123.00000000000001</ele><time>2026-04-25T09:05:26.63Z</time></trkpt><trkpt lat="45.5045817" lon="9.32357"><ele>122.57142857142858</ele><time>2026-04-25T09:05:27.63Z</time></trkpt><trkpt lat="45.50465" lon="9.323585"><ele>122.14285714285714</ele><time>2026-04-25T09:05:28.628Z</time></trkpt><trkpt lat="45.5047267" lon="9.3235883"><ele>121.71428571428572</ele><time>2026-04-25T09:05:29.634Z</time></trkpt><trkpt lat="45.5048033" lon="9.323585"><ele>121.28571428571429</ele><time>2026-04-25T09:05:30.63Z</time></trkpt><trkpt lat="45.5048817" lon="9.323585"><ele>120.85714285714286</ele><time>2026-04-25T09:05:31.629Z</time></trkpt><trkpt lat="45.5049517" lon="9.3235867"><ele>120.42857142857143</ele><time>2026-04-25T09:05:32.632Z</time></trkpt><trkpt lat="45.5050267" lon="9.3235833"><ele>120.0</ele><time>2026-04-25T09:05:33.629Z</time></trkpt><trkpt lat="45.5050983" lon="9.323585"><ele>120.0</ele><time>2026-04-25T09:05:34.634Z</time></trkpt><trkpt lat="45.50517" lon="9.3235817"><ele>120.0</ele><time>2026-04-25T09:05:35.63Z</time></trkpt><trkpt lat="45.505245" lon="9.323575"><ele>120.0</ele><time>2026-04-25T09:05:36.633Z</time></trkpt><trkpt lat="45.50531" lon="9.3235817"><ele>120.0</ele><time>2026-04-25T09:05:37.629Z</time></trkpt><trkpt lat="45.5053917" lon="9.3235783"><ele>120.0</ele><time>2026-04-25T09:05:38.631Z</time></trkpt><trkpt lat="45.50547" lon="9.32359"><ele>120.0</ele><time>2026-04-25T09:05:39.631Z</time></trkpt><trkpt lat="45.505545" lon="9.3236067"><ele>120.0</ele><time>2026-04-25T09:05:40.629Z</time></trkpt><trkpt lat="45.50561" lon="9.3236167"><ele>121.0</ele><time>2026-04-25T09:05:41.629Z</time></trkpt><trkpt lat="45.5057317" lon="9.3236183"><ele>122.0</ele><time>2026-04-25T09:05:43.631Z</time></trkpt><trkpt lat="45.50584" lon="9.32362"><ele>123.0</ele><time>2026-04-25T09:05:45.63Z</time></trkpt><trkpt lat="45.5059567" lon="9.3236233"><ele>124.0</ele><time>2026-04-25T09:05:47.631Z</time></trkpt><trkpt lat="45.5060683" lon="9.323625"><ele>124.0</ele><time>2026-04-25T09:05:49.631Z</time></trkpt><trkpt lat="45.5061767" lon="9.3236267"><ele>124.0</ele><time>2026-04-25T09:05:51.633Z</time></trkpt><trkpt lat="45.5062733" lon="9.323635"><ele>124.0</ele><time>2026-04-25T09:05:53.633Z</time></trkpt><trkpt lat="45.50638" lon="9.3236383"><ele>124.0</ele><time>2026-04-25T09:05:55.63Z</time></trkpt><trkpt lat="45.5064883" lon="9.32365"><ele>124.0</ele><time>2026-04-25T09:05:57.635Z</time></trkpt><trkpt lat="45.5066033" lon="9.3236533"><ele>123.80000000000001</ele><time>2026-04-25T09:05:59.635Z</time></trkpt><trkpt lat="45.5067233" lon="9.3236533"><ele>123.60000000000001</ele><time>2026-04-25T09:06:01.632Z</time></trkpt><trkpt lat="45.5067933" lon="9.3236417"><ele>123.4</ele><time>2026-04-25T09:06:02.632Z</time></trkpt><trkpt lat="45.5068983" lon="9.3236417"><ele>123.2</ele><time>2026-04-25T09:06:04.632Z</time></trkpt><trkpt lat="45.507" lon="9.3236383"><ele>123.0</ele><time>2026-04-25T09:06:06.633Z</time></trkpt><trkpt lat="45.5070967" lon="9.3236433"><ele>123.0</ele><time>2026-04-25T09:06:08.633Z</time></trkpt><trkpt lat="45.5071917" lon="9.3236517"><ele>123.00000000000001</ele><time>2026-04-25T09:06:10.636Z</time></trkpt><trkpt lat="45.5072933" lon="9.3236517"><ele>123.00000000000001</ele><time>2026-04-25T09:06:12.631Z</time></trkpt><trkpt lat="45.5073983" lon="9.3236583"><ele>123.0</ele><time>2026-04-25T09:06:14.633Z</time></trkpt><trkpt lat="45.5074933" lon="9.3236767"><ele>123.0</ele><time>2026-04-25T09:06:16.628Z</time></trkpt><trkpt lat="45.5076133" lon="9.323665"><ele>123.00000000000001</ele><time>2026-04-25T09:06:18.629Z</time></trkpt><trkpt lat="45.5076767" lon="9.32366"><ele>123.0</ele><time>2026-04-25T09:06:19.636Z</time></trkpt><trkpt lat="45.5077417" lon="9.3236567"><ele>123.00000000000001</ele><time>2026-04-25T09:06:20.636Z</time></trkpt><trkpt lat="45.5078067" lon="9.3236533"><ele>123.00000000000001</ele><time>2026-04-25T09:06:21.636Z</time></trkpt><trkpt lat="45.5078767" lon="9.3236667"><ele>123.0</ele><time>2026-04-25T09:06:22.629Z</time></trkpt><trkpt lat="45.507945" lon="9.3236967"><ele>123.00000000000001</ele><time>2026-04-25T09:06:23.631Z</time></trkpt><trkpt lat="45.5080117" lon="9.3237267"><ele>123.00000000000001</ele><time>2026-04-25T09:06:24.638Z</time></trkpt><trkpt lat="45.5081283" lon="9.3237783"><ele>122.83333333333333</ele><time>2026-04-25T09:06:26.636Z</time></trkpt><trkpt lat="45.508245" lon="9.3237417"><ele>122.66666666666666</ele><time>2026-04-25T09:06:28.639Z</time></trkpt><trkpt lat="45.5083633" lon="9.3236967"><ele>122.5</ele><time>2026-04-25T09:06:30.638Z</time></trkpt><trkpt lat="45.5084267" lon="9.3236933"><ele>122.33333333333333</ele><time>2026-04-25T09:06:31.637Z</time></trkpt><trkpt lat="45.5084933" lon="9.3236883"><ele>122.16666666666666</ele><time>2026-04-25T09:06:32.631Z</time></trkpt><trkpt lat="45.50856" lon="9.3236833"><ele>122.0</ele><time>2026-04-25T09:06:33.63Z</time></trkpt><trkpt lat="45.5086267" lon="9.32368"><ele>121.99999999999999</ele><time>2026-04-25T09:06:34.638Z</time></trkpt><trkpt lat="45.5086933" lon="9.3236817"><ele>122.0</ele><time>2026-04-25T09:06:35.631Z</time></trkpt><trkpt lat="45.508765" lon="9.3236783"><ele>121.99999999999999</ele><time>2026-04-25T09:06:36.637Z</time></trkpt><trkpt lat="45.50883" lon="9.323685"><ele>121.99999999999999</ele><time>2026-04-25T09:06:37.638Z</time></trkpt><trkpt lat="45.5089017" lon="9.3236967"><ele>122.0</ele><time>2026-04-25T09:06:38.639Z</time></trkpt><trkpt lat="45.508965" lon="9.3237083"><ele>121.99999999999999</ele><time>2026-04-25T09:06:39.638Z</time></trkpt><trkpt lat="45.50903" lon="9.3237183"><ele>121.99999999999999</ele><time>2026-04-25T09:06:40.632Z</time></trkpt><trkpt lat="45.509095" lon="9.3237233"><ele>122.0</ele><time>2026-04-25T09:06:41.636Z</time></trkpt><trkpt lat="45.5092133" lon="9.32373"><ele>122.0</ele><time>2026-04-25T09:06:43.638Z</time></trkpt><trkpt lat="45.5093267" lon="9.3237333"><ele>122.0</ele><time>2026-04-25T09:06:45.638Z</time></trkpt><trkpt lat="45.5094417" lon="9.323735"><ele>122.0</ele><time>2026-04-25T09:06:47.637Z</time></trkpt><trkpt lat="45.509555" lon="9.3237367"><ele>122.49999999999999</ele><time>2026-04-25T09:06:49.639Z</time></trkpt><trkpt lat="45.5096783" lon="9.323745"><ele>123.0</ele><time>2026-04-25T09:06:51.64Z</time></trkpt><trkpt lat="45.5097417" lon="9.323745"><ele>123.5</ele><time>2026-04-25T09:06:52.641Z</time></trkpt><trkpt lat="45.509805" lon="9.3237483"><ele>124.0</ele><time>2026-04-25T09:06:53.635Z</time></trkpt><trkpt lat="45.5098717" lon="9.323745"><ele>124.49999999999999</ele><time>2026-04-25T09:06:54.642Z</time></trkpt><trkpt lat="45.5099983" lon="9.32375"><ele>125.0</ele><time>2026-04-25T09:06:56.639Z</time></trkpt><trkpt lat="45.5100617" lon="9.3237517"><ele>125.0</ele><time>2026-04-25T09:06:57.638Z</time></trkpt><trkpt lat="45.5101767" lon="9.3237517"><ele>125.0</ele><time>2026-04-25T09:06:59.639Z</time></trkpt><trkpt lat="45.5102933" lon="9.3237567"><ele>125.0</ele><time>2026-04-25T09:07:01.629Z</time></trkpt><trkpt lat="45.51042" lon="9.3237483"><ele>125.0</ele><time>2026-04-25T09:07:03.64Z</time></trkpt><trkpt lat="45.5104867" lon="9.323755"><ele>125.0</ele><time>2026-04-25T09:07:04.633Z</time></trkpt><trkpt lat="45.5105567" lon="9.323775"><ele>124.71428571428571</ele><time>2026-04-25T09:07:05.634Z</time></trkpt><trkpt lat="45.510625" lon="9.3238"><ele>124.42857142857144</ele><time>2026-04-25T09:07:06.633Z</time></trkpt><trkpt lat="45.510695" lon="9.32383"><ele>124.14285714285715</ele><time>2026-04-25T09:07:07.635Z</time></trkpt><trkpt lat="45.5107683" lon="9.3238383"><ele>123.85714285714286</ele><time>2026-04-25T09:07:08.631Z</time></trkpt><trkpt lat="45.5108317" lon="9.32383"><ele>123.57142857142858</ele><time>2026-04-25T09:07:09.632Z</time></trkpt><trkpt lat="45.5109" lon="9.3238033"><ele>123.2857142857143</ele><time>2026-04-25T09:07:10.633Z</time></trkpt><trkpt lat="45.51097" lon="9.3237733"><ele>123.00000000000001</ele><time>2026-04-25T09:07:11.634Z</time></trkpt><trkpt lat="45.5110367" lon="9.3237617"><ele>123.00000000000001</ele><time>2026-04-25T09:07:12.63Z</time></trkpt><trkpt lat="45.5111067" lon="9.32375"><ele>123.0</ele><time>2026-04-25T09:07:13.633Z</time></trkpt><trkpt lat="45.5111783" lon="9.3237483"><ele>123.00000000000001</ele><time>2026-04-25T09:07:14.636Z</time></trkpt><trkpt lat="45.51125" lon="9.3237633"><ele>123.00000000000001</ele><time>2026-04-25T09:07:15.629Z</time></trkpt><trkpt lat="45.5113233" lon="9.3237767"><ele>123.0</ele><time>2026-04-25T09:07:16.632Z</time></trkpt><trkpt lat="45.5113967" lon="9.3237867"><ele>123.00000000000001</ele><time>2026-04-25T09:07:17.636Z</time></trkpt><trkpt lat="45.5114717" lon="9.3237933"><ele>123.00000000000001</ele><time>2026-04-25T09:07:18.631Z</time></trkpt><trkpt lat="45.5115483" lon="9.3237983"><ele>123.16666666666667</ele><time>2026-04-25T09:07:19.63Z</time></trkpt><trkpt lat="45.511625" lon="9.3238017"><ele>123.33333333333334</ele><time>2026-04-25T09:07:20.629Z</time></trkpt><trkpt lat="45.5117" lon="9.3238017"><ele>123.5</ele><time>2026-04-25T09:07:21.633Z</time></trkpt><trkpt lat="45.511775" lon="9.3238033"><ele>123.66666666666667</ele><time>2026-04-25T09:07:22.631Z</time></trkpt><trkpt lat="45.51185" lon="9.323805"><ele>123.83333333333334</ele><time>2026-04-25T09:07:23.631Z</time></trkpt><trkpt lat="45.5119267" lon="9.323805"><ele>124.0</ele><time>2026-04-25T09:07:24.63Z</time></trkpt><trkpt lat="45.512005" lon="9.323805"><ele>124.00000000000001</ele><time>2026-04-25T09:07:25.632Z</time></trkpt><trkpt lat="45.5120817" lon="9.3238"><ele>124.0</ele><time>2026-04-25T09:07:26.631Z</time></trkpt><trkpt lat="45.51216" lon="9.3237883"><ele>124.0</ele><time>2026-04-25T09:07:27.629Z</time></trkpt><trkpt lat="45.5122383" lon="9.3237717"><ele>124.0</ele><time>2026-04-25T09:07:28.629Z</time></trkpt><trkpt lat="45.51231" lon="9.3237367"><ele>124.00000000000001</ele><time>2026-04-25T09:07:29.63Z</time></trkpt><trkpt lat="45.51239" lon="9.3237083"><ele>124.0</ele><time>2026-04-25T09:07:30.631Z</time></trkpt><trkpt lat="45.5124633" lon="9.3236817"><ele>124.0</ele><time>2026-04-25T09:07:31.629Z</time></trkpt><trkpt lat="45.5125333" lon="9.3236533"><ele>124.00000000000001</ele><time>2026-04-25T09:07:32.632Z</time></trkpt><trkpt lat="45.5126067" lon="9.3236167"><ele>124.0</ele><time>2026-04-25T09:07:33.63Z</time></trkpt><trkpt lat="45.5126717" lon="9.3235767"><ele>124.0</ele><time>2026-04-25T09:07:34.63Z</time></trkpt><trkpt lat="45.5127433" lon="9.3235333"><ele>124.00000000000001</ele><time>2026-04-25T09:07:35.631Z</time></trkpt><trkpt lat="45.51281" lon="9.3234817"><ele>124.0</ele><time>2026-04-25T09:07:36.63Z</time></trkpt><trkpt lat="45.512875" lon="9.32343"><ele>124.0</ele><time>2026-04-25T09:07:37.631Z</time></trkpt><trkpt lat="45.5129367" lon="9.323375"><ele>123.85714285714286</ele><time>2026-04-25T09:07:38.632Z</time></trkpt><trkpt lat="45.512995" lon="9.32331"><ele>123.71428571428572</ele><time>2026-04-25T09:07:39.634Z</time></trkpt><trkpt lat="45.5130483" lon="9.3232383"><ele>123.57142857142858</ele><time>2026-04-25T09:07:40.631Z</time></trkpt><trkpt lat="45.5131017" lon="9.32317"><ele>123.42857142857144</ele><time>2026-04-25T09:07:41.632Z</time></trkpt><trkpt lat="45.5131533" lon="9.3231"><ele>123.28571428571429</ele><time>2026-04-25T09:07:42.631Z</time></trkpt><trkpt lat="45.5132017" lon="9.3230267"><ele>123.14285714285717</ele><time>2026-04-25T09:07:43.631Z</time></trkpt><trkpt lat="45.51325" lon="9.3229533"><ele>123.00000000000001</ele><time>2026-04-25T09:07:44.631Z</time></trkpt><trkpt lat="45.5132983" lon="9.3228767"><ele>123.2857142857143</ele><time>2026-04-25T09:07:45.631Z</time></trkpt><trkpt lat="45.513345" lon="9.3228"><ele>123.57142857142858</ele><time>2026-04-25T09:07:46.63Z</time></trkpt><trkpt lat="45.5133867" lon="9.3227167"><ele>123.85714285714286</ele><time>2026-04-25T09:07:47.63Z</time></trkpt><trkpt lat="45.5134233" lon="9.3226317"><ele>124.14285714285715</ele><time>2026-04-25T09:07:48.629Z</time></trkpt><trkpt lat="45.5134617" lon="9.3225433"><ele>124.42857142857144</ele><time>2026-04-25T09:07:49.63Z</time></trkpt><trkpt lat="45.5134983" lon="9.3224533"><ele>124.71428571428571</ele><time>2026-04-25T09:07:50.629Z</time></trkpt><trkpt lat="45.5135417" lon="9.3223533"><ele>125.0</ele><time>2026-04-25T09:07:51.63Z</time></trkpt><trkpt lat="45.513565" lon="9.3222633"><ele>125.14285714285714</ele><time>2026-04-25T09:07:52.632Z</time></trkpt><trkpt lat="45.5135883" lon="9.3221633"><ele>125.28571428571429</ele><time>2026-04-25T09:07:53.631Z</time></trkpt><trkpt lat="45.51361" lon="9.32207"><ele>125.42857142857143</ele><time>2026-04-25T09:07:54.632Z</time></trkpt><trkpt lat="45.513625" lon="9.3219767"><ele>125.57142857142857</ele><time>2026-04-25T09:07:55.631Z</time></trkpt><trkpt lat="45.51364" lon="9.3218833"><ele>125.71428571428572</ele><time>2026-04-25T09:07:56.632Z</time></trkpt><trkpt lat="45.5136533" lon="9.321785"><ele>125.85714285714286</ele><time>2026-04-25T09:07:57.629Z</time></trkpt><trkpt lat="45.51367" lon="9.32169"><ele>126.0</ele><time>2026-04-25T09:07:58.63Z</time></trkpt><trkpt lat="45.51369" lon="9.3216017"><ele>126.0</ele><time>2026-04-25T09:07:59.629Z</time></trkpt><trkpt lat="45.513715" lon="9.321515"><ele>126.0</ele><time>2026-04-25T09:08:00.631Z</time></trkpt><trkpt lat="45.513745" lon="9.321435"><ele>126.0</ele><time>2026-04-25T09:08:01.631Z</time></trkpt><trkpt lat="45.5138383" lon="9.3213167"><ele>126.0</ele><time>2026-04-25T09:08:03.632Z</time></trkpt><trkpt lat="45.5138967" lon="9.321275"><ele>126.0</ele><time>2026-04-25T09:08:04.631Z</time></trkpt><trkpt lat="45.5139567" lon="9.3212433"><ele>126.0</ele><time>2026-04-25T09:08:05.63Z</time></trkpt><trkpt lat="45.5140783" lon="9.3211967"><ele>126.5</ele><time>2026-04-25T09:08:07.629Z</time></trkpt><trkpt lat="45.5141983" lon="9.3211317"><ele>127.0</ele><time>2026-04-25T09:08:09.631Z</time></trkpt><trkpt lat="45.514255" lon="9.3210733"><ele>127.5</ele><time>2026-04-25T09:08:10.63Z</time></trkpt><trkpt lat="45.5142967" lon="9.3210033"><ele>128.0</ele><time>2026-04-25T09:08:11.631Z</time></trkpt><trkpt lat="45.514325" lon="9.32092"><ele>128.5</ele><time>2026-04-25T09:08:12.631Z</time></trkpt><trkpt lat="45.5143433" lon="9.3208317"><ele>129.0</ele><time>2026-04-25T09:08:13.63Z</time></trkpt><trkpt lat="45.51435" lon="9.32074"><ele>129.0</ele><time>2026-04-25T09:08:14.631Z</time></trkpt><trkpt lat="45.5143183" lon="9.32057"><ele>129.0</ele><time>2026-04-25T09:08:16.63Z</time></trkpt><trkpt lat="45.514255" lon="9.3204133"><ele>129.0</ele><time>2026-04-25T09:08:18.631Z</time></trkpt><trkpt lat="45.5142267" lon="9.3203317"><ele>129.0</ele><time>2026-04-25T09:08:19.629Z</time></trkpt><trkpt lat="45.5142033" lon="9.3202433"><ele>129.0</ele><time>2026-04-25T09:08:20.631Z</time></trkpt><trkpt lat="45.5141867" lon="9.320155"><ele>129.0</ele><time>2026-04-25T09:08:21.628Z</time></trkpt><trkpt lat="45.5141717" lon="9.3200667"><ele>128.85714285714283</ele><time>2026-04-25T09:08:22.63Z</time></trkpt><trkpt lat="45.5141583" lon="9.3199767"><ele>128.71428571428572</ele><time>2026-04-25T09:08:23.629Z</time></trkpt><trkpt lat="45.5141533" lon="9.3198833"><ele>128.57142857142856</ele><time>2026-04-25T09:08:24.63Z</time></trkpt><trkpt lat="45.51415" lon="9.3197817"><ele>128.42857142857142</ele><time>2026-04-25T09:08:25.63Z</time></trkpt><trkpt lat="45.5141433" lon="9.31968"><ele>128.28571428571428</ele><time>2026-04-25T09:08:26.63Z</time></trkpt><trkpt lat="45.5141367" lon="9.3195833"><ele>128.14285714285714</ele><time>2026-04-25T09:08:27.633Z</time></trkpt><trkpt lat="45.5141317" lon="9.31949"><ele>128.0</ele><time>2026-04-25T09:08:28.629Z</time></trkpt><trkpt lat="45.51413" lon="9.3193917"><ele>128.0</ele><time>2026-04-25T09:08:29.628Z</time></trkpt><trkpt lat="45.5141233" lon="9.3192933"><ele>127.99999999999999</ele><time>2026-04-25T09:08:30.631Z</time></trkpt><trkpt lat="45.5141133" lon="9.3192017"><ele>128.0</ele><time>2026-04-25T09:08:31.629Z</time></trkpt><trkpt lat="45.5141017" lon="9.3191117"><ele>128.0</ele><time>2026-04-25T09:08:32.63Z</time></trkpt><trkpt lat="45.51409" lon="9.3190183"><ele>127.99999999999999</ele><time>2026-04-25T09:08:33.628Z</time></trkpt><trkpt lat="45.5140767" lon="9.31893"><ele>128.0</ele><time>2026-04-25T09:08:34.629Z</time></trkpt><trkpt lat="45.5140617" lon="9.3188367"><ele>128.0</ele><time>2026-04-25T09:08:35.63Z</time></trkpt><trkpt lat="45.51405" lon="9.31874"><ele>127.71428571428571</ele><time>2026-04-25T09:08:36.631Z</time></trkpt><trkpt lat="45.5140367" lon="9.3186483"><ele>127.42857142857142</ele><time>2026-04-25T09:08:37.629Z</time></trkpt><trkpt lat="45.5140233" lon="9.3185567"><ele>127.14285714285714</ele><time>2026-04-25T09:08:38.629Z</time></trkpt><trkpt lat="45.5140133" lon="9.318465"><ele>126.85714285714286</ele><time>2026-04-25T09:08:39.629Z</time></trkpt><trkpt lat="45.5140017" lon="9.3183717"><ele>126.57142857142857</ele><time>2026-04-25T09:08:40.629Z</time></trkpt><trkpt lat="45.51399" lon="9.3182817"><ele>126.28571428571428</ele><time>2026-04-25T09:08:41.63Z</time></trkpt><trkpt lat="45.51398" lon="9.31819"><ele>126.0</ele><time>2026-04-25T09:08:42.63Z</time></trkpt><trkpt lat="45.5139667" lon="9.3180967"><ele>126.28571428571428</ele><time>2026-04-25T09:08:43.629Z</time></trkpt><trkpt lat="45.5139533" lon="9.318005"><ele>126.57142857142857</ele><time>2026-04-25T09:08:44.629Z</time></trkpt><trkpt lat="45.5139417" lon="9.31791"><ele>126.85714285714286</ele><time>2026-04-25T09:08:45.63Z</time></trkpt><trkpt lat="45.51393" lon="9.3178133"><ele>127.14285714285714</ele><time>2026-04-25T09:08:46.631Z</time></trkpt><trkpt lat="45.5139167" lon="9.3177117"><ele>127.42857142857142</ele><time>2026-04-25T09:08:47.629Z</time></trkpt><trkpt lat="45.513905" lon="9.3176067"><ele>127.71428571428571</ele><time>2026-04-25T09:08:48.63Z</time></trkpt><trkpt lat="45.51389" lon="9.317505"><ele>128.0</ele><time>2026-04-25T09:08:49.629Z</time></trkpt><trkpt lat="45.513875" lon="9.3174033"><ele>127.99999999999999</ele><time>2026-04-25T09:08:50.63Z</time></trkpt><trkpt lat="45.5138633" lon="9.317295"><ele>128.0</ele><time>2026-04-25T09:08:51.629Z</time></trkpt><trkpt lat="45.51385" lon="9.31719"><ele>128.0</ele><time>2026-04-25T09:08:52.629Z</time></trkpt><trkpt lat="45.5138383" lon="9.3170867"><ele>128.0</ele><time>2026-04-25T09:08:53.629Z</time></trkpt><trkpt lat="45.513825" lon="9.3169833"><ele>127.99999999999999</ele><time>2026-04-25T09:08:54.631Z</time></trkpt><trkpt lat="45.51381" lon="9.3168783"><ele>128.0</ele><time>2026-04-25T09:08:55.629Z</time></trkpt><trkpt lat="45.5137983" lon="9.3167667"><ele>128.28571428571428</ele><time>2026-04-25T09:08:56.63Z</time></trkpt><trkpt lat="45.51378" lon="9.3166617"><ele>128.57142857142856</ele><time>2026-04-25T09:08:57.63Z</time></trkpt><trkpt lat="45.5137633" lon="9.3165617"><ele>128.85714285714286</ele><time>2026-04-25T09:08:58.63Z</time></trkpt><trkpt lat="45.5137517" lon="9.3164583"><ele>129.14285714285714</ele><time>2026-04-25T09:08:59.629Z</time></trkpt><trkpt lat="45.5137383" lon="9.3163533"><ele>129.42857142857144</ele><time>2026-04-25T09:09:00.628Z</time></trkpt><trkpt lat="45.513725" lon="9.31625"><ele>129.71428571428572</ele><time>2026-04-25T09:09:01.63Z</time></trkpt><trkpt lat="45.51371" lon="9.3161383"><ele>130.0</ele><time>2026-04-25T09:09:02.63Z</time></trkpt><trkpt lat="45.513695" lon="9.316035"><ele>129.33333333333334</ele><time>2026-04-25T09:09:03.629Z</time></trkpt><trkpt lat="45.5136817" lon="9.3159267"><ele>128.66666666666669</ele><time>2026-04-25T09:09:04.63Z</time></trkpt><trkpt lat="45.51367" lon="9.315815"><ele>128.0</ele><time>2026-04-25T09:09:05.63Z</time></trkpt><trkpt lat="45.513655" lon="9.315705"><ele>127.33333333333334</ele><time>2026-04-25T09:09:06.63Z</time></trkpt><trkpt lat="45.51364" lon="9.315595"><ele>126.66666666666667</ele><time>2026-04-25T09:09:07.631Z</time></trkpt><trkpt lat="45.5136283" lon="9.3154883"><ele>126.0</ele><time>2026-04-25T09:09:08.629Z</time></trkpt><trkpt lat="45.513615" lon="9.3153783"><ele>126.0</ele><time>2026-04-25T09:09:09.629Z</time></trkpt><trkpt lat="45.513605" lon="9.3152683"><ele>126.0</ele><time>2026-04-25T09:09:10.63Z</time></trkpt><trkpt lat="45.5135983" lon="9.3151567"><ele>126.0</ele><time>2026-04-25T09:09:11.63Z</time></trkpt><trkpt lat="45.5135967" lon="9.31504"><ele>126.0</ele><time>2026-04-25T09:09:12.629Z</time></trkpt><trkpt lat="45.5136" lon="9.3149217"><ele>126.0</ele><time>2026-04-25T09:09:13.632Z</time></trkpt><trkpt lat="45.5136083" lon="9.3148033"><ele>126.0</ele><time>2026-04-25T09:09:14.63Z</time></trkpt><trkpt lat="45.513615" lon="9.3146833"><ele>126.0</ele><time>2026-04-25T09:09:15.629Z</time></trkpt><trkpt lat="45.5136217" lon="9.3145717"><ele>126.0</ele><time>2026-04-25T09:09:16.633Z</time></trkpt><trkpt lat="45.5136267" lon="9.3144583"><ele>126.0</ele><time>2026-04-25T09:09:17.629Z</time></trkpt><trkpt lat="45.5136333" lon="9.3143433"><ele>126.0</ele><time>2026-04-25T09:09:18.632Z</time></trkpt><trkpt lat="45.5136383" lon="9.3142283"><ele>126.0</ele><time>2026-04-25T09:09:19.631Z</time></trkpt><trkpt lat="45.5136433" lon="9.3141133"><ele>126.0</ele><time>2026-04-25T09:09:20.629Z</time></trkpt><trkpt lat="45.5136483" lon="9.314"><ele>126.0</ele><time>2026-04-25T09:09:21.631Z</time></trkpt><trkpt lat="45.5136517" lon="9.3138933"><ele>126.0</ele><time>2026-04-25T09:09:22.629Z</time></trkpt><trkpt lat="45.5136567" lon="9.3137817"><ele>126.0</ele><time>2026-04-25T09:09:23.629Z</time></trkpt><trkpt lat="45.5136633" lon="9.3136667"><ele>126.0</ele><time>2026-04-25T09:09:24.63Z</time></trkpt><trkpt lat="45.5136733" lon="9.3135467"><ele>126.0</ele><time>2026-04-25T09:09:25.63Z</time></trkpt><trkpt lat="45.51368" lon="9.3134317"><ele>126.0</ele><time>2026-04-25T09:09:26.632Z</time></trkpt><trkpt lat="45.5136867" lon="9.31332"><ele>126.0</ele><time>2026-04-25T09:09:27.629Z</time></trkpt><trkpt lat="45.513695" lon="9.31321"><ele>126.0</ele><time>2026-04-25T09:09:28.629Z</time></trkpt><trkpt lat="45.513705" lon="9.3130983"><ele>126.0</ele><time>2026-04-25T09:09:29.63Z</time></trkpt><trkpt lat="45.513715" lon="9.312985"><ele>126.0</ele><time>2026-04-25T09:09:30.629Z</time></trkpt><trkpt lat="45.513725" lon="9.312875"><ele>126.0</ele><time>2026-04-25T09:09:31.63Z</time></trkpt><trkpt lat="45.5137333" lon="9.3127617"><ele>126.0</ele><time>2026-04-25T09:09:32.63Z</time></trkpt><trkpt lat="45.5137417" lon="9.31265"><ele>126.33333333333333</ele><time>2026-04-25T09:09:33.629Z</time></trkpt><trkpt lat="45.51375" lon="9.3125383"><ele>126.66666666666666</ele><time>2026-04-25T09:09:34.63Z</time></trkpt><trkpt lat="45.5137583" lon="9.3124283"><ele>127.0</ele><time>2026-04-25T09:09:35.63Z</time></trkpt><trkpt lat="45.5137667" lon="9.3123167"><ele>127.33333333333333</ele><time>2026-04-25T09:09:36.629Z</time></trkpt><trkpt lat="45.5137717" lon="9.3122033"><ele>127.66666666666666</ele><time>2026-04-25T09:09:37.63Z</time></trkpt><trkpt lat="45.5137733" lon="9.312095"><ele>128.0</ele><time>2026-04-25T09:09:38.632Z</time></trkpt><trkpt lat="45.5137783" lon="9.3119867"><ele>128.0</ele><time>2026-04-25T09:09:39.63Z</time></trkpt><trkpt lat="45.51378" lon="9.31188"><ele>127.99999999999999</ele><time>2026-04-25T09:09:40.633Z</time></trkpt><trkpt lat="45.5137833" lon="9.3117683"><ele>128.0</ele><time>2026-04-25T09:09:41.63Z</time></trkpt><trkpt lat="45.513785" lon="9.3116617"><ele>128.0</ele><time>2026-04-25T09:09:42.63Z</time></trkpt><trkpt lat="45.5137867" lon="9.311555"><ele>127.99999999999999</ele><time>2026-04-25T09:09:43.63Z</time></trkpt><trkpt lat="45.5137917" lon="9.3114483"><ele>128.0</ele><time>2026-04-25T09:09:44.63Z</time></trkpt><trkpt lat="45.513795" lon="9.3113483"><ele>128.0</ele><time>2026-04-25T09:09:45.63Z</time></trkpt><trkpt lat="45.5138017" lon="9.3112433"><ele>128.0</ele><time>2026-04-25T09:09:46.631Z</time></trkpt><trkpt lat="45.51381" lon="9.3111383"><ele>127.99999999999999</ele><time>2026-04-25T09:09:47.629Z</time></trkpt><trkpt lat="45.5138183" lon="9.3110317"><ele>128.0</ele><time>2026-04-25T09:09:48.63Z</time></trkpt><trkpt lat="45.5138233" lon="9.31093"><ele>128.0</ele><time>2026-04-25T09:09:49.63Z</time></trkpt><trkpt lat="45.5138267" lon="9.3108283"><ele>127.99999999999999</ele><time>2026-04-25T09:09:50.629Z</time></trkpt><trkpt lat="45.51383" lon="9.3107233"><ele>128.0</ele><time>2026-04-25T09:09:51.631Z</time></trkpt><trkpt lat="45.5138283" lon="9.3106183"><ele>128.0</ele><time>2026-04-25T09:09:52.63Z</time></trkpt><trkpt lat="45.5138283" lon="9.3105083"><ele>127.99999999999999</ele><time>2026-04-25T09:09:53.632Z</time></trkpt><trkpt lat="45.5138217" lon="9.3104033"><ele>128.0</ele><time>2026-04-25T09:09:54.63Z</time></trkpt><trkpt lat="45.5138133" lon="9.3102967"><ele>128.0</ele><time>2026-04-25T09:09:55.631Z</time></trkpt><trkpt lat="45.5138067" lon="9.3101833"><ele>128.0</ele><time>2026-04-25T09:09:56.632Z</time></trkpt><trkpt lat="45.5137967" lon="9.3100667"><ele>127.99999999999999</ele><time>2026-04-25T09:09:57.631Z</time></trkpt><trkpt lat="45.513785" lon="9.30995"><ele>128.0</ele><time>2026-04-25T09:09:58.629Z</time></trkpt><trkpt lat="45.51377" lon="9.309835"><ele>127.99999999999999</ele><time>2026-04-25T09:09:59.63Z</time></trkpt><trkpt lat="45.513755" lon="9.3097267"><ele>128.0</ele><time>2026-04-25T09:10:00.63Z</time></trkpt><trkpt lat="45.5137467" lon="9.309615"><ele>128.0</ele><time>2026-04-25T09:10:01.631Z</time></trkpt><trkpt lat="45.5137367" lon="9.30951"><ele>128.0</ele><time>2026-04-25T09:10:02.63Z</time></trkpt><trkpt lat="45.513725" lon="9.3093983"><ele>127.99999999999999</ele><time>2026-04-25T09:10:03.629Z</time></trkpt><trkpt lat="45.5137167" lon="9.3092867"><ele>128.0</ele><time>2026-04-25T09:10:04.63Z</time></trkpt><trkpt lat="45.513705" lon="9.3091683"><ele>127.49999999999999</ele><time>2026-04-25T09:10:05.629Z</time></trkpt><trkpt lat="45.5136967" lon="9.3090483"><ele>127.0</ele><time>2026-04-25T09:10:06.631Z</time></trkpt><trkpt lat="45.513685" lon="9.3089333"><ele>126.5</ele><time>2026-04-25T09:10:07.63Z</time></trkpt><trkpt lat="45.5136717" lon="9.308815"><ele>126.0</ele><time>2026-04-25T09:10:08.634Z</time></trkpt><trkpt lat="45.5136617" lon="9.3086967"><ele>125.49999999999999</ele><time>2026-04-25T09:10:09.63Z</time></trkpt><trkpt lat="45.51365" lon="9.308585"><ele>125.0</ele><time>2026-04-25T09:10:10.632Z</time></trkpt><trkpt lat="45.5136367" lon="9.3084717"><ele>124.99999999999999</ele><time>2026-04-25T09:10:11.629Z</time></trkpt><trkpt lat="45.513625" lon="9.308355"><ele>125.0</ele><time>2026-04-25T09:10:12.631Z</time></trkpt><trkpt lat="45.5136117" lon="9.3082417"><ele>125.0</ele><time>2026-04-25T09:10:13.629Z</time></trkpt><trkpt lat="45.5136" lon="9.308125"><ele>125.0</ele><time>2026-04-25T09:10:14.63Z</time></trkpt><trkpt lat="45.513585" lon="9.30801"><ele>124.99999999999999</ele><time>2026-04-25T09:10:15.63Z</time></trkpt><trkpt lat="45.51357" lon="9.3079"><ele>125.0</ele><time>2026-04-25T09:10:16.63Z</time></trkpt><trkpt lat="45.5135567" lon="9.307785"><ele>125.16666666666666</ele><time>2026-04-25T09:10:17.63Z</time></trkpt><trkpt lat="45.5135433" lon="9.3076733"><ele>125.33333333333333</ele><time>2026-04-25T09:10:18.63Z</time></trkpt><trkpt lat="45.5135283" lon="9.3075617"><ele>125.5</ele><time>2026-04-25T09:10:19.63Z</time></trkpt><trkpt lat="45.513515" lon="9.3074483"><ele>125.66666666666666</ele><time>2026-04-25T09:10:20.632Z</time></trkpt><trkpt lat="45.5135033" lon="9.30733"><ele>125.83333333333333</ele><time>2026-04-25T09:10:21.631Z</time></trkpt><trkpt lat="45.5134917" lon="9.30721"><ele>126.0</ele><time>2026-04-25T09:10:22.63Z</time></trkpt><trkpt lat="45.5134783" lon="9.3070917"><ele>126.0</ele><time>2026-04-25T09:10:23.63Z</time></trkpt><trkpt lat="45.5134667" lon="9.3069717"><ele>126.0</ele><time>2026-04-25T09:10:24.63Z</time></trkpt><trkpt lat="45.513455" lon="9.306845"><ele>126.0</ele><time>2026-04-25T09:10:25.63Z</time></trkpt><trkpt lat="45.5134417" lon="9.30672"><ele>126.0</ele><time>2026-04-25T09:10:26.631Z</time></trkpt><trkpt lat="45.5134333" lon="9.3065933"><ele>126.0</ele><time>2026-04-25T09:10:27.629Z</time></trkpt><trkpt lat="45.5134233" lon="9.306465"><ele>126.0</ele><time>2026-04-25T09:10:28.629Z</time></trkpt><trkpt lat="45.5134167" lon="9.3063383"><ele>126.0</ele><time>2026-04-25T09:10:29.63Z</time></trkpt><trkpt lat="45.51341" lon="9.3062183"><ele>126.0</ele><time>2026-04-25T09:10:30.631Z</time></trkpt><trkpt lat="45.5134017" lon="9.3060967"><ele>126.0</ele><time>2026-04-25T09:10:31.629Z</time></trkpt><trkpt lat="45.513395" lon="9.305975"><ele>126.0</ele><time>2026-04-25T09:10:32.63Z</time></trkpt><trkpt lat="45.5133917" lon="9.30585"><ele>126.0</ele><time>2026-04-25T09:10:33.629Z</time></trkpt><trkpt lat="45.513395" lon="9.3057317"><ele>126.0</ele><time>2026-04-25T09:10:34.631Z</time></trkpt><trkpt lat="45.5134" lon="9.3056133"><ele>126.16666666666667</ele><time>2026-04-25T09:10:35.629Z</time></trkpt><trkpt lat="45.5134033" lon="9.3054883"><ele>126.33333333333334</ele><time>2026-04-25T09:10:36.63Z</time></trkpt><trkpt lat="45.5134117" lon="9.30537"><ele>126.5</ele><time>2026-04-25T09:10:37.629Z</time></trkpt><trkpt lat="45.5134167" lon="9.3052483"><ele>126.66666666666667</ele><time>2026-04-25T09:10:38.631Z</time></trkpt><trkpt lat="45.51342" lon="9.3051167"><ele>126.83333333333334</ele><time>2026-04-25T09:10:39.63Z</time></trkpt><trkpt lat="45.5134267" lon="9.3049917"><ele>127.0</ele><time>2026-04-25T09:10:40.631Z</time></trkpt><trkpt lat="45.5134317" lon="9.3048683"><ele>127.16666666666667</ele><time>2026-04-25T09:10:41.631Z</time></trkpt><trkpt lat="45.513435" lon="9.304745"><ele>127.33333333333334</ele><time>2026-04-25T09:10:42.63Z</time></trkpt><trkpt lat="45.51344" lon="9.3046283"><ele>127.5</ele><time>2026-04-25T09:10:43.629Z</time></trkpt><trkpt lat="45.5134417" lon="9.3045167"><ele>127.66666666666666</ele><time>2026-04-25T09:10:44.63Z</time></trkpt><trkpt lat="45.5134433" lon="9.3044067"><ele>127.83333333333333</ele><time>2026-04-25T09:10:45.633Z</time></trkpt><trkpt lat="45.513445" lon="9.3042883"><ele>128.0</ele><time>2026-04-25T09:10:46.63Z</time></trkpt><trkpt lat="45.5134467" lon="9.3041717"><ele>127.99999999999999</ele><time>2026-04-25T09:10:47.63Z</time></trkpt><trkpt lat="45.51345" lon="9.304055"><ele>128.0</ele><time>2026-04-25T09:10:48.631Z</time></trkpt><trkpt lat="45.5134667" lon="9.3039383"><ele>128.0</ele><time>2026-04-25T09:10:49.631Z</time></trkpt><trkpt lat="45.5134817" lon="9.303825"><ele>128.0</ele><time>2026-04-25T09:10:50.632Z</time></trkpt><trkpt lat="45.513485" lon="9.3037167"><ele>127.99999999999999</ele><time>2026-04-25T09:10:51.631Z</time></trkpt><trkpt lat="45.5134767" lon="9.303605"><ele>128.0</ele><time>2026-04-25T09:10:52.63Z</time></trkpt><trkpt lat="45.5134617" lon="9.303495"><ele>127.83333333333333</ele><time>2026-04-25T09:10:53.631Z</time></trkpt><trkpt lat="45.5134483" lon="9.30338"><ele>127.66666666666666</ele><time>2026-04-25T09:10:54.633Z</time></trkpt><trkpt lat="45.5134433" lon="9.30326"><ele>127.5</ele><time>2026-04-25T09:10:55.631Z</time></trkpt><trkpt lat="45.513445" lon="9.3031467"><ele>127.33333333333334</ele><time>2026-04-25T09:10:56.631Z</time></trkpt><trkpt lat="45.5134467" lon="9.3030317"><ele>127.16666666666667</ele><time>2026-04-25T09:10:57.63Z</time></trkpt><trkpt lat="45.5134517" lon="9.3029133"><ele>127.0</ele><time>2026-04-25T09:10:58.631Z</time></trkpt><trkpt lat="45.5134583" lon="9.302795"><ele>126.83333333333334</ele><time>2026-04-25T09:10:59.63Z</time></trkpt><trkpt lat="45.5134667" lon="9.3026783"><ele>126.66666666666667</ele><time>2026-04-25T09:11:00.629Z</time></trkpt><trkpt lat="45.5134767" lon="9.3025617"><ele>126.5</ele><time>2026-04-25T09:11:01.63Z</time></trkpt><trkpt lat="45.5134817" lon="9.3024483"><ele>126.33333333333334</ele><time>2026-04-25T09:11:02.63Z</time></trkpt><trkpt lat="45.513485" lon="9.3023317"><ele>126.16666666666667</ele><time>2026-04-25T09:11:03.628Z</time></trkpt><trkpt lat="45.5134933" lon="9.30221"><ele>126.0</ele><time>2026-04-25T09:11:04.63Z</time></trkpt><trkpt lat="45.5135033" lon="9.3020933"><ele>126.33333333333333</ele><time>2026-04-25T09:11:05.629Z</time></trkpt><trkpt lat="45.51351" lon="9.3019767"><ele>126.66666666666666</ele><time>2026-04-25T09:11:06.629Z</time></trkpt><trkpt lat="45.5135167" lon="9.3018633"><ele>127.0</ele><time>2026-04-25T09:11:07.631Z</time></trkpt><trkpt lat="45.513525" lon="9.3017533"><ele>127.33333333333333</ele><time>2026-04-25T09:11:08.63Z</time></trkpt><trkpt lat="45.5135283" lon="9.3016467"><ele>127.66666666666666</ele><time>2026-04-25T09:11:09.633Z</time></trkpt><trkpt lat="45.5135333" lon="9.3015383"><ele>128.0</ele><time>2026-04-25T09:11:10.63Z</time></trkpt><trkpt lat="45.5135383" lon="9.301435"><ele>128.14285714285714</ele><time>2026-04-25T09:11:11.629Z</time></trkpt><trkpt lat="45.5135433" lon="9.3013317"><ele>128.28571428571428</ele><time>2026-04-25T09:11:12.631Z</time></trkpt><trkpt lat="45.5135467" lon="9.3012317"><ele>128.42857142857142</ele><time>2026-04-25T09:11:13.631Z</time></trkpt><trkpt lat="45.51355" lon="9.30113"><ele>128.57142857142856</ele><time>2026-04-25T09:11:14.63Z</time></trkpt><trkpt lat="45.5135517" lon="9.30103"><ele>128.71428571428572</ele><time>2026-04-25T09:11:15.63Z</time></trkpt><trkpt lat="45.5135517" lon="9.30093"><ele>128.85714285714283</ele><time>2026-04-25T09:11:16.63Z</time></trkpt><trkpt lat="45.5135483" lon="9.3008367"><ele>129.0</ele><time>2026-04-25T09:11:17.631Z</time></trkpt><trkpt lat="45.5135467" lon="9.3007417"><ele>128.99999999999997</ele><time>2026-04-25T09:11:18.633Z</time></trkpt><trkpt lat="45.51355" lon="9.300645"><ele>129.0</ele><time>2026-04-25T09:11:19.631Z</time></trkpt><trkpt lat="45.51356" lon="9.300545"><ele>129.0</ele><time>2026-04-25T09:11:20.632Z</time></trkpt><trkpt lat="45.51357" lon="9.3004467"><ele>129.0</ele><time>2026-04-25T09:11:21.631Z</time></trkpt><trkpt lat="45.5135767" lon="9.300345"><ele>129.0</ele><time>2026-04-25T09:11:22.631Z</time></trkpt><trkpt lat="45.5135783" lon="9.3002433"><ele>128.99999999999997</ele><time>2026-04-25T09:11:23.63Z</time></trkpt><trkpt lat="45.51358" lon="9.300145"><ele>129.0</ele><time>2026-04-25T09:11:24.631Z</time></trkpt><trkpt lat="45.5135833" lon="9.300045"><ele>128.99999999999997</ele><time>2026-04-25T09:11:25.63Z</time></trkpt><trkpt lat="45.5135833" lon="9.2999467"><ele>129.0</ele><time>2026-04-25T09:11:26.631Z</time></trkpt><trkpt lat="45.5135833" lon="9.2998467"><ele>129.0</ele><time>2026-04-25T09:11:27.631Z</time></trkpt><trkpt lat="45.51358" lon="9.299745"><ele>129.0</ele><time>2026-04-25T09:11:28.629Z</time></trkpt><trkpt lat="45.5135717" lon="9.2996383"><ele>129.0</ele><time>2026-04-25T09:11:29.631Z</time></trkpt><trkpt lat="45.5135733" lon="9.299525"><ele>128.99999999999997</ele><time>2026-04-25T09:11:30.63Z</time></trkpt><trkpt lat="45.513595" lon="9.2994217"><ele>129.0</ele><time>2026-04-25T09:11:31.63Z</time></trkpt><trkpt lat="45.513625" lon="9.2993217"><ele>128.85714285714283</ele><time>2026-04-25T09:11:32.63Z</time></trkpt><trkpt lat="45.5136583" lon="9.2992283"><ele>128.71428571428572</ele><time>2026-04-25T09:11:33.629Z</time></trkpt><trkpt lat="45.5136783" lon="9.299125"><ele>128.57142857142856</ele><time>2026-04-25T09:11:34.63Z</time></trkpt><trkpt lat="45.5136783" lon="9.29902"><ele>128.42857142857142</ele><time>2026-04-25T09:11:35.63Z</time></trkpt><trkpt lat="45.51366" lon="9.2989133"><ele>128.28571428571428</ele><time>2026-04-25T09:11:36.631Z</time></trkpt><trkpt lat="45.5136417" lon="9.2988117"><ele>128.14285714285714</ele><time>2026-04-25T09:11:37.629Z</time></trkpt><trkpt lat="45.5136233" lon="9.2987133"><ele>128.0</ele><time>2026-04-25T09:11:38.63Z</time></trkpt><trkpt lat="45.51361" lon="9.2986083"><ele>127.83333333333333</ele><time>2026-04-25T09:11:39.63Z</time></trkpt><trkpt lat="45.5136" lon="9.2985033"><ele>127.66666666666666</ele><time>2026-04-25T09:11:40.631Z</time></trkpt><trkpt lat="45.5135867" lon="9.2983967"><ele>127.5</ele><time>2026-04-25T09:11:41.632Z</time></trkpt><trkpt lat="45.5135717" lon="9.2982867"><ele>127.33333333333334</ele><time>2026-04-25T09:11:42.632Z</time></trkpt><trkpt lat="45.5135633" lon="9.2981783"><ele>127.16666666666667</ele><time>2026-04-25T09:11:43.631Z</time></trkpt><trkpt lat="45.5135517" lon="9.2980667"><ele>127.0</ele><time>2026-04-25T09:11:44.631Z</time></trkpt><trkpt lat="45.5135383" lon="9.29796"><ele>127.00000000000001</ele><time>2026-04-25T09:11:45.63Z</time></trkpt><trkpt lat="45.513525" lon="9.2978517"><ele>127.0</ele><time>2026-04-25T09:11:46.631Z</time></trkpt><trkpt lat="45.5135117" lon="9.2977417"><ele>127.0</ele><time>2026-04-25T09:11:47.632Z</time></trkpt><trkpt lat="45.5134967" lon="9.2976333"><ele>127.0</ele><time>2026-04-25T09:11:48.631Z</time></trkpt><trkpt lat="45.5134817" lon="9.29752"><ele>127.00000000000001</ele><time>2026-04-25T09:11:49.63Z</time></trkpt><trkpt lat="45.5134667" lon="9.2974133"><ele>127.0</ele><time>2026-04-25T09:11:50.632Z</time></trkpt><trkpt lat="45.5134533" lon="9.2973"><ele>127.16666666666667</ele><time>2026-04-25T09:11:51.631Z</time></trkpt><trkpt lat="45.5134433" lon="9.29718"><ele>127.33333333333334</ele><time>2026-04-25T09:11:52.631Z</time></trkpt><trkpt lat="45.5134317" lon="9.297065"><ele>127.5</ele><time>2026-04-25T09:11:53.631Z</time></trkpt><trkpt lat="45.51342" lon="9.2969517"><ele>127.66666666666666</ele><time>2026-04-25T09:11:54.63Z</time></trkpt><trkpt lat="45.51341" lon="9.296835"><ele>127.83333333333333</ele><time>2026-04-25T09:11:55.631Z</time></trkpt><trkpt lat="45.5133983" lon="9.2967183"><ele>128.0</ele><time>2026-04-25T09:11:56.632Z</time></trkpt><trkpt lat="45.5133867" lon="9.2965983"><ele>127.99999999999999</ele><time>2026-04-25T09:11:57.631Z</time></trkpt><trkpt lat="45.513375" lon="9.2964783"><ele>128.0</ele><time>2026-04-25T09:11:58.632Z</time></trkpt><trkpt lat="45.5133633" lon="9.2963617"><ele>128.0</ele><time>2026-04-25T09:11:59.632Z</time></trkpt><trkpt lat="45.51335" lon="9.2962467"><ele>128.0</ele><time>2026-04-25T09:12:00.629Z</time></trkpt><trkpt lat="45.5133367" lon="9.2961283"><ele>127.99999999999999</ele><time>2026-04-25T09:12:01.632Z</time></trkpt><trkpt lat="45.5133217" lon="9.2960133"><ele>128.0</ele><time>2026-04-25T09:12:02.633Z</time></trkpt><trkpt lat="45.5133117" lon="9.2958917"><ele>127.99999999999999</ele><time>2026-04-25T09:12:03.631Z</time></trkpt><trkpt lat="45.513305" lon="9.2957733"><ele>128.0</ele><time>2026-04-25T09:12:04.631Z</time></trkpt><trkpt lat="45.5132967" lon="9.2956617"><ele>128.0</ele><time>2026-04-25T09:12:05.63Z</time></trkpt><trkpt lat="45.5132883" lon="9.2955483"><ele>128.0</ele><time>2026-04-25T09:12:06.63Z</time></trkpt><trkpt lat="45.5132783" lon="9.2954367"><ele>127.99999999999999</ele><time>2026-04-25T09:12:07.631Z</time></trkpt><trkpt lat="45.5132733" lon="9.2953267"><ele>128.0</ele><time>2026-04-25T09:12:08.631Z</time></trkpt><trkpt lat="45.5132667" lon="9.295215"><ele>127.99999999999999</ele><time>2026-04-25T09:12:09.632Z</time></trkpt><trkpt lat="45.513265" lon="9.2951033"><ele>128.0</ele><time>2026-04-25T09:12:10.631Z</time></trkpt><trkpt lat="45.513265" lon="9.2949917"><ele>128.0</ele><time>2026-04-25T09:12:11.632Z</time></trkpt><trkpt lat="45.513265" lon="9.294875"><ele>128.0</ele><time>2026-04-25T09:12:12.632Z</time></trkpt><trkpt lat="45.5132617" lon="9.2947617"><ele>127.99999999999999</ele><time>2026-04-25T09:12:13.631Z</time></trkpt><trkpt lat="45.5132533" lon="9.2946583"><ele>128.0</ele><time>2026-04-25T09:12:14.631Z</time></trkpt><trkpt lat="45.5132217" lon="9.2945483"><ele>127.99999999999999</ele><time>2026-04-25T09:12:15.632Z</time></trkpt><trkpt lat="45.5131983" lon="9.2944417"><ele>128.0</ele><time>2026-04-25T09:12:16.63Z</time></trkpt><trkpt lat="45.5131817" lon="9.2943283"><ele>128.0</ele><time>2026-04-25T09:12:17.632Z</time></trkpt><trkpt lat="45.5131683" lon="9.2942183"><ele>128.0</ele><time>2026-04-25T09:12:18.63Z</time></trkpt><trkpt lat="45.513155" lon="9.2941083"><ele>127.99999999999999</ele><time>2026-04-25T09:12:19.632Z</time></trkpt><trkpt lat="45.51314" lon="9.2939983"><ele>128.0</ele><time>2026-04-25T09:12:20.63Z</time></trkpt><trkpt lat="45.5131267" lon="9.293885"><ele>127.99999999999999</ele><time>2026-04-25T09:12:21.631Z</time></trkpt><trkpt lat="45.513115" lon="9.29377"><ele>128.0</ele><time>2026-04-25T09:12:22.63Z</time></trkpt><trkpt lat="45.513105" lon="9.29366"><ele>128.0</ele><time>2026-04-25T09:12:23.63Z</time></trkpt><trkpt lat="45.5130933" lon="9.2935383"><ele>128.0</ele><time>2026-04-25T09:12:24.629Z</time></trkpt><trkpt lat="45.5130833" lon="9.293425"><ele>127.99999999999999</ele><time>2026-04-25T09:12:25.631Z</time></trkpt><trkpt lat="45.5130717" lon="9.2933083"><ele>128.0</ele><time>2026-04-25T09:12:26.631Z</time></trkpt><trkpt lat="45.5130617" lon="9.2931917"><ele>127.83333333333333</ele><time>2026-04-25T09:12:27.631Z</time></trkpt><trkpt lat="45.5130517" lon="9.293075"><ele>127.66666666666666</ele><time>2026-04-25T09:12:28.631Z</time></trkpt><trkpt lat="45.51304" lon="9.29296"><ele>127.5</ele><time>2026-04-25T09:12:29.632Z</time></trkpt><trkpt lat="45.51303" lon="9.2928433"><ele>127.33333333333334</ele><time>2026-04-25T09:12:30.631Z</time></trkpt><trkpt lat="45.5130233" lon="9.2927267"><ele>127.16666666666667</ele><time>2026-04-25T09:12:31.634Z</time></trkpt><trkpt lat="45.5130167" lon="9.2926117"><ele>127.0</ele><time>2026-04-25T09:12:32.632Z</time></trkpt><trkpt lat="45.5130083" lon="9.2924983"><ele>127.00000000000001</ele><time>2026-04-25T09:12:33.631Z</time></trkpt><trkpt lat="45.513" lon="9.2923867"><ele>127.0</ele><time>2026-04-25T09:12:34.63Z</time></trkpt><trkpt lat="45.51299" lon="9.2922733"><ele>127.0</ele><time>2026-04-25T09:12:35.63Z</time></trkpt><trkpt lat="45.51298" lon="9.2921567"><ele>127.0</ele><time>2026-04-25T09:12:36.63Z</time></trkpt><trkpt lat="45.51297" lon="9.2920417"><ele>127.00000000000001</ele><time>2026-04-25T09:12:37.632Z</time></trkpt><trkpt lat="45.5129583" lon="9.291925"><ele>127.0</ele><time>2026-04-25T09:12:38.629Z</time></trkpt><trkpt lat="45.51295" lon="9.2918083"><ele>126.83333333333334</ele><time>2026-04-25T09:12:39.628Z</time></trkpt><trkpt lat="45.5129433" lon="9.29169"><ele>126.66666666666667</ele><time>2026-04-25T09:12:40.631Z</time></trkpt><trkpt lat="45.5129333" lon="9.2915767"><ele>126.5</ele><time>2026-04-25T09:12:41.629Z</time></trkpt><trkpt lat="45.512925" lon="9.291465"><ele>126.33333333333334</ele><time>2026-04-25T09:12:42.629Z</time></trkpt><trkpt lat="45.512915" lon="9.2913583"><ele>126.16666666666667</ele><time>2026-04-25T09:12:43.628Z</time></trkpt><trkpt lat="45.512905" lon="9.29125"><ele>126.0</ele><time>2026-04-25T09:12:44.629Z</time></trkpt><trkpt lat="45.5128917" lon="9.2911433"><ele>126.5</ele><time>2026-04-25T09:12:45.628Z</time></trkpt><trkpt lat="45.5128783" lon="9.2910367"><ele>127.0</ele><time>2026-04-25T09:12:46.628Z</time></trkpt><trkpt lat="45.5128667" lon="9.29093"><ele>127.5</ele><time>2026-04-25T09:12:47.629Z</time></trkpt><trkpt lat="45.5128567" lon="9.290825"><ele>128.0</ele><time>2026-04-25T09:12:48.629Z</time></trkpt><trkpt lat="45.512845" lon="9.2907183"><ele>128.5</ele><time>2026-04-25T09:12:49.63Z</time></trkpt><trkpt lat="45.512835" lon="9.2906117"><ele>129.0</ele><time>2026-04-25T09:12:50.629Z</time></trkpt><trkpt lat="45.5128233" lon="9.2905033"><ele>129.0</ele><time>2026-04-25T09:12:51.63Z</time></trkpt><trkpt lat="45.51281" lon="9.2903917"><ele>129.0</ele><time>2026-04-25T09:12:52.63Z</time></trkpt><trkpt lat="45.5127967" lon="9.2902817"><ele>129.0</ele><time>2026-04-25T09:12:53.63Z</time></trkpt><trkpt lat="45.5127783" lon="9.290175"><ele>129.0</ele><time>2026-04-25T09:12:54.63Z</time></trkpt><trkpt lat="45.5127567" lon="9.2900717"><ele>129.0</ele><time>2026-04-25T09:12:55.628Z</time></trkpt><trkpt lat="45.512735" lon="9.289965"><ele>129.0</ele><time>2026-04-25T09:12:56.628Z</time></trkpt><trkpt lat="45.5127083" lon="9.28986"><ele>128.5</ele><time>2026-04-25T09:12:57.631Z</time></trkpt><trkpt lat="45.5126833" lon="9.2897533"><ele>128.0</ele><time>2026-04-25T09:12:58.629Z</time></trkpt><trkpt lat="45.51266" lon="9.2896533"><ele>127.5</ele><time>2026-04-25T09:12:59.628Z</time></trkpt><trkpt lat="45.512635" lon="9.2895517"><ele>127.0</ele><time>2026-04-25T09:13:00.631Z</time></trkpt><trkpt lat="45.51261" lon="9.28945"><ele>126.5</ele><time>2026-04-25T09:13:01.628Z</time></trkpt><trkpt lat="45.5125817" lon="9.289345"><ele>126.0</ele><time>2026-04-25T09:13:02.632Z</time></trkpt><trkpt lat="45.51255" lon="9.2892417"><ele>126.0</ele><time>2026-04-25T09:13:03.629Z</time></trkpt><trkpt lat="45.5125183" lon="9.28914"><ele>126.0</ele><time>2026-04-25T09:13:04.63Z</time></trkpt><trkpt lat="45.5124883" lon="9.2890333"><ele>126.0</ele><time>2026-04-25T09:13:05.629Z</time></trkpt><trkpt lat="45.512465" lon="9.288925"><ele>126.0</ele><time>2026-04-25T09:13:06.629Z</time></trkpt><trkpt lat="45.5124417" lon="9.288815"><ele>126.0</ele><time>2026-04-25T09:13:07.629Z</time></trkpt><trkpt lat="45.5124183" lon="9.2887067"><ele>126.0</ele><time>2026-04-25T09:13:08.63Z</time></trkpt><trkpt lat="45.5123917" lon="9.2886033"><ele>126.33333333333333</ele><time>2026-04-25T09:13:09.628Z</time></trkpt><trkpt lat="45.5123583" lon="9.2884983"><ele>126.66666666666666</ele><time>2026-04-25T09:13:10.629Z</time></trkpt><trkpt lat="45.5123317" lon="9.2883917"><ele>127.0</ele><time>2026-04-25T09:13:11.63Z</time></trkpt><trkpt lat="45.512305" lon="9.288285"><ele>127.33333333333333</ele><time>2026-04-25T09:13:12.628Z</time></trkpt><trkpt lat="45.5122783" lon="9.2881767"><ele>127.66666666666666</ele><time>2026-04-25T09:13:13.63Z</time></trkpt><trkpt lat="45.5122517" lon="9.2880667"><ele>128.0</ele><time>2026-04-25T09:13:14.63Z</time></trkpt><trkpt lat="45.5122233" lon="9.2879617"><ele>127.99999999999999</ele><time>2026-04-25T09:13:15.629Z</time></trkpt><trkpt lat="45.5121967" lon="9.2878583"><ele>128.0</ele><time>2026-04-25T09:13:16.63Z</time></trkpt><trkpt lat="45.5121717" lon="9.287755"><ele>128.0</ele><time>2026-04-25T09:13:17.629Z</time></trkpt><trkpt lat="45.51214" lon="9.287645"><ele>128.0</ele><time>2026-04-25T09:13:18.631Z</time></trkpt><trkpt lat="45.51211" lon="9.2875333"><ele>127.99999999999999</ele><time>2026-04-25T09:13:19.63Z</time></trkpt><trkpt lat="45.5120867" lon="9.2874183"><ele>128.0</ele><time>2026-04-25T09:13:20.631Z</time></trkpt><trkpt lat="45.5120683" lon="9.2873167"><ele>127.85714285714285</ele><time>2026-04-25T09:13:21.634Z</time></trkpt><trkpt lat="45.5120417" lon="9.28722"><ele>127.7142857142857</ele><time>2026-04-25T09:13:22.629Z</time></trkpt><trkpt lat="45.5120183" lon="9.2871167"><ele>127.57142857142857</ele><time>2026-04-25T09:13:23.63Z</time></trkpt><trkpt lat="45.5119917" lon="9.28702"><ele>127.42857142857142</ele><time>2026-04-25T09:13:24.631Z</time></trkpt><trkpt lat="45.511965" lon="9.2869217"><ele>127.28571428571428</ele><time>2026-04-25T09:13:25.629Z</time></trkpt><trkpt lat="45.5119433" lon="9.2868217"><ele>127.14285714285714</ele><time>2026-04-25T09:13:26.631Z</time></trkpt><trkpt lat="45.511915" lon="9.28672"><ele>127.0</ele><time>2026-04-25T09:13:27.63Z</time></trkpt><trkpt lat="45.5118917" lon="9.28662"><ele>127.0</ele><time>2026-04-25T09:13:28.631Z</time></trkpt><trkpt lat="45.51187" lon="9.2865183"><ele>127.0</ele><time>2026-04-25T09:13:29.629Z</time></trkpt><trkpt lat="45.5118467" lon="9.28642"><ele>127.0</ele><time>2026-04-25T09:13:30.63Z</time></trkpt><trkpt lat="45.51182" lon="9.2863167"><ele>127.0</ele><time>2026-04-25T09:13:31.63Z</time></trkpt><trkpt lat="45.511795" lon="9.2862167"><ele>127.0</ele><time>2026-04-25T09:13:32.63Z</time></trkpt><trkpt lat="45.5117667" lon="9.2861183"><ele>127.0</ele><time>2026-04-25T09:13:33.63Z</time></trkpt><trkpt lat="45.5117467" lon="9.2860183"><ele>127.0</ele><time>2026-04-25T09:13:34.63Z</time></trkpt><trkpt lat="45.51173" lon="9.28592"><ele>127.16666666666667</ele><time>2026-04-25T09:13:35.632Z</time></trkpt><trkpt lat="45.5117167" lon="9.2858283"><ele>127.33333333333334</ele><time>2026-04-25T09:13:36.628Z</time></trkpt><trkpt lat="45.511705" lon="9.285735"><ele>127.5</ele><time>2026-04-25T09:13:37.63Z</time></trkpt><trkpt lat="45.511695" lon="9.2855517"><ele>127.66666666666666</ele><time>2026-04-25T09:13:39.632Z</time></trkpt><trkpt lat="45.5116967" lon="9.28546"><ele>127.83333333333333</ele><time>2026-04-25T09:13:40.632Z</time></trkpt><trkpt lat="45.511715" lon="9.285295"><ele>128.0</ele><time>2026-04-25T09:13:42.628Z</time></trkpt><trkpt lat="45.5117467" lon="9.2851433"><ele>128.0</ele><time>2026-04-25T09:13:44.631Z</time></trkpt><trkpt lat="45.5117533" lon="9.28499"><ele>128.0</ele><time>2026-04-25T09:13:46.631Z</time></trkpt><trkpt lat="45.51173" lon="9.2848333"><ele>128.0</ele><time>2026-04-25T09:13:48.63Z</time></trkpt><trkpt lat="45.5116783" lon="9.28468"><ele>128.0</ele><time>2026-04-25T09:13:50.633Z</time></trkpt><trkpt lat="45.5116633" lon="9.28452"><ele>128.0</ele><time>2026-04-25T09:13:52.63Z</time></trkpt><trkpt lat="45.511675" lon="9.2844183"><ele>127.99999999999999</ele><time>2026-04-25T09:13:53.629Z</time></trkpt><trkpt lat="45.51168" lon="9.2843183"><ele>128.0</ele><time>2026-04-25T09:13:54.629Z</time></trkpt><trkpt lat="45.5116867" lon="9.284215"><ele>128.0</ele><time>2026-04-25T09:13:55.63Z</time></trkpt><trkpt lat="45.511695" lon="9.2841067"><ele>127.99999999999999</ele><time>2026-04-25T09:13:56.63Z</time></trkpt><trkpt lat="45.5117" lon="9.2840017"><ele>128.0</ele><time>2026-04-25T09:13:57.628Z</time></trkpt><trkpt lat="45.5117067" lon="9.28389"><ele>128.0</ele><time>2026-04-25T09:13:58.631Z</time></trkpt><trkpt lat="45.511705" lon="9.2837767"><ele>128.33333333333331</ele><time>2026-04-25T09:13:59.633Z</time></trkpt><trkpt lat="45.5117117" lon="9.2836517"><ele>128.66666666666666</ele><time>2026-04-25T09:14:00.629Z</time></trkpt><trkpt lat="45.5117267" lon="9.2835283"><ele>129.0</ele><time>2026-04-25T09:14:01.631Z</time></trkpt><trkpt lat="45.51174" lon="9.2834017"><ele>129.33333333333334</ele><time>2026-04-25T09:14:02.633Z</time></trkpt><trkpt lat="45.5117467" lon="9.283275"><ele>129.66666666666669</ele><time>2026-04-25T09:14:03.63Z</time></trkpt><trkpt lat="45.5117483" lon="9.28315"><ele>130.0</ele><time>2026-04-25T09:14:04.631Z</time></trkpt><trkpt lat="45.5117517" lon="9.2830317"><ele>130.16666666666669</ele><time>2026-04-25T09:14:05.63Z</time></trkpt><trkpt lat="45.511765" lon="9.2829183"><ele>130.33333333333334</ele><time>2026-04-25T09:14:06.63Z</time></trkpt><trkpt lat="45.5117733" lon="9.2828033"><ele>130.5</ele><time>2026-04-25T09:14:07.629Z</time></trkpt><trkpt lat="45.51178" lon="9.282695"><ele>130.66666666666666</ele><time>2026-04-25T09:14:08.63Z</time></trkpt><trkpt lat="45.51179" lon="9.282585"><ele>130.83333333333331</ele><time>2026-04-25T09:14:09.63Z</time></trkpt><trkpt lat="45.5117983" lon="9.28247"><ele>131.0</ele><time>2026-04-25T09:14:10.63Z</time></trkpt><trkpt lat="45.5118083" lon="9.2823567"><ele>130.57142857142858</ele><time>2026-04-25T09:14:11.63Z</time></trkpt><trkpt lat="45.5118117" lon="9.28225"><ele>130.14285714285717</ele><time>2026-04-25T09:14:12.63Z</time></trkpt><trkpt lat="45.5118117" lon="9.2821433"><ele>129.71428571428572</ele><time>2026-04-25T09:14:13.629Z</time></trkpt><trkpt lat="45.5118117" lon="9.2820433"><ele>129.28571428571428</ele><time>2026-04-25T09:14:14.635Z</time></trkpt><trkpt lat="45.5118117" lon="9.281945"><ele>128.85714285714283</ele><time>2026-04-25T09:14:15.631Z</time></trkpt><trkpt lat="45.511815" lon="9.2818517"><ele>128.42857142857142</ele><time>2026-04-25T09:14:16.629Z</time></trkpt><trkpt lat="45.5118217" lon="9.2817583"><ele>128.0</ele><time>2026-04-25T09:14:17.631Z</time></trkpt><trkpt lat="45.5118283" lon="9.2815817"><ele>128.16666666666666</ele><time>2026-04-25T09:14:19.63Z</time></trkpt><trkpt lat="45.5118333" lon="9.2814233"><ele>128.33333333333331</ele><time>2026-04-25T09:14:21.632Z</time></trkpt><trkpt lat="45.5118467" lon="9.2812533"><ele>128.5</ele><time>2026-04-25T09:14:23.63Z</time></trkpt><trkpt lat="45.5118567" lon="9.2811633"><ele>128.66666666666666</ele><time>2026-04-25T09:14:24.629Z</time></trkpt><trkpt lat="45.5118633" lon="9.28107"><ele>128.83333333333334</ele><time>2026-04-25T09:14:25.631Z</time></trkpt><trkpt lat="45.5118583" lon="9.2809733"><ele>129.0</ele><time>2026-04-25T09:14:26.631Z</time></trkpt><trkpt lat="45.51185" lon="9.2808833"><ele>128.99999999999997</ele><time>2026-04-25T09:14:27.63Z</time></trkpt><trkpt lat="45.51185" lon="9.2807883"><ele>129.0</ele><time>2026-04-25T09:14:28.631Z</time></trkpt><trkpt lat="45.5118483" lon="9.2806967"><ele>129.0</ele><time>2026-04-25T09:14:29.631Z</time></trkpt><trkpt lat="45.51185" lon="9.2806"><ele>129.0</ele><time>2026-04-25T09:14:30.631Z</time></trkpt><trkpt lat="45.51185" lon="9.2804983"><ele>129.0</ele><time>2026-04-25T09:14:31.631Z</time></trkpt><trkpt lat="45.5118583" lon="9.280395"><ele>128.99999999999997</ele><time>2026-04-25T09:14:32.632Z</time></trkpt><trkpt lat="45.5118667" lon="9.280285"><ele>129.0</ele><time>2026-04-25T09:14:33.631Z</time></trkpt><trkpt lat="45.5118733" lon="9.2801783"><ele>128.66666666666666</ele><time>2026-04-25T09:14:34.632Z</time></trkpt><trkpt lat="45.5118817" lon="9.280065"><ele>128.33333333333334</ele><time>2026-04-25T09:14:35.63Z</time></trkpt><trkpt lat="45.5118883" lon="9.2799583"><ele>128.0</ele><time>2026-04-25T09:14:36.63Z</time></trkpt><trkpt lat="45.511895" lon="9.2798517"><ele>127.66666666666667</ele><time>2026-04-25T09:14:37.63Z</time></trkpt><trkpt lat="45.5119017" lon="9.2797433"><ele>127.33333333333334</ele><time>2026-04-25T09:14:38.63Z</time></trkpt><trkpt lat="45.5119033" lon="9.279635"><ele>127.0</ele><time>2026-04-25T09:14:39.629Z</time></trkpt><trkpt lat="45.5119033" lon="9.2795333"><ele>126.33333333333334</ele><time>2026-04-25T09:14:40.631Z</time></trkpt><trkpt lat="45.511905" lon="9.2794333"><ele>125.66666666666667</ele><time>2026-04-25T09:14:41.63Z</time></trkpt><trkpt lat="45.5119083" lon="9.2793383"><ele>125.0</ele><time>2026-04-25T09:14:42.632Z</time></trkpt><trkpt lat="45.5119217" lon="9.2791783"><ele>124.33333333333334</ele><time>2026-04-25T09:14:44.631Z</time></trkpt><trkpt lat="45.51192" lon="9.2790483"><ele>123.66666666666667</ele><time>2026-04-25T09:14:46.631Z</time></trkpt><trkpt lat="45.5119367" lon="9.27891"><ele>123.0</ele><time>2026-04-25T09:14:48.632Z</time></trkpt><trkpt lat="45.5120033" lon="9.2788"><ele>123.00000000000001</ele><time>2026-04-25T09:14:50.631Z</time></trkpt><trkpt lat="45.5120067" lon="9.2786533"><ele>123.0</ele><time>2026-04-25T09:14:52.63Z</time></trkpt><trkpt lat="45.5119867" lon="9.2785667"><ele>123.00000000000001</ele><time>2026-04-25T09:14:53.631Z</time></trkpt><trkpt lat="45.5119667" lon="9.2784717"><ele>123.00000000000001</ele><time>2026-04-25T09:14:54.629Z</time></trkpt><trkpt lat="45.51196" lon="9.27837"><ele>123.0</ele><time>2026-04-25T09:14:55.629Z</time></trkpt><trkpt lat="45.51196" lon="9.27827"><ele>123.00000000000001</ele><time>2026-04-25T09:14:56.629Z</time></trkpt><trkpt lat="45.5119617" lon="9.2781717"><ele>123.00000000000001</ele><time>2026-04-25T09:14:57.629Z</time></trkpt><trkpt lat="45.5119633" lon="9.278075"><ele>123.5</ele><time>2026-04-25T09:14:58.63Z</time></trkpt><trkpt lat="45.5119667" lon="9.277975"><ele>124.0</ele><time>2026-04-25T09:14:59.63Z</time></trkpt><trkpt lat="45.5119733" lon="9.2778733"><ele>124.5</ele><time>2026-04-25T09:15:00.63Z</time></trkpt><trkpt lat="45.51198" lon="9.2777717"><ele>125.0</ele><time>2026-04-25T09:15:01.631Z</time></trkpt><trkpt lat="45.5119867" lon="9.2776633"><ele>125.5</ele><time>2026-04-25T09:15:02.631Z</time></trkpt><trkpt lat="45.511995" lon="9.2775483"><ele>126.0</ele><time>2026-04-25T09:15:03.63Z</time></trkpt><trkpt lat="45.5120017" lon="9.277435"><ele>126.0</ele><time>2026-04-25T09:15:04.631Z</time></trkpt><trkpt lat="45.5120117" lon="9.27732"><ele>126.0</ele><time>2026-04-25T09:15:05.634Z</time></trkpt><trkpt lat="45.5120233" lon="9.2772183"><ele>126.0</ele><time>2026-04-25T09:15:06.629Z</time></trkpt><trkpt lat="45.5120283" lon="9.277115"><ele>126.0</ele><time>2026-04-25T09:15:07.629Z</time></trkpt><trkpt lat="45.51203" lon="9.2769983"><ele>126.0</ele><time>2026-04-25T09:15:08.631Z</time></trkpt><trkpt lat="45.5120317" lon="9.276875"><ele>126.0</ele><time>2026-04-25T09:15:09.629Z</time></trkpt><trkpt lat="45.5120383" lon="9.2767433"><ele>126.0</ele><time>2026-04-25T09:15:10.63Z</time></trkpt><trkpt lat="45.512045" lon="9.2766117"><ele>126.0</ele><time>2026-04-25T09:15:11.63Z</time></trkpt><trkpt lat="45.512055" lon="9.2764833"><ele>126.0</ele><time>2026-04-25T09:15:12.63Z</time></trkpt><trkpt lat="45.5120633" lon="9.2763567"><ele>126.0</ele><time>2026-04-25T09:15:13.628Z</time></trkpt><trkpt lat="45.512065" lon="9.2762333"><ele>126.0</ele><time>2026-04-25T09:15:14.631Z</time></trkpt><trkpt lat="45.51207" lon="9.27611"><ele>126.0</ele><time>2026-04-25T09:15:15.63Z</time></trkpt><trkpt lat="45.5120783" lon="9.2759833"><ele>126.16666666666667</ele><time>2026-04-25T09:15:16.632Z</time></trkpt><trkpt lat="45.5120817" lon="9.2758667"><ele>126.33333333333334</ele><time>2026-04-25T09:15:17.631Z</time></trkpt><trkpt lat="45.512075" lon="9.2757467"><ele>126.5</ele><time>2026-04-25T09:15:18.628Z</time></trkpt><trkpt lat="45.512075" lon="9.2756267"><ele>126.66666666666667</ele><time>2026-04-25T09:15:19.63Z</time></trkpt><trkpt lat="45.5120817" lon="9.2755"><ele>126.83333333333334</ele><time>2026-04-25T09:15:20.629Z</time></trkpt><trkpt lat="45.5120933" lon="9.2753683"><ele>127.0</ele><time>2026-04-25T09:15:21.63Z</time></trkpt><trkpt lat="45.5121" lon="9.2752517"><ele>127.00000000000001</ele><time>2026-04-25T09:15:22.629Z</time></trkpt><trkpt lat="45.5121083" lon="9.275125"><ele>127.0</ele><time>2026-04-25T09:15:23.633Z</time></trkpt><trkpt lat="45.5121183" lon="9.2749983"><ele>127.0</ele><time>2026-04-25T09:15:24.631Z</time></trkpt><trkpt lat="45.512125" lon="9.2748667"><ele>127.0</ele><time>2026-04-25T09:15:25.631Z</time></trkpt><trkpt lat="45.51213" lon="9.2747433"><ele>127.00000000000001</ele><time>2026-04-25T09:15:26.631Z</time></trkpt><trkpt lat="45.5121383" lon="9.27462"><ele>127.0</ele><time>2026-04-25T09:15:27.632Z</time></trkpt><trkpt lat="45.512145" lon="9.2744917"><ele>127.00000000000001</ele><time>2026-04-25T09:15:28.631Z</time></trkpt><trkpt lat="45.5121533" lon="9.2743633"><ele>127.0</ele><time>2026-04-25T09:15:29.63Z</time></trkpt><trkpt lat="45.5121617" lon="9.2742383"><ele>127.0</ele><time>2026-04-25T09:15:30.631Z</time></trkpt><trkpt lat="45.5121667" lon="9.2741117"><ele>127.0</ele><time>2026-04-25T09:15:31.631Z</time></trkpt><trkpt lat="45.51217" lon="9.2739917"><ele>127.00000000000001</ele><time>2026-04-25T09:15:32.632Z</time></trkpt><trkpt lat="45.5121733" lon="9.2738667"><ele>127.0</ele><time>2026-04-25T09:15:33.631Z</time></trkpt><trkpt lat="45.512175" lon="9.2737417"><ele>127.00000000000001</ele><time>2026-04-25T09:15:34.63Z</time></trkpt><trkpt lat="45.5121767" lon="9.2736117"><ele>127.0</ele><time>2026-04-25T09:15:35.631Z</time></trkpt><trkpt lat="45.5121783" lon="9.27349"><ele>127.0</ele><time>2026-04-25T09:15:36.628Z</time></trkpt><trkpt lat="45.5121817" lon="9.2733633"><ele>127.0</ele><time>2026-04-25T09:15:37.631Z</time></trkpt><trkpt lat="45.5121833" lon="9.27324"><ele>127.00000000000001</ele><time>2026-04-25T09:15:38.629Z</time></trkpt><trkpt lat="45.51218" lon="9.2731167"><ele>127.0</ele><time>2026-04-25T09:15:39.629Z</time></trkpt><trkpt lat="45.5121833" lon="9.2729917"><ele>127.00000000000001</ele><time>2026-04-25T09:15:40.63Z</time></trkpt><trkpt lat="45.51219" lon="9.2728667"><ele>127.0</ele><time>2026-04-25T09:15:41.629Z</time></trkpt><trkpt lat="45.5121967" lon="9.27275"><ele>127.0</ele><time>2026-04-25T09:15:42.628Z</time></trkpt><trkpt lat="45.512205" lon="9.2726383"><ele>127.0</ele><time>2026-04-25T09:15:43.631Z</time></trkpt><trkpt lat="45.5122117" lon="9.2725217"><ele>127.00000000000001</ele><time>2026-04-25T09:15:44.631Z</time></trkpt><trkpt lat="45.5122183" lon="9.272405"><ele>127.0</ele><time>2026-04-25T09:15:45.63Z</time></trkpt><trkpt lat="45.5122217" lon="9.2722867"><ele>126.83333333333334</ele><time>2026-04-25T09:15:46.629Z</time></trkpt><trkpt lat="45.5122267" lon="9.27217"><ele>126.66666666666667</ele><time>2026-04-25T09:15:47.629Z</time></trkpt><trkpt lat="45.5122317" lon="9.2720533"><ele>126.5</ele><time>2026-04-25T09:15:48.631Z</time></trkpt><trkpt lat="45.5122367" lon="9.2719333"><ele>126.33333333333334</ele><time>2026-04-25T09:15:49.631Z</time></trkpt><trkpt lat="45.512245" lon="9.2718133"><ele>126.16666666666667</ele><time>2026-04-25T09:15:50.631Z</time></trkpt><trkpt lat="45.512245" lon="9.2717033"><ele>126.0</ele><time>2026-04-25T09:15:51.631Z</time></trkpt><trkpt lat="45.51224" lon="9.2715783"><ele>126.0</ele><time>2026-04-25T09:15:52.63Z</time></trkpt><trkpt lat="45.5122533" lon="9.271465"><ele>126.0</ele><time>2026-04-25T09:15:53.635Z</time></trkpt><trkpt lat="45.5122617" lon="9.2713533"><ele>126.0</ele><time>2026-04-25T09:15:54.631Z</time></trkpt><trkpt lat="45.512265" lon="9.2712467"><ele>126.0</ele><time>2026-04-25T09:15:55.632Z</time></trkpt><trkpt lat="45.51227" lon="9.271145"><ele>126.0</ele><time>2026-04-25T09:15:56.631Z</time></trkpt><trkpt lat="45.5122767" lon="9.2710367"><ele>126.0</ele><time>2026-04-25T09:15:57.63Z</time></trkpt><trkpt lat="45.5122833" lon="9.2709317"><ele>126.14285714285714</ele><time>2026-04-25T09:15:58.631Z</time></trkpt><trkpt lat="45.5122917" lon="9.2708283"><ele>126.28571428571428</ele><time>2026-04-25T09:15:59.63Z</time></trkpt><trkpt lat="45.5122967" lon="9.27073"><ele>126.42857142857143</ele><time>2026-04-25T09:16:00.629Z</time></trkpt><trkpt lat="45.5123033" lon="9.270635"><ele>126.57142857142857</ele><time>2026-04-25T09:16:01.629Z</time></trkpt><trkpt lat="45.5123117" lon="9.2705233"><ele>126.71428571428571</ele><time>2026-04-25T09:16:02.631Z</time></trkpt><trkpt lat="45.5123167" lon="9.2704233"><ele>126.85714285714286</ele><time>2026-04-25T09:16:03.63Z</time></trkpt><trkpt lat="45.512325" lon="9.27032"><ele>127.0</ele><time>2026-04-25T09:16:04.63Z</time></trkpt><trkpt lat="45.5123267" lon="9.270215"><ele>127.28571428571429</ele><time>2026-04-25T09:16:05.629Z</time></trkpt><trkpt lat="45.5123283" lon="9.2701067"><ele>127.57142857142856</ele><time>2026-04-25T09:16:06.629Z</time></trkpt><trkpt lat="45.5123317" lon="9.270005"><ele>127.85714285714285</ele><time>2026-04-25T09:16:07.631Z</time></trkpt><trkpt lat="45.5123367" lon="9.2699017"><ele>128.14285714285714</ele><time>2026-04-25T09:16:08.631Z</time></trkpt><trkpt lat="45.5123433" lon="9.2698"><ele>128.42857142857142</ele><time>2026-04-25T09:16:09.629Z</time></trkpt><trkpt lat="45.512345" lon="9.2696983"><ele>128.7142857142857</ele><time>2026-04-25T09:16:10.631Z</time></trkpt><trkpt lat="45.5123483" lon="9.2695967"><ele>129.0</ele><time>2026-04-25T09:16:11.63Z</time></trkpt><trkpt lat="45.5123517" lon="9.2694967"><ele>129.0</ele><time>2026-04-25T09:16:12.629Z</time></trkpt><trkpt lat="45.5123583" lon="9.2693967"><ele>129.0</ele><time>2026-04-25T09:16:13.63Z</time></trkpt><trkpt lat="45.5123583" lon="9.2692933"><ele>129.0</ele><time>2026-04-25T09:16:14.63Z</time></trkpt><trkpt lat="45.51236" lon="9.2691867"><ele>129.0</ele><time>2026-04-25T09:16:15.629Z</time></trkpt><trkpt lat="45.5123633" lon="9.2690767"><ele>129.0</ele><time>2026-04-25T09:16:16.631Z</time></trkpt><trkpt lat="45.5123683" lon="9.2689667"><ele>129.0</ele><time>2026-04-25T09:16:17.631Z</time></trkpt><trkpt lat="45.5123767" lon="9.268855"><ele>128.7142857142857</ele><time>2026-04-25T09:16:18.631Z</time></trkpt><trkpt lat="45.5123833" lon="9.268745"><ele>128.42857142857142</ele><time>2026-04-25T09:16:19.632Z</time></trkpt><trkpt lat="45.5123933" lon="9.2686317"><ele>128.14285714285714</ele><time>2026-04-25T09:16:20.631Z</time></trkpt><trkpt lat="45.5124067" lon="9.2685217"><ele>127.85714285714285</ele><time>2026-04-25T09:16:21.63Z</time></trkpt><trkpt lat="45.5124233" lon="9.26842"><ele>127.57142857142856</ele><time>2026-04-25T09:16:22.629Z</time></trkpt><trkpt lat="45.5124417" lon="9.2683233"><ele>127.28571428571429</ele><time>2026-04-25T09:16:23.631Z</time></trkpt><trkpt lat="45.512465" lon="9.2682317"><ele>127.0</ele><time>2026-04-25T09:16:24.631Z</time></trkpt><trkpt lat="45.5124933" lon="9.2681367"><ele>127.16666666666667</ele><time>2026-04-25T09:16:25.631Z</time></trkpt><trkpt lat="45.5125217" lon="9.26805"><ele>127.33333333333334</ele><time>2026-04-25T09:16:26.631Z</time></trkpt><trkpt lat="45.5125917" lon="9.267905"><ele>127.5</ele><time>2026-04-25T09:16:28.633Z</time></trkpt><trkpt lat="45.5126467" lon="9.2678317"><ele>127.66666666666666</ele><time>2026-04-25T09:16:29.632Z</time></trkpt><trkpt lat="45.5127067" lon="9.2677733"><ele>127.83333333333333</ele><time>2026-04-25T09:16:30.631Z</time></trkpt><trkpt lat="45.512765" lon="9.2677233"><ele>128.0</ele><time>2026-04-25T09:16:31.631Z</time></trkpt><trkpt lat="45.51282" lon="9.2676733"><ele>127.49999999999999</ele><time>2026-04-25T09:16:32.632Z</time></trkpt><trkpt lat="45.5129267" lon="9.267575"><ele>127.0</ele><time>2026-04-25T09:16:34.631Z</time></trkpt><trkpt lat="45.5129733" lon="9.2675"><ele>126.5</ele><time>2026-04-25T09:16:35.632Z</time></trkpt><trkpt lat="45.5130133" lon="9.267415"><ele>126.0</ele><time>2026-04-25T09:16:36.629Z</time></trkpt><trkpt lat="45.5130417" lon="9.26732"><ele>125.49999999999999</ele><time>2026-04-25T09:16:37.629Z</time></trkpt><trkpt lat="45.513055" lon="9.2672183"><ele>125.0</ele><time>2026-04-25T09:16:38.632Z</time></trkpt><trkpt lat="45.5130533" lon="9.2671167"><ele>125.0</ele><time>2026-04-25T09:16:39.634Z</time></trkpt><trkpt lat="45.513035" lon="9.2670267"><ele>125.0</ele><time>2026-04-25T09:16:40.631Z</time></trkpt><trkpt lat="45.5130067" lon="9.2669433"><ele>125.0</ele><time>2026-04-25T09:16:41.63Z</time></trkpt><trkpt lat="45.512965" lon="9.26687"><ele>125.0</ele><time>2026-04-25T09:16:42.631Z</time></trkpt><trkpt lat="45.51291" lon="9.2668133"><ele>125.0</ele><time>2026-04-25T09:16:43.63Z</time></trkpt><trkpt lat="45.5128517" lon="9.2667667"><ele>125.0</ele><time>2026-04-25T09:16:44.632Z</time></trkpt><trkpt lat="45.51279" lon="9.266725"><ele>125.0</ele><time>2026-04-25T09:16:45.63Z</time></trkpt><trkpt lat="45.5127267" lon="9.266685"><ele>125.14285714285714</ele><time>2026-04-25T09:16:46.631Z</time></trkpt><trkpt lat="45.5126633" lon="9.26663"><ele>125.28571428571429</ele><time>2026-04-25T09:16:47.631Z</time></trkpt><trkpt lat="45.5126083" lon="9.2665633"><ele>125.42857142857143</ele><time>2026-04-25T09:16:48.63Z</time></trkpt><trkpt lat="45.5125667" lon="9.26648"><ele>125.57142857142857</ele><time>2026-04-25T09:16:49.631Z</time></trkpt><trkpt lat="45.51254" lon="9.2663833"><ele>125.71428571428572</ele><time>2026-04-25T09:16:50.631Z</time></trkpt><trkpt lat="45.5125267" lon="9.2662817"><ele>125.85714285714286</ele><time>2026-04-25T09:16:51.63Z</time></trkpt><trkpt lat="45.5125217" lon="9.26618"><ele>126.0</ele><time>2026-04-25T09:16:52.631Z</time></trkpt><trkpt lat="45.5125217" lon="9.266075"><ele>126.0</ele><time>2026-04-25T09:16:53.631Z</time></trkpt><trkpt lat="45.5125283" lon="9.265975"><ele>126.0</ele><time>2026-04-25T09:16:54.632Z</time></trkpt><trkpt lat="45.512535" lon="9.26587"><ele>126.0</ele><time>2026-04-25T09:16:55.63Z</time></trkpt><trkpt lat="45.51254" lon="9.2657683"><ele>126.0</ele><time>2026-04-25T09:16:56.632Z</time></trkpt><trkpt lat="45.5125467" lon="9.2656717"><ele>126.0</ele><time>2026-04-25T09:16:57.631Z</time></trkpt><trkpt lat="45.5125533" lon="9.2655783"><ele>126.0</ele><time>2026-04-25T09:16:58.633Z</time></trkpt><trkpt lat="45.5125567" lon="9.26548"><ele>126.0</ele><time>2026-04-25T09:16:59.63Z</time></trkpt><trkpt lat="45.5125633" lon="9.2653833"><ele>126.0</ele><time>2026-04-25T09:17:00.629Z</time></trkpt><trkpt lat="45.5125667" lon="9.2652833"><ele>126.0</ele><time>2026-04-25T09:17:01.629Z</time></trkpt><trkpt lat="45.5125717" lon="9.2651883"><ele>126.0</ele><time>2026-04-25T09:17:02.631Z</time></trkpt><trkpt lat="45.5125767" lon="9.26509"><ele>126.0</ele><time>2026-04-25T09:17:03.629Z</time></trkpt><trkpt lat="45.5125817" lon="9.2649967"><ele>126.0</ele><time>2026-04-25T09:17:04.63Z</time></trkpt><trkpt lat="45.5125833" lon="9.2648983"><ele>126.0</ele><time>2026-04-25T09:17:05.631Z</time></trkpt><trkpt lat="45.5125867" lon="9.2648"><ele>126.0</ele><time>2026-04-25T09:17:06.629Z</time></trkpt><trkpt lat="45.51259" lon="9.264705"><ele>126.4</ele><time>2026-04-25T09:17:07.627Z</time></trkpt><trkpt lat="45.512595" lon="9.26461"><ele>126.8</ele><time>2026-04-25T09:17:08.629Z</time></trkpt><trkpt lat="45.5125933" lon="9.2644517"><ele>127.20000000000002</ele><time>2026-04-25T09:17:10.628Z</time></trkpt><trkpt lat="45.5125917" lon="9.264255"><ele>127.60000000000001</ele><time>2026-04-25T09:17:12.633Z</time></trkpt><trkpt lat="45.5126117" lon="9.2641133"><ele>128.0</ele><time>2026-04-25T09:17:13.63Z</time></trkpt><trkpt lat="45.5126233" lon="9.2640167"><ele>127.85714285714285</ele><time>2026-04-25T09:17:14.63Z</time></trkpt><trkpt lat="45.51263" lon="9.2639267"><ele>127.7142857142857</ele><time>2026-04-25T09:17:15.629Z</time></trkpt><trkpt lat="45.5126283" lon="9.2638333"><ele>127.57142857142857</ele><time>2026-04-25T09:17:16.631Z</time></trkpt><trkpt lat="45.5126317" lon="9.26374"><ele>127.42857142857142</ele><time>2026-04-25T09:17:17.629Z</time></trkpt><trkpt lat="45.512635" lon="9.26365"><ele>127.28571428571428</ele><time>2026-04-25T09:17:18.631Z</time></trkpt><trkpt lat="45.5126417" lon="9.2635533"><ele>127.14285714285714</ele><time>2026-04-25T09:17:19.631Z</time></trkpt><trkpt lat="45.5126483" lon="9.2634567"><ele>127.0</ele><time>2026-04-25T09:17:20.632Z</time></trkpt><trkpt lat="45.51266" lon="9.2633683"><ele>127.0</ele><time>2026-04-25T09:17:21.631Z</time></trkpt><trkpt lat="45.512675" lon="9.2632767"><ele>127.0</ele><time>2026-04-25T09:17:22.633Z</time></trkpt><trkpt lat="45.5126983" lon="9.26319"><ele>127.0</ele><time>2026-04-25T09:17:23.632Z</time></trkpt><trkpt lat="45.5127133" lon="9.2630917"><ele>127.0</ele><time>2026-04-25T09:17:24.633Z</time></trkpt><trkpt lat="45.512725" lon="9.2629983"><ele>127.0</ele><time>2026-04-25T09:17:25.632Z</time></trkpt><trkpt lat="45.5127367" lon="9.2629017"><ele>127.0</ele><time>2026-04-25T09:17:26.63Z</time></trkpt><trkpt lat="45.512745" lon="9.262805"><ele>127.0</ele><time>2026-04-25T09:17:27.629Z</time></trkpt><trkpt lat="45.5127467" lon="9.2627117"><ele>127.00000000000001</ele><time>2026-04-25T09:17:28.629Z</time></trkpt><trkpt lat="45.51275" lon="9.2626183"><ele>127.0</ele><time>2026-04-25T09:17:29.629Z</time></trkpt><trkpt lat="45.51275" lon="9.262435"><ele>127.0</ele><time>2026-04-25T09:17:31.628Z</time></trkpt><trkpt lat="45.5127483" lon="9.262335"><ele>127.0</ele><time>2026-04-25T09:17:32.63Z</time></trkpt><trkpt lat="45.51275" lon="9.2622333"><ele>127.00000000000001</ele><time>2026-04-25T09:17:33.63Z</time></trkpt><trkpt lat="45.5127533" lon="9.26213"><ele>127.0</ele><time>2026-04-25T09:17:34.631Z</time></trkpt><trkpt lat="45.5127533" lon="9.2620317"><ele>127.00000000000001</ele><time>2026-04-25T09:17:35.629Z</time></trkpt><trkpt lat="45.5127533" lon="9.261935"><ele>127.0</ele><time>2026-04-25T09:17:36.629Z</time></trkpt><trkpt lat="45.5127533" lon="9.2618333"><ele>127.0</ele><time>2026-04-25T09:17:37.629Z</time></trkpt><trkpt lat="45.5127467" lon="9.2617267"><ele>127.0</ele><time>2026-04-25T09:17:38.629Z</time></trkpt><trkpt lat="45.512735" lon="9.2616117"><ele>127.00000000000001</ele><time>2026-04-25T09:17:39.629Z</time></trkpt><trkpt lat="45.5127117" lon="9.261495"><ele>127.0</ele><time>2026-04-25T09:17:40.628Z</time></trkpt><trkpt lat="45.5126883" lon="9.26138"><ele>127.33333333333334</ele><time>2026-04-25T09:17:41.627Z</time></trkpt><trkpt lat="45.512665" lon="9.2612683"><ele>127.66666666666667</ele><time>2026-04-25T09:17:42.628Z</time></trkpt><trkpt lat="45.5126417" lon="9.2611717"><ele>128.0</ele><time>2026-04-25T09:17:43.63Z</time></trkpt><trkpt lat="45.5126217" lon="9.2610617"><ele>128.33333333333334</ele><time>2026-04-25T09:17:44.63Z</time></trkpt><trkpt lat="45.512595" lon="9.2609467"><ele>128.66666666666666</ele><time>2026-04-25T09:17:45.631Z</time></trkpt><trkpt lat="45.512565" lon="9.26084"><ele>129.0</ele><time>2026-04-25T09:17:46.629Z</time></trkpt><trkpt lat="45.5125367" lon="9.2607383"><ele>129.0</ele><time>2026-04-25T09:17:47.63Z</time></trkpt><trkpt lat="45.51251" lon="9.2606267"><ele>129.0</ele><time>2026-04-25T09:17:48.632Z</time></trkpt><trkpt lat="45.5124833" lon="9.2605233"><ele>129.0</ele><time>2026-04-25T09:17:49.63Z</time></trkpt><trkpt lat="45.512455" lon="9.2604233"><ele>129.0</ele><time>2026-04-25T09:17:50.633Z</time></trkpt><trkpt lat="45.51243" lon="9.260325"><ele>129.0</ele><time>2026-04-25T09:17:51.629Z</time></trkpt><trkpt lat="45.5124083" lon="9.2602267"><ele>129.0</ele><time>2026-04-25T09:17:52.63Z</time></trkpt><trkpt lat="45.5123867" lon="9.26013"><ele>128.83333333333334</ele><time>2026-04-25T09:17:53.629Z</time></trkpt><trkpt lat="45.5123717" lon="9.260035"><ele>128.66666666666666</ele><time>2026-04-25T09:17:54.628Z</time></trkpt><trkpt lat="45.512355" lon="9.2599383"><ele>128.5</ele><time>2026-04-25T09:17:55.629Z</time></trkpt><trkpt lat="45.51234" lon="9.259845"><ele>128.33333333333331</ele><time>2026-04-25T09:17:56.629Z</time></trkpt><trkpt lat="45.5123283" lon="9.25975"><ele>128.16666666666666</ele><time>2026-04-25T09:17:57.63Z</time></trkpt><trkpt lat="45.51231" lon="9.2595667"><ele>128.0</ele><time>2026-04-25T09:17:59.629Z</time></trkpt><trkpt lat="45.5122983" lon="9.259475"><ele>127.71428571428571</ele><time>2026-04-25T09:18:00.629Z</time></trkpt><trkpt lat="45.5122917" lon="9.2593833"><ele>127.42857142857142</ele><time>2026-04-25T09:18:01.629Z</time></trkpt><trkpt lat="45.51228" lon="9.2592933"><ele>127.14285714285714</ele><time>2026-04-25T09:18:02.63Z</time></trkpt><trkpt lat="45.5122667" lon="9.259205"><ele>126.85714285714286</ele><time>2026-04-25T09:18:03.63Z</time></trkpt><trkpt lat="45.5122533" lon="9.259115"><ele>126.57142857142857</ele><time>2026-04-25T09:18:04.632Z</time></trkpt><trkpt lat="45.5122267" lon="9.2589433"><ele>126.28571428571428</ele><time>2026-04-25T09:18:06.629Z</time></trkpt><trkpt lat="45.5122133" lon="9.25885"><ele>126.0</ele><time>2026-04-25T09:18:07.631Z</time></trkpt><trkpt lat="45.5121967" lon="9.25876"><ele>126.0</ele><time>2026-04-25T09:18:08.63Z</time></trkpt><trkpt lat="45.512175" lon="9.258675"><ele>126.0</ele><time>2026-04-25T09:18:09.631Z</time></trkpt><trkpt lat="45.5121517" lon="9.25859"><ele>126.0</ele><time>2026-04-25T09:18:10.629Z</time></trkpt><trkpt lat="45.5121333" lon="9.2584967"><ele>126.0</ele><time>2026-04-25T09:18:11.63Z</time></trkpt><trkpt lat="45.5121317" lon="9.2584033"><ele>126.0</ele><time>2026-04-25T09:18:12.628Z</time></trkpt><trkpt lat="45.5121517" lon="9.2583133"><ele>126.0</ele><time>2026-04-25T09:18:13.629Z</time></trkpt><trkpt lat="45.5121883" lon="9.2582367"><ele>126.0</ele><time>2026-04-25T09:18:14.629Z</time></trkpt><trkpt lat="45.5122783" lon="9.2581617"><ele>126.0</ele><time>2026-04-25T09:18:16.63Z</time></trkpt><trkpt lat="45.51234" lon="9.2581267"><ele>126.0</ele><time>2026-04-25T09:18:17.631Z</time></trkpt><trkpt lat="45.5124717" lon="9.2580817"><ele>126.0</ele><time>2026-04-25T09:18:19.628Z</time></trkpt><trkpt lat="45.5125417" lon="9.25805"><ele>126.0</ele><time>2026-04-25T09:18:20.63Z</time></trkpt><trkpt lat="45.5126033" lon="9.25801"><ele>126.0</ele><time>2026-04-25T09:18:21.63Z</time></trkpt><trkpt lat="45.5126583" lon="9.2579517"><ele>126.0</ele><time>2026-04-25T09:18:22.633Z</time></trkpt><trkpt lat="45.512705" lon="9.2578783"><ele>126.66666666666667</ele><time>2026-04-25T09:18:23.63Z</time></trkpt><trkpt lat="45.51274" lon="9.2578017"><ele>127.33333333333334</ele><time>2026-04-25T09:18:24.63Z</time></trkpt><trkpt lat="45.5127867" lon="9.25767"><ele>128.0</ele><time>2026-04-25T09:18:26.632Z</time></trkpt><trkpt lat="45.5128383" lon="9.2575233"><ele>128.66666666666669</ele><time>2026-04-25T09:18:28.63Z</time></trkpt><trkpt lat="45.5128933" lon="9.2574633"><ele>129.33333333333334</ele><time>2026-04-25T09:18:29.629Z</time></trkpt><trkpt lat="45.5129517" lon="9.25741"><ele>130.0</ele><time>2026-04-25T09:18:30.631Z</time></trkpt><trkpt lat="45.5130033" lon="9.2573517"><ele>129.6</ele><time>2026-04-25T09:18:31.631Z</time></trkpt><trkpt lat="45.5130567" lon="9.257275"><ele>129.2</ele><time>2026-04-25T09:18:32.629Z</time></trkpt><trkpt lat="45.5130933" lon="9.2571933"><ele>128.8</ele><time>2026-04-25T09:18:33.628Z</time></trkpt><trkpt lat="45.513145" lon="9.2570367"><ele>128.4</ele><time>2026-04-25T09:18:35.629Z</time></trkpt><trkpt lat="45.5131667" lon="9.2568733"><ele>128.0</ele><time>2026-04-25T09:18:37.628Z</time></trkpt><trkpt lat="45.5131083" lon="9.2567467"><ele>127.99999999999999</ele><time>2026-04-25T09:18:39.629Z</time></trkpt><trkpt lat="45.5130033" lon="9.2566667"><ele>128.0</ele><time>2026-04-25T09:18:41.63Z</time></trkpt><trkpt lat="45.5128783" lon="9.2566483"><ele>128.0</ele><time>2026-04-25T09:18:43.632Z</time></trkpt><trkpt lat="45.5128133" lon="9.2566583"><ele>128.0</ele><time>2026-04-25T09:18:44.63Z</time></trkpt><trkpt lat="45.51275" lon="9.25667"><ele>127.99999999999999</ele><time>2026-04-25T09:18:45.629Z</time></trkpt><trkpt lat="45.5126833" lon="9.25667"><ele>128.0</ele><time>2026-04-25T09:18:46.631Z</time></trkpt><trkpt lat="45.5126133" lon="9.2566583"><ele>128.0</ele><time>2026-04-25T09:18:47.63Z</time></trkpt><trkpt lat="45.5125417" lon="9.2566233"><ele>127.99999999999999</ele><time>2026-04-25T09:18:48.631Z</time></trkpt><trkpt lat="45.5124717" lon="9.2565867"><ele>128.0</ele><time>2026-04-25T09:18:49.63Z</time></trkpt><trkpt lat="45.5123983" lon="9.2565467"><ele>128.0</ele><time>2026-04-25T09:18:50.631Z</time></trkpt><trkpt lat="45.51233" lon="9.256505"><ele>127.99999999999999</ele><time>2026-04-25T09:18:51.629Z</time></trkpt><trkpt lat="45.5122633" lon="9.2564617"><ele>128.0</ele><time>2026-04-25T09:18:52.632Z</time></trkpt><trkpt lat="45.5122" lon="9.2564117"><ele>128.0</ele><time>2026-04-25T09:18:53.629Z</time></trkpt><trkpt lat="45.5121333" lon="9.25636"><ele>127.99999999999999</ele><time>2026-04-25T09:18:54.631Z</time></trkpt><trkpt lat="45.51207" lon="9.2563033"><ele>128.0</ele><time>2026-04-25T09:18:55.63Z</time></trkpt><trkpt lat="45.5120033" lon="9.2562433"><ele>128.0</ele><time>2026-04-25T09:18:56.631Z</time></trkpt><trkpt lat="45.5119383" lon="9.2561767"><ele>128.0</ele><time>2026-04-25T09:18:57.631Z</time></trkpt><trkpt lat="45.5118733" lon="9.2561067"><ele>127.99999999999999</ele><time>2026-04-25T09:18:58.629Z</time></trkpt><trkpt lat="45.5118133" lon="9.2560333"><ele>128.0</ele><time>2026-04-25T09:18:59.629Z</time></trkpt><trkpt lat="45.5117583" lon="9.25596"><ele>127.99999999999999</ele><time>2026-04-25T09:19:00.629Z</time></trkpt><trkpt lat="45.511705" lon="9.2558833"><ele>128.0</ele><time>2026-04-25T09:19:01.629Z</time></trkpt><trkpt lat="45.5116533" lon="9.2558083"><ele>128.0</ele><time>2026-04-25T09:19:02.63Z</time></trkpt><trkpt lat="45.5116067" lon="9.2557333"><ele>128.0</ele><time>2026-04-25T09:19:03.629Z</time></trkpt><trkpt lat="45.5115617" lon="9.2556633"><ele>127.99999999999999</ele><time>2026-04-25T09:19:04.629Z</time></trkpt><trkpt lat="45.5115183" lon="9.2555917"><ele>128.0</ele><time>2026-04-25T09:19:05.63Z</time></trkpt><trkpt lat="45.51144" lon="9.2554567"><ele>128.4</ele><time>2026-04-25T09:19:07.629Z</time></trkpt><trkpt lat="45.5113883" lon="9.2553083"><ele>128.8</ele><time>2026-04-25T09:19:09.629Z</time></trkpt><trkpt lat="45.5113217" lon="9.2551867"><ele>129.2</ele><time>2026-04-25T09:19:11.63Z</time></trkpt><trkpt lat="45.5111983" lon="9.2551667"><ele>129.6</ele><time>2026-04-25T09:19:13.632Z</time></trkpt><trkpt lat="45.5111333" lon="9.2551583"><ele>130.0</ele><time>2026-04-25T09:19:14.632Z</time></trkpt><trkpt lat="45.5110133" lon="9.2550833"><ele>129.57142857142858</ele><time>2026-04-25T09:19:16.63Z</time></trkpt><trkpt lat="45.510955" lon="9.2550267"><ele>129.14285714285714</ele><time>2026-04-25T09:19:17.628Z</time></trkpt><trkpt lat="45.5109" lon="9.2549633"><ele>128.71428571428572</ele><time>2026-04-25T09:19:18.63Z</time></trkpt><trkpt lat="45.5108467" lon="9.2548983"><ele>128.28571428571428</ele><time>2026-04-25T09:19:19.63Z</time></trkpt><trkpt lat="45.5107933" lon="9.254825"><ele>127.85714285714286</ele><time>2026-04-25T09:19:20.63Z</time></trkpt><trkpt lat="45.5107383" lon="9.2547483"><ele>127.42857142857143</ele><time>2026-04-25T09:19:21.629Z</time></trkpt><trkpt lat="45.510685" lon="9.2546683"><ele>127.0</ele><time>2026-04-25T09:19:22.629Z</time></trkpt><trkpt lat="45.5106317" lon="9.25459"><ele>127.00000000000001</ele><time>2026-04-25T09:19:23.63Z</time></trkpt><trkpt lat="45.5105767" lon="9.2545167"><ele>127.0</ele><time>2026-04-25T09:19:24.631Z</time></trkpt><trkpt lat="45.5105183" lon="9.2544467"><ele>127.0</ele><time>2026-04-25T09:19:25.63Z</time></trkpt><trkpt lat="45.51046" lon="9.254375"><ele>127.0</ele><time>2026-04-25T09:19:26.63Z</time></trkpt><trkpt lat="45.5104033" lon="9.2543017"><ele>127.00000000000001</ele><time>2026-04-25T09:19:27.63Z</time></trkpt><trkpt lat="45.51035" lon="9.2542367"><ele>127.0</ele><time>2026-04-25T09:19:28.631Z</time></trkpt><trkpt lat="45.5102933" lon="9.254165"><ele>127.00000000000001</ele><time>2026-04-25T09:19:29.63Z</time></trkpt><trkpt lat="45.51024" lon="9.2540983"><ele>127.0</ele><time>2026-04-25T09:19:30.63Z</time></trkpt><trkpt lat="45.5101917" lon="9.2540133"><ele>127.0</ele><time>2026-04-25T09:19:31.632Z</time></trkpt><trkpt lat="45.5101417" lon="9.2539283"><ele>127.0</ele><time>2026-04-25T09:19:32.633Z</time></trkpt><trkpt lat="45.5100883" lon="9.253845"><ele>127.00000000000001</ele><time>2026-04-25T09:19:33.633Z</time></trkpt><trkpt lat="45.5100333" lon="9.2537633"><ele>127.0</ele><time>2026-04-25T09:19:34.629Z</time></trkpt><trkpt lat="45.50998" lon="9.25369"><ele>127.00000000000001</ele><time>2026-04-25T09:19:35.631Z</time></trkpt><trkpt lat="45.5099267" lon="9.253615"><ele>127.0</ele><time>2026-04-25T09:19:36.632Z</time></trkpt><trkpt lat="45.50987" lon="9.2535367"><ele>127.0</ele><time>2026-04-25T09:19:37.631Z</time></trkpt><trkpt lat="45.5098167" lon="9.25346"><ele>127.0</ele><time>2026-04-25T09:19:38.631Z</time></trkpt><trkpt lat="45.5097617" lon="9.2533817"><ele>127.00000000000001</ele><time>2026-04-25T09:19:39.632Z</time></trkpt><trkpt lat="45.5097067" lon="9.2533033"><ele>127.0</ele><time>2026-04-25T09:19:40.631Z</time></trkpt><trkpt lat="45.5096517" lon="9.2532317"><ele>127.00000000000001</ele><time>2026-04-25T09:19:41.63Z</time></trkpt><trkpt lat="45.5095933" lon="9.2531517"><ele>127.0</ele><time>2026-04-25T09:19:42.631Z</time></trkpt><trkpt lat="45.5095333" lon="9.2530783"><ele>127.0</ele><time>2026-04-25T09:19:43.631Z</time></trkpt><trkpt lat="45.5094733" lon="9.2530067"><ele>127.0</ele><time>2026-04-25T09:19:44.632Z</time></trkpt><trkpt lat="45.5094133" lon="9.25293"><ele>127.00000000000001</ele><time>2026-04-25T09:19:45.63Z</time></trkpt><trkpt lat="45.5093567" lon="9.2528567"><ele>127.0</ele><time>2026-04-25T09:19:46.63Z</time></trkpt><trkpt lat="45.5092983" lon="9.252785"><ele>127.66666666666667</ele><time>2026-04-25T09:19:47.631Z</time></trkpt><trkpt lat="45.5092383" lon="9.2527083"><ele>128.33333333333334</ele><time>2026-04-25T09:19:48.63Z</time></trkpt><trkpt lat="45.50918" lon="9.2526317"><ele>129.0</ele><time>2026-04-25T09:19:49.632Z</time></trkpt><trkpt lat="45.5091217" lon="9.2525533"><ele>129.66666666666666</ele><time>2026-04-25T09:19:50.632Z</time></trkpt><trkpt lat="45.5090633" lon="9.252475"><ele>130.33333333333331</ele><time>2026-04-25T09:19:51.63Z</time></trkpt><trkpt lat="45.5090083" lon="9.2524017"><ele>131.0</ele><time>2026-04-25T09:19:52.631Z</time></trkpt><trkpt lat="45.5089517" lon="9.252325"><ele>130.5</ele><time>2026-04-25T09:19:53.632Z</time></trkpt><trkpt lat="45.5088917" lon="9.2522467"><ele>130.0</ele><time>2026-04-25T09:19:54.629Z</time></trkpt><trkpt lat="45.50883" lon="9.2521667"><ele>129.5</ele><time>2026-04-25T09:19:55.631Z</time></trkpt><trkpt lat="45.5087683" lon="9.2520933"><ele>129.0</ele><time>2026-04-25T09:19:56.631Z</time></trkpt><trkpt lat="45.5087083" lon="9.252015"><ele>128.5</ele><time>2026-04-25T09:19:57.63Z</time></trkpt><trkpt lat="45.5086467" lon="9.2519333"><ele>128.0</ele><time>2026-04-25T09:19:58.631Z</time></trkpt><trkpt lat="45.508585" lon="9.2518483"><ele>127.99999999999999</ele><time>2026-04-25T09:19:59.632Z</time></trkpt><trkpt lat="45.5085267" lon="9.2517733"><ele>128.0</ele><time>2026-04-25T09:20:00.63Z</time></trkpt><trkpt lat="45.5084633" lon="9.25169"><ele>128.0</ele><time>2026-04-25T09:20:01.629Z</time></trkpt><trkpt lat="45.5083983" lon="9.2516083"><ele>128.0</ele><time>2026-04-25T09:20:02.63Z</time></trkpt><trkpt lat="45.5083383" lon="9.251525"><ele>127.99999999999999</ele><time>2026-04-25T09:20:03.629Z</time></trkpt><trkpt lat="45.508275" lon="9.2514383"><ele>128.0</ele><time>2026-04-25T09:20:04.629Z</time></trkpt><trkpt lat="45.508215" lon="9.25135"><ele>127.99999999999999</ele><time>2026-04-25T09:20:05.63Z</time></trkpt><trkpt lat="45.5081583" lon="9.2512683"><ele>128.0</ele><time>2026-04-25T09:20:06.632Z</time></trkpt><trkpt lat="45.508095" lon="9.251185"><ele>128.0</ele><time>2026-04-25T09:20:07.631Z</time></trkpt><trkpt lat="45.508035" lon="9.2511033"><ele>128.0</ele><time>2026-04-25T09:20:08.632Z</time></trkpt><trkpt lat="45.5079767" lon="9.2510267"><ele>127.99999999999999</ele><time>2026-04-25T09:20:09.632Z</time></trkpt><trkpt lat="45.5079133" lon="9.2509617"><ele>128.0</ele><time>2026-04-25T09:20:10.631Z</time></trkpt><trkpt lat="45.5078533" lon="9.250885"><ele>128.33333333333331</ele><time>2026-04-25T09:20:11.631Z</time></trkpt><trkpt lat="45.5077917" lon="9.2508067"><ele>128.66666666666666</ele><time>2026-04-25T09:20:12.632Z</time></trkpt><trkpt lat="45.5077283" lon="9.25073"><ele>129.0</ele><time>2026-04-25T09:20:13.629Z</time></trkpt><trkpt lat="45.507665" lon="9.25066"><ele>129.33333333333334</ele><time>2026-04-25T09:20:14.632Z</time></trkpt><trkpt lat="45.5076017" lon="9.25059"><ele>129.66666666666669</ele><time>2026-04-25T09:20:15.632Z</time></trkpt><trkpt lat="45.5075417" lon="9.2505183"><ele>130.0</ele><time>2026-04-25T09:20:16.632Z</time></trkpt><trkpt lat="45.5074867" lon="9.2504383"><ele>130.33333333333334</ele><time>2026-04-25T09:20:17.631Z</time></trkpt><trkpt lat="45.5074333" lon="9.25036"><ele>130.66666666666669</ele><time>2026-04-25T09:20:18.632Z</time></trkpt><trkpt lat="45.50738" lon="9.2502833"><ele>131.0</ele><time>2026-04-25T09:20:19.631Z</time></trkpt><trkpt lat="45.507325" lon="9.2502117"><ele>131.33333333333334</ele><time>2026-04-25T09:20:20.631Z</time></trkpt><trkpt lat="45.5072717" lon="9.2501367"><ele>131.66666666666666</ele><time>2026-04-25T09:20:21.631Z</time></trkpt><trkpt lat="45.507215" lon="9.250065"><ele>132.0</ele><time>2026-04-25T09:20:22.629Z</time></trkpt><trkpt lat="45.50716" lon="9.249995"><ele>132.0</ele><time>2026-04-25T09:20:23.632Z</time></trkpt><trkpt lat="45.5071083" lon="9.2499117"><ele>132.0</ele><time>2026-04-25T09:20:24.632Z</time></trkpt><trkpt lat="45.507055" lon="9.2498417"><ele>132.0</ele><time>2026-04-25T09:20:25.631Z</time></trkpt><trkpt lat="45.5070033" lon="9.2497683"><ele>132.0</ele><time>2026-04-25T09:20:26.632Z</time></trkpt><trkpt lat="45.5069483" lon="9.2496933"><ele>132.0</ele><time>2026-04-25T09:20:27.632Z</time></trkpt><trkpt lat="45.506895" lon="9.249625"><ele>132.0</ele><time>2026-04-25T09:20:28.631Z</time></trkpt><trkpt lat="45.5068417" lon="9.2495483"><ele>132.0</ele><time>2026-04-25T09:20:29.631Z</time></trkpt><trkpt lat="45.5067867" lon="9.2494767"><ele>131.71428571428572</ele><time>2026-04-25T09:20:30.631Z</time></trkpt><trkpt lat="45.50673" lon="9.249415"><ele>131.42857142857144</ele><time>2026-04-25T09:20:31.631Z</time></trkpt><trkpt lat="45.5066767" lon="9.2493467"><ele>131.14285714285717</ele><time>2026-04-25T09:20:32.63Z</time></trkpt><trkpt lat="45.5066233" lon="9.2492767"><ele>130.85714285714286</ele><time>2026-04-25T09:20:33.63Z</time></trkpt><trkpt lat="45.5065683" lon="9.2492117"><ele>130.57142857142858</ele><time>2026-04-25T09:20:34.629Z</time></trkpt><trkpt lat="45.5065167" lon="9.2491483"><ele>130.2857142857143</ele><time>2026-04-25T09:20:35.631Z</time></trkpt><trkpt lat="45.5064583" lon="9.24908"><ele>130.0</ele><time>2026-04-25T09:20:36.629Z</time></trkpt><trkpt lat="45.5064" lon="9.2490067"><ele>130.0</ele><time>2026-04-25T09:20:37.631Z</time></trkpt><trkpt lat="45.50634" lon="9.24893"><ele>130.0</ele><time>2026-04-25T09:20:38.631Z</time></trkpt><trkpt lat="45.5062817" lon="9.248855"><ele>130.0</ele><time>2026-04-25T09:20:39.629Z</time></trkpt><trkpt lat="45.5062267" lon="9.24878"><ele>130.0</ele><time>2026-04-25T09:20:40.631Z</time></trkpt><trkpt lat="45.5061733" lon="9.2487033"><ele>130.0</ele><time>2026-04-25T09:20:41.63Z</time></trkpt><trkpt lat="45.5061133" lon="9.24863"><ele>130.0</ele><time>2026-04-25T09:20:42.63Z</time></trkpt><trkpt lat="45.5060633" lon="9.2485617"><ele>130.00000000000003</ele><time>2026-04-25T09:20:43.631Z</time></trkpt><trkpt lat="45.50601" lon="9.2484933"><ele>130.0</ele><time>2026-04-25T09:20:44.631Z</time></trkpt><trkpt lat="45.50596" lon="9.2484233"><ele>130.0</ele><time>2026-04-25T09:20:45.631Z</time></trkpt><trkpt lat="45.5059117" lon="9.248355"><ele>130.0</ele><time>2026-04-25T09:20:46.629Z</time></trkpt><trkpt lat="45.50586" lon="9.2482867"><ele>130.0</ele><time>2026-04-25T09:20:47.629Z</time></trkpt><trkpt lat="45.50581" lon="9.2482183"><ele>130.00000000000003</ele><time>2026-04-25T09:20:48.63Z</time></trkpt><trkpt lat="45.50576" lon="9.2481517"><ele>130.0</ele><time>2026-04-25T09:20:49.629Z</time></trkpt><trkpt lat="45.50571" lon="9.2480833"><ele>129.85714285714286</ele><time>2026-04-25T09:20:50.631Z</time></trkpt><trkpt lat="45.5056583" lon="9.248015"><ele>129.71428571428572</ele><time>2026-04-25T09:20:51.63Z</time></trkpt><trkpt lat="45.5056067" lon="9.24795"><ele>129.57142857142856</ele><time>2026-04-25T09:20:52.63Z</time></trkpt><trkpt lat="45.505555" lon="9.247885"><ele>129.42857142857144</ele><time>2026-04-25T09:20:53.629Z</time></trkpt><trkpt lat="45.5055017" lon="9.2478167"><ele>129.28571428571428</ele><time>2026-04-25T09:20:54.63Z</time></trkpt><trkpt lat="45.5054517" lon="9.2477517"><ele>129.14285714285714</ele><time>2026-04-25T09:20:55.628Z</time></trkpt><trkpt lat="45.5054033" lon="9.247685"><ele>129.0</ele><time>2026-04-25T09:20:56.63Z</time></trkpt><trkpt lat="45.5053067" lon="9.2475617"><ele>128.99999999999997</ele><time>2026-04-25T09:20:58.63Z</time></trkpt><trkpt lat="45.5052567" lon="9.2474933"><ele>129.0</ele><time>2026-04-25T09:20:59.629Z</time></trkpt><trkpt lat="45.5052033" lon="9.2474317"><ele>129.0</ele><time>2026-04-25T09:21:00.63Z</time></trkpt><trkpt lat="45.5051517" lon="9.2473717"><ele>129.0</ele><time>2026-04-25T09:21:01.63Z</time></trkpt><trkpt lat="45.5051" lon="9.2473067"><ele>129.0</ele><time>2026-04-25T09:21:02.63Z</time></trkpt><trkpt lat="45.50505" lon="9.2472417"><ele>128.99999999999997</ele><time>2026-04-25T09:21:03.629Z</time></trkpt><trkpt lat="45.5050017" lon="9.2471817"><ele>129.0</ele><time>2026-04-25T09:21:04.629Z</time></trkpt><trkpt lat="45.5049517" lon="9.2471167"><ele>128.99999999999997</ele><time>2026-04-25T09:21:05.63Z</time></trkpt><trkpt lat="45.5048983" lon="9.2470483"><ele>129.0</ele><time>2026-04-25T09:21:06.629Z</time></trkpt><trkpt lat="45.504845" lon="9.2469783"><ele>129.0</ele><time>2026-04-25T09:21:07.632Z</time></trkpt><trkpt lat="45.504795" lon="9.24691"><ele>129.0</ele><time>2026-04-25T09:21:08.631Z</time></trkpt><trkpt lat="45.5047467" lon="9.2468383"><ele>129.0</ele><time>2026-04-25T09:21:09.628Z</time></trkpt><trkpt lat="45.5046917" lon="9.2467683"><ele>128.99999999999997</ele><time>2026-04-25T09:21:10.63Z</time></trkpt><trkpt lat="45.5046383" lon="9.2467"><ele>129.0</ele><time>2026-04-25T09:21:11.63Z</time></trkpt><trkpt lat="45.50459" lon="9.2466317"><ele>128.85714285714283</ele><time>2026-04-25T09:21:12.629Z</time></trkpt><trkpt lat="45.50454" lon="9.2465633"><ele>128.71428571428572</ele><time>2026-04-25T09:21:13.631Z</time></trkpt><trkpt lat="45.50449" lon="9.2464967"><ele>128.57142857142856</ele><time>2026-04-25T09:21:14.631Z</time></trkpt><trkpt lat="45.5044383" lon="9.2464317"><ele>128.42857142857142</ele><time>2026-04-25T09:21:15.63Z</time></trkpt><trkpt lat="45.5043867" lon="9.24636"><ele>128.28571428571428</ele><time>2026-04-25T09:21:16.63Z</time></trkpt><trkpt lat="45.5043317" lon="9.2462983"><ele>128.14285714285714</ele><time>2026-04-25T09:21:17.629Z</time></trkpt><trkpt lat="45.5042733" lon="9.24623"><ele>128.0</ele><time>2026-04-25T09:21:18.628Z</time></trkpt><trkpt lat="45.504215" lon="9.24616"><ele>128.42857142857142</ele><time>2026-04-25T09:21:19.627Z</time></trkpt><trkpt lat="45.5041567" lon="9.2461"><ele>128.85714285714283</ele><time>2026-04-25T09:21:20.63Z</time></trkpt><trkpt lat="45.5041033" lon="9.246035"><ele>129.28571428571428</ele><time>2026-04-25T09:21:21.627Z</time></trkpt><trkpt lat="45.50405" lon="9.245965"><ele>129.71428571428572</ele><time>2026-04-25T09:21:22.628Z</time></trkpt><trkpt lat="45.504" lon="9.2459"><ele>130.14285714285717</ele><time>2026-04-25T09:21:23.63Z</time></trkpt><trkpt lat="45.5039483" lon="9.2458267"><ele>130.57142857142858</ele><time>2026-04-25T09:21:24.629Z</time></trkpt><trkpt lat="45.5038967" lon="9.2457533"><ele>131.0</ele><time>2026-04-25T09:21:25.628Z</time></trkpt><trkpt lat="45.5038433" lon="9.24568"><ele>131.0</ele><time>2026-04-25T09:21:26.629Z</time></trkpt><trkpt lat="45.50379" lon="9.2456133"><ele>131.0</ele><time>2026-04-25T09:21:27.629Z</time></trkpt><trkpt lat="45.5037417" lon="9.245545"><ele>131.0</ele><time>2026-04-25T09:21:28.627Z</time></trkpt><trkpt lat="45.5036883" lon="9.2454767"><ele>131.0</ele><time>2026-04-25T09:21:29.631Z</time></trkpt><trkpt lat="45.5036383" lon="9.2454033"><ele>131.0</ele><time>2026-04-25T09:21:30.628Z</time></trkpt><trkpt lat="45.50359" lon="9.2453317"><ele>131.0</ele><time>2026-04-25T09:21:31.629Z</time></trkpt><trkpt lat="45.5035367" lon="9.245265"><ele>131.0</ele><time>2026-04-25T09:21:32.631Z</time></trkpt><trkpt lat="45.5034867" lon="9.2452033"><ele>130.57142857142858</ele><time>2026-04-25T09:21:33.629Z</time></trkpt><trkpt lat="45.5034333" lon="9.2451367"><ele>130.14285714285717</ele><time>2026-04-25T09:21:34.628Z</time></trkpt><trkpt lat="45.50338" lon="9.2450667"><ele>129.71428571428572</ele><time>2026-04-25T09:21:35.631Z</time></trkpt><trkpt lat="45.5033317" lon="9.2449883"><ele>129.28571428571428</ele><time>2026-04-25T09:21:36.631Z</time></trkpt><trkpt lat="45.5032817" lon="9.2449183"><ele>128.85714285714283</ele><time>2026-04-25T09:21:37.632Z</time></trkpt><trkpt lat="45.5032317" lon="9.2448433"><ele>128.42857142857142</ele><time>2026-04-25T09:21:38.629Z</time></trkpt><trkpt lat="45.5031767" lon="9.24477"><ele>128.0</ele><time>2026-04-25T09:21:39.628Z</time></trkpt><trkpt lat="45.5031217" lon="9.2447"><ele>127.85714285714285</ele><time>2026-04-25T09:21:40.629Z</time></trkpt><trkpt lat="45.503065" lon="9.24463"><ele>127.7142857142857</ele><time>2026-04-25T09:21:41.63Z</time></trkpt><trkpt lat="45.503005" lon="9.2445583"><ele>127.57142857142857</ele><time>2026-04-25T09:21:42.629Z</time></trkpt><trkpt lat="45.50295" lon="9.24448"><ele>127.42857142857142</ele><time>2026-04-25T09:21:43.632Z</time></trkpt><trkpt lat="45.5028983" lon="9.24441"><ele>127.28571428571428</ele><time>2026-04-25T09:21:44.628Z</time></trkpt><trkpt lat="45.502845" lon="9.24434"><ele>127.14285714285714</ele><time>2026-04-25T09:21:45.629Z</time></trkpt><trkpt lat="45.5027933" lon="9.244265"><ele>127.0</ele><time>2026-04-25T09:21:46.629Z</time></trkpt><trkpt lat="45.5027383" lon="9.2441933"><ele>127.0</ele><time>2026-04-25T09:21:47.629Z</time></trkpt><trkpt lat="45.5026867" lon="9.2441183"><ele>127.0</ele><time>2026-04-25T09:21:48.629Z</time></trkpt><trkpt lat="45.5026317" lon="9.2440433"><ele>127.0</ele><time>2026-04-25T09:21:49.628Z</time></trkpt><trkpt lat="45.502575" lon="9.2439733"><ele>127.0</ele><time>2026-04-25T09:21:50.628Z</time></trkpt><trkpt lat="45.5025183" lon="9.243905"><ele>127.0</ele><time>2026-04-25T09:21:51.628Z</time></trkpt><trkpt lat="45.5024633" lon="9.24384"><ele>127.0</ele><time>2026-04-25T09:21:52.628Z</time></trkpt><trkpt lat="45.5024083" lon="9.2437733"><ele>127.0</ele><time>2026-04-25T09:21:53.628Z</time></trkpt><trkpt lat="45.5023533" lon="9.24371"><ele>127.00000000000001</ele><time>2026-04-25T09:21:54.629Z</time></trkpt><trkpt lat="45.502305" lon="9.2436483"><ele>127.0</ele><time>2026-04-25T09:21:55.629Z</time></trkpt><trkpt lat="45.5022133" lon="9.2435217"><ele>127.0</ele><time>2026-04-25T09:21:57.628Z</time></trkpt><trkpt lat="45.502165" lon="9.24346"><ele>127.0</ele><time>2026-04-25T09:21:58.629Z</time></trkpt><trkpt lat="45.5021167" lon="9.2434017"><ele>127.00000000000001</ele><time>2026-04-25T09:21:59.628Z</time></trkpt><trkpt lat="45.50207" lon="9.24334"><ele>127.0</ele><time>2026-04-25T09:22:00.629Z</time></trkpt><trkpt lat="45.5019883" lon="9.24323"><ele>127.6</ele><time>2026-04-25T09:22:02.63Z</time></trkpt><trkpt lat="45.5019033" lon="9.2431283"><ele>128.2</ele><time>2026-04-25T09:22:04.629Z</time></trkpt><trkpt lat="45.5018383" lon="9.24302"><ele>128.8</ele><time>2026-04-25T09:22:06.627Z</time></trkpt><trkpt lat="45.501855" lon="9.2429217"><ele>129.4</ele><time>2026-04-25T09:22:08.637Z</time></trkpt><trkpt lat="45.5019" lon="9.242835"><ele>130.0</ele><time>2026-04-25T09:22:10.63Z</time></trkpt><trkpt lat="45.5019933" lon="9.2427433"><ele>130.0</ele><time>2026-04-25T09:22:12.627Z</time></trkpt><trkpt lat="45.5020383" lon="9.24268"><ele>130.0</ele><time>2026-04-25T09:22:13.633Z</time></trkpt><trkpt lat="45.5021083" lon="9.242565"><ele>130.0</ele><time>2026-04-25T09:22:15.63Z</time></trkpt><trkpt lat="45.50218" lon="9.2424617"><ele>130.0</ele><time>2026-04-25T09:22:17.63Z</time></trkpt><trkpt lat="45.5022267" lon="9.2423667"><ele>130.0</ele><time>2026-04-25T09:22:19.632Z</time></trkpt><trkpt lat="45.502285" lon="9.2422617"><ele>130.0</ele><time>2026-04-25T09:22:21.63Z</time></trkpt><trkpt lat="45.50234" lon="9.2421817"><ele>130.16666666666669</ele><time>2026-04-25T09:22:23.627Z</time></trkpt><trkpt lat="45.5023917" lon="9.2420867"><ele>130.33333333333334</ele><time>2026-04-25T09:22:25.628Z</time></trkpt><trkpt lat="45.5024467" lon="9.241995"><ele>130.5</ele><time>2026-04-25T09:22:27.632Z</time></trkpt><trkpt lat="45.5024983" lon="9.2419167"><ele>130.66666666666666</ele><time>2026-04-25T09:22:29.631Z</time></trkpt><trkpt lat="45.5025383" lon="9.2418283"><ele>130.83333333333331</ele><time>2026-04-25T09:22:31.629Z</time></trkpt><trkpt lat="45.5025783" lon="9.2417367"><ele>131.0</ele><time>2026-04-25T09:22:33.635Z</time></trkpt><trkpt lat="45.5026283" lon="9.2416617"><ele>131.0</ele><time>2026-04-25T09:22:35.629Z</time></trkpt><trkpt lat="45.5026983" lon="9.241575"><ele>131.0</ele><time>2026-04-25T09:22:38.635Z</time></trkpt><trkpt lat="45.5027667" lon="9.2414917"><ele>131.0</ele><time>2026-04-25T09:22:40.634Z</time></trkpt><trkpt lat="45.5028183" lon="9.24142"><ele>131.0</ele><time>2026-04-25T09:22:42.631Z</time></trkpt><trkpt lat="45.502865" lon="9.2413467"><ele>131.0</ele><time>2026-04-25T09:22:44.636Z</time></trkpt><trkpt lat="45.502915" lon="9.2412517"><ele>131.0</ele><time>2026-04-25T09:22:46.636Z</time></trkpt><trkpt lat="45.5029483" lon="9.24116"><ele>130.66666666666666</ele><time>2026-04-25T09:22:48.636Z</time></trkpt><trkpt lat="45.5030133" lon="9.241075"><ele>130.33333333333331</ele><time>2026-04-25T09:22:51.635Z</time></trkpt><trkpt lat="45.5030583" lon="9.2410083"><ele>130.0</ele><time>2026-04-25T09:22:53.631Z</time></trkpt><trkpt lat="45.50312" lon="9.2409233"><ele>129.66666666666666</ele><time>2026-04-25T09:22:56.632Z</time></trkpt><trkpt lat="45.5031817" lon="9.24085"><ele>129.33333333333334</ele><time>2026-04-25T09:22:59.632Z</time></trkpt><trkpt lat="45.5032317" lon="9.2407867"><ele>129.0</ele><time>2026-04-25T09:23:02.631Z</time></trkpt><trkpt lat="45.5032767" lon="9.24072"><ele>129.0</ele><time>2026-04-25T09:23:05.632Z</time></trkpt><trkpt lat="45.50321" lon="9.2407167"><ele>129.0</ele><time>2026-04-25T09:23:12.635Z</time></trkpt><trkpt lat="45.5031583" lon="9.2408033"><ele>129.0</ele><time>2026-04-25T09:23:14.634Z</time></trkpt><trkpt lat="45.5031017" lon="9.240885"><ele>129.0</ele><time>2026-04-25T09:23:16.634Z</time></trkpt><trkpt lat="45.5030483" lon="9.24097"><ele>129.0</ele><time>2026-04-25T09:23:18.639Z</time></trkpt><trkpt lat="45.5029983" lon="9.2410533"><ele>129.0</ele><time>2026-04-25T09:23:20.63Z</time></trkpt><trkpt lat="45.50294" lon="9.24111"><ele>129.0</ele><time>2026-04-25T09:23:22.631Z</time></trkpt><trkpt lat="45.502865" lon="9.24105"><ele>129.0</ele><time>2026-04-25T09:23:24.63Z</time></trkpt><trkpt lat="45.5028" lon="9.2409617"><ele>129.0</ele><time>2026-04-25T09:23:26.633Z</time></trkpt><trkpt lat="45.5027533" lon="9.24086"><ele>129.0</ele><time>2026-04-25T09:23:28.635Z</time></trkpt><trkpt lat="45.5026917" lon="9.24076"><ele>129.0</ele><time>2026-04-25T09:23:30.629Z</time></trkpt><trkpt lat="45.50262" lon="9.24067"><ele>128.8</ele><time>2026-04-25T09:23:32.63Z</time></trkpt><trkpt lat="45.502555" lon="9.24057"><ele>128.60000000000002</ele><time>2026-04-25T09:23:34.633Z</time></trkpt><trkpt lat="45.502495" lon="9.2404767"><ele>128.4</ele><time>2026-04-25T09:23:36.63Z</time></trkpt><trkpt lat="45.50243" lon="9.240385"><ele>128.20000000000002</ele><time>2026-04-25T09:23:38.628Z</time></trkpt><trkpt lat="45.5023583" lon="9.2402917"><ele>128.0</ele><time>2026-04-25T09:23:40.629Z</time></trkpt><trkpt lat="45.502295" lon="9.2402067"><ele>128.0</ele><time>2026-04-25T09:23:42.628Z</time></trkpt><trkpt lat="45.50224" lon="9.24011"><ele>128.0</ele><time>2026-04-25T09:23:44.631Z</time></trkpt><trkpt lat="45.5021683" lon="9.24"><ele>128.0</ele><time>2026-04-25T09:23:46.633Z</time></trkpt><trkpt lat="45.5020783" lon="9.239885"><ele>128.0</ele><time>2026-04-25T09:23:48.63Z</time></trkpt><trkpt lat="45.501985" lon="9.2397667"><ele>128.0</ele><time>2026-04-25T09:23:50.635Z</time></trkpt><trkpt lat="45.5019017" lon="9.2396533"><ele>128.5</ele><time>2026-04-25T09:23:52.635Z</time></trkpt><trkpt lat="45.501815" lon="9.2395367"><ele>129.0</ele><time>2026-04-25T09:23:54.629Z</time></trkpt><trkpt lat="45.5017117" lon="9.2394467"><ele>129.5</ele><time>2026-04-25T09:23:56.63Z</time></trkpt><trkpt lat="45.5016567" lon="9.2393867"><ele>130.0</ele><time>2026-04-25T09:23:57.63Z</time></trkpt><trkpt lat="45.5016033" lon="9.23932"><ele>130.5</ele><time>2026-04-25T09:23:58.631Z</time></trkpt><trkpt lat="45.50155" lon="9.23926"><ele>131.0</ele><time>2026-04-25T09:23:59.631Z</time></trkpt><trkpt lat="45.5014617" lon="9.23914"><ele>131.0</ele><time>2026-04-25T09:24:01.629Z</time></trkpt><trkpt lat="45.50138" lon="9.239025"><ele>131.0</ele><time>2026-04-25T09:24:03.63Z</time></trkpt><trkpt lat="45.501305" lon="9.2389"><ele>131.0</ele><time>2026-04-25T09:24:05.628Z</time></trkpt><trkpt lat="45.5012167" lon="9.238785"><ele>131.0</ele><time>2026-04-25T09:24:07.63Z</time></trkpt><trkpt lat="45.5011417" lon="9.238675"><ele>130.6</ele><time>2026-04-25T09:24:09.631Z</time></trkpt><trkpt lat="45.5010467" lon="9.2385617"><ele>130.2</ele><time>2026-04-25T09:24:11.629Z</time></trkpt><trkpt lat="45.5009917" lon="9.2385133"><ele>129.8</ele><time>2026-04-25T09:24:12.63Z</time></trkpt><trkpt lat="45.5009267" lon="9.2384683"><ele>129.4</ele><time>2026-04-25T09:24:13.629Z</time></trkpt><trkpt lat="45.5008667" lon="9.2384267"><ele>129.0</ele><time>2026-04-25T09:24:14.628Z</time></trkpt><trkpt lat="45.5007633" lon="9.2383283"><ele>129.0</ele><time>2026-04-25T09:24:16.629Z</time></trkpt><trkpt lat="45.5007167" lon="9.238265"><ele>129.0</ele><time>2026-04-25T09:24:17.628Z</time></trkpt><trkpt lat="45.5006767" lon="9.238195"><ele>129.0</ele><time>2026-04-25T09:24:18.629Z</time></trkpt><trkpt lat="45.5006267" lon="9.2381283"><ele>129.0</ele><time>2026-04-25T09:24:19.636Z</time></trkpt><trkpt lat="45.5005683" lon="9.238055"><ele>129.0</ele><time>2026-04-25T09:24:20.629Z</time></trkpt><trkpt lat="45.5004733" lon="9.237945"><ele>129.0</ele><time>2026-04-25T09:24:22.63Z</time></trkpt><trkpt lat="45.50039" lon="9.2378233"><ele>129.0</ele><time>2026-04-25T09:24:24.63Z</time></trkpt><trkpt lat="45.5003067" lon="9.2377067"><ele>129.0</ele><time>2026-04-25T09:24:26.632Z</time></trkpt><trkpt lat="45.5002133" lon="9.2375867"><ele>129.0</ele><time>2026-04-25T09:24:28.635Z</time></trkpt><trkpt lat="45.500135" lon="9.2374417"><ele>129.0</ele><time>2026-04-25T09:24:30.632Z</time></trkpt><trkpt lat="45.50009" lon="9.237375"><ele>129.0</ele><time>2026-04-25T09:24:31.632Z</time></trkpt><trkpt lat="45.5000033" lon="9.2372583"><ele>129.0</ele><time>2026-04-25T09:24:33.63Z</time></trkpt><trkpt lat="45.4999333" lon="9.2371267"><ele>129.0</ele><time>2026-04-25T09:24:35.633Z</time></trkpt><trkpt lat="45.4998683" lon="9.2369883"><ele>129.0</ele><time>2026-04-25T09:24:37.632Z</time></trkpt><trkpt lat="45.49982" lon="9.23692"><ele>129.0</ele><time>2026-04-25T09:24:38.632Z</time></trkpt><trkpt lat="45.4997683" lon="9.2368633"><ele>129.0</ele><time>2026-04-25T09:24:39.632Z</time></trkpt><trkpt lat="45.4997117" lon="9.2368067"><ele>129.0</ele><time>2026-04-25T09:24:40.631Z</time></trkpt><trkpt lat="45.4996617" lon="9.236745"><ele>129.0</ele><time>2026-04-25T09:24:41.631Z</time></trkpt><trkpt lat="45.4996183" lon="9.2366783"><ele>129.0</ele><time>2026-04-25T09:24:42.629Z</time></trkpt><trkpt lat="45.4995367" lon="9.2365483"><ele>129.0</ele><time>2026-04-25T09:24:44.632Z</time></trkpt><trkpt lat="45.499485" lon="9.236485"><ele>129.0</ele><time>2026-04-25T09:24:45.631Z</time></trkpt><trkpt lat="45.4994167" lon="9.2363817"><ele>129.0</ele><time>2026-04-25T09:24:47.63Z</time></trkpt><trkpt lat="45.49935" lon="9.2363367"><ele>129.0</ele><time>2026-04-25T09:24:52.63Z</time></trkpt><trkpt lat="45.499275" lon="9.236275"><ele>128.8</ele><time>2026-04-25T09:24:55.631Z</time></trkpt><trkpt lat="45.4992017" lon="9.2361817"><ele>128.60000000000002</ele><time>2026-04-25T09:24:57.63Z</time></trkpt><trkpt lat="45.49912" lon="9.2360867"><ele>128.4</ele><time>2026-04-25T09:24:59.631Z</time></trkpt><trkpt lat="45.49904" lon="9.2359983"><ele>128.20000000000002</ele><time>2026-04-25T09:25:01.635Z</time></trkpt><trkpt lat="45.4989633" lon="9.2358983"><ele>128.0</ele><time>2026-04-25T09:25:03.64Z</time></trkpt><trkpt lat="45.498895" lon="9.2358017"><ele>127.99999999999999</ele><time>2026-04-25T09:25:05.639Z</time></trkpt><trkpt lat="45.4988267" lon="9.2357117"><ele>128.0</ele><time>2026-04-25T09:25:07.635Z</time></trkpt><trkpt lat="45.4987667" lon="9.2356367"><ele>128.0</ele><time>2026-04-25T09:25:09.634Z</time></trkpt><trkpt lat="45.4987133" lon="9.2355833"><ele>128.0</ele><time>2026-04-25T09:25:11.632Z</time></trkpt><trkpt lat="45.49865" lon="9.2356183"><ele>127.99999999999999</ele><time>2026-04-25T09:25:15.636Z</time></trkpt><trkpt lat="45.498665" lon="9.2357167"><ele>128.0</ele><time>2026-04-25T09:25:21.632Z</time></trkpt><trkpt lat="45.4986" lon="9.235775"><ele>128.5</ele><time>2026-04-25T09:25:41.639Z</time></trkpt><trkpt lat="45.498535" lon="9.2357567"><ele>129.0</ele><time>2026-04-25T09:25:43.636Z</time></trkpt><trkpt lat="45.49847" lon="9.2357517"><ele>129.5</ele><time>2026-04-25T09:25:48.641Z</time></trkpt><trkpt lat="45.498395" lon="9.2357417"><ele>130.0</ele><time>2026-04-25T09:25:50.639Z</time></trkpt><trkpt lat="45.4983233" lon="9.2358867"><ele>130.5</ele><time>2026-04-25T09:25:57.636Z</time></trkpt><trkpt lat="45.4982517" lon="9.23598"><ele>131.0</ele><time>2026-04-25T09:26:00.638Z</time></trkpt><trkpt lat="45.4981717" lon="9.2360667"><ele>131.0</ele><time>2026-04-25T09:26:04.736Z</time></trkpt><trkpt lat="45.4981133" lon="9.23615"><ele>131.0</ele><time>2026-04-25T09:26:06.633Z</time></trkpt><trkpt lat="45.4981033" lon="9.2362933"><ele>131.0</ele><time>2026-04-25T09:26:31.63Z</time></trkpt></trkseg></trk></gpx>